[[{"header":{"parameterUnit":"m.s-1","parameterCategory":1,"la1":31.0,"la2":29.5877,"lo1":-88.7671,"lo2":-86.6584,"dy":0.0162,"dx":0.0185,"nx":115,"ny":88,"refTime":"2023-07-23T00:00:00:Z","depth":0,"parameterNumber":2,"parameterNumberName":"U-component_of_WINDS"},"data":[0.0,0.0,0.0,0.0,0.0,0.0,0.0,0.0,0.0,0.0,0.0,0.0,0.0,0.0,0.0,0.0,0.0,0.0,0.0,0.0,0.0,0.0,0.0,0.0,0.0,0.0,0.0,0.0,0.0,0.0,0.0,0.0,0.0,0.0,0.0,0.0,0.0,0.0,0.0,0.0,0.0,0.0,0.0,0.0,0.0,0.0,0.0,0.0,0.0,0.0,0.0,0.0,0.0,0.0,0.0,0.0,0.0,0.0,0.0,0.0,0.0,0.0,0.0,0.0,0.0,0.0,0.0,0.0,0.0,0.0,0.0,0.0,0.0,0.0,0.0,0.0,0.0,0.0,0.0,0.0,0.0,0.0,0.0,0.0,0.0,0.0,0.0,0.0,0.0,0.0,0.0,0.0,0.0,0.0,0.0,0.0,0.0,0.0,0.0,0.0,0.0,0.0,0.0,0.0,0.0,0.0,0.0,0.0,0.0,0.0,0.0,0.0,0.0,0.0,0.0,0.0,0.0,0.0,0.0,0.0,0.0,0.0,0.0,0.0,0.0,0.0,0.0,0.0,0.0,0.0,0.0,0.0,0.0,0.0,0.0,0.0,0.0,0.0,0.0,0.0,0.0,0.0,0.0,0.0,0.0,0.0,0.0,0.0,0.0,0.0,0.0,0.0,0.0,0.0,0.0,0.0,0.0,0.0,0.0,0.0,0.0,0.0,0.0,0.0,0.0,0.0,0.0,0.0,0.0,0.0,0.0,0.0,0.0,0.0,0.0,0.0,0.0,0.0,0.0,0.0,0.0,0.0,0.0,0.0,0.0,0.0,0.0,0.0,0.0,0.0,0.0,0.0,0.0,0.0,0.0,0.0,0.0,0.0,0.0,0.0,0.0,0.0,0.0,0.0,0.0,0.0,0.0,0.0,0.0,0.0,0.0,0.0,0.0,0.0,0.0,0.0,0.0,0.0,0.0,0.0,0.0,0.0,0.0,0.0,0.0,0.0,0.0,0.0,0.0,0.0,0.0,0.0,0.0,0.0,0.0,0.0,0.0,0.0,0.0,0.0,0.0,0.0,0.0,0.0,0.0,0.0,0.0,0.0,0.0,0.0,0.0,0.0,0.0,0.0,0.0,0.0,0.0,0.0,0.0,0.0,0.0,0.0,0.0,0.0,0.0,0.0,0.0,0.0,0.0,0.0,0.0,0.0,0.0,0.0,0.0,0.0,0.0,0.0,0.0,0.0,0.0,0.0,0.0,0.0,0.0,0.0,0.0,0.0,0.0,0.0,0.0,0.0,0.0,0.0,0.0,0.0,0.0,0.0,0.0,0.0,0.0,0.0,0.0,0.0,0.0,0.0,0.0,0.0,0.0,0.0,0.0,0.0,0.0,0.0,0.0,0.0,0.0,0.0,0.0,0.0,0.0,0.0,0.0,0.0,0.0,0.0,0.0,0.0,0.0,0.0,0.0,0.0,0.0,0.0,0.0,0.0,0.0,0.0,0.0,0.0,0.0,0.0,0.0,0.0,0.0,0.0,0.0,0.0,0.0,0.0,0.0,0.0,0.0,0.0,0.0,0.0,0.0,0.0,0.0,0.0,0.0,0.0,0.0,0.0,0.0,0.0,0.0,0.0,0.0,0.0,0.0,0.0,0.0,0.0,0.0,0.0,0.0,0.0,0.0,0.0,0.0,0.0,0.0,0.0,0.0,0.0,0.0,0.0,0.0,0.0,0.0,0.0,0.0,0.0,0.0,0.0,0.0,0.0,0.0,0.0,0.0,0.0,0.0,0.0,0.0,0.0,0.0,0.0,0.0,0.0,0.0,0.0,0.0,0.0,0.0,0.0,0.0,0.0,0.0,0.0,0.0,0.0,0.0,0.0,0.0,0.0,0.0,0.0,0.0,0.0,0.0,0.0,0.0,0.0,0.0,0.0,0.0,0.0,0.0,0.0,0.0,0.0,0.0,0.0,0.0,0.0,0.0,0.0,0.0,0.0,0.0,0.0,0.0,0.0,0.0,0.0,0.0,0.0,0.0,0.0,0.0,0.0,0.0,0.0,0.0,0.0,0.0,0.0,0.0,0.0,0.0,0.0,0.0,0.0,0.0,0.0,0.0,0.0,0.0,0.0,0.0,0.0,0.0,0.0,0.0,0.0,0.0,0.0,0.0,0.0,0.0,0.0,0.0,0.0,0.0,0.0,0.0,0.0,0.0,0.0,0.0,0.0,0.0,0.0,0.0,0.0,0.0,0.0,0.0,0.0,0.0,0.0,0.0,0.0,0.0,0.0,0.0,0.0,0.0,0.0,0.0,0.0,0.0,0.0,0.0,0.0,0.0,0.0,0.0,0.0,0.0,0.0,0.0,0.0,0.0,0.0,0.0,0.0,0.0,0.0,0.0,0.0,0.0,0.0,0.0,0.0,0.0,0.0,0.0,0.0,0.0,0.0,0.0,0.0,0.0,0.0,0.0,0.0,0.0,0.0,0.0,0.0,0.0,0.0,0.0,0.0,0.0,0.0,0.0,0.0,0.0,0.0,0.0,0.0,0.0,0.0,0.0,0.0,0.0,0.0,0.0,0.0,0.0,0.0,0.0,0.0,0.0,0.0,0.0,0.0,0.0,0.0,0.0,0.0,0.0,0.0,0.0,0.0,0.0,0.0,0.0,0.0,0.0,0.0,0.0,0.0,0.0,0.0,0.0,0.0,0.0,0.0,0.0,0.0,0.0,0.0,0.0,0.0,0.0,0.0,0.0,0.0,0.0,0.0,0.0,0.0,0.0,0.0,0.0,0.0,0.0,0.0,0.0,0.0,0.0,0.0,0.0,0.0,0.0,0.0,0.0,0.0,0.0,0.0,0.0,0.0,0.0,0.0,0.0,0.0,0.0,0.0,0.0,0.0,0.0,0.0,0.0,0.0,0.0,0.0,0.0,0.0,0.0,0.0,0.0,0.0,0.0,0.0,0.0,0.0,0.0,0.0,0.0,0.0,0.0,0.0,0.0,0.0,0.0,0.0,0.0,0.0,0.0,0.0,0.0,0.0,0.0,0.0,0.0,0.0,0.0,0.0,0.0,0.0,0.0,0.0,0.0,0.0,0.0,0.0,0.0,0.0,0.0,0.0,0.0,0.0,0.0,0.0,0.0,0.0,0.0,0.0,0.0,0.0,0.0,0.0,0.0,0.0,0.0,0.0,0.0,0.0,0.0,0.0,0.0,0.0,0.0,0.0,0.0,0.0,0.0,0.0,0.0,0.0,0.0,0.0,0.0,0.0,0.0,0.0,0.0,0.0,0.0,0.0,0.0,0.0,0.0,0.0,0.0,0.0,0.0,0.0,0.0,0.0,0.0,0.0,0.0,0.0,0.0,0.0,0.0,0.0,0.0,0.0,0.0,0.0,0.0,0.0,0.0,0.0,0.0,0.0,0.0,0.0,0.0,0.0,0.0,0.0,0.0,0.0,0.0,0.0,0.0,0.0,0.0,0.0,0.0,0.0,0.0,0.0,0.0,0.0,0.0,0.0,0.0,0.0,0.0,0.0,0.0,0.0,0.0,0.0,0.0,0.0,0.0,0.0,0.0,0.0,0.0,0.0,0.0,0.0,0.0,0.0,0.0,0.0,0.0,0.0,0.0,0.0,0.0,0.0,0.0,0.0,0.0,0.0,0.0,0.0,0.0,0.0,0.0,0.0,0.0,0.0,0.0,0.0,0.0,0.0,0.0,0.0,0.0,0.0,0.0,0.0,0.0,0.0,0.0,0.0,0.0,0.0,0.0,0.0,0.0,0.0,0.0,0.0,0.0,0.0,0.0,0.0,0.0,0.0,0.0,0.0,0.0,0.0,0.0,0.0,0.0,0.0,0.0,0.0,0.0,0.0,0.0,0.0,0.0,0.0,0.0,0.0,0.0,0.0,0.0,0.0,0.0,0.0,0.0,0.0,0.0,0.0,0.0,0.0,0.0,0.0,0.0,0.0,0.0,0.0,0.0,0.0,0.0,0.0,0.0,0.0,0.0,0.0,0.0,0.0,0.0,0.0,0.0,0.0,0.0,0.0,0.0,0.0,0.0,0.0,0.0,0.0,0.0,0.0,0.0,0.0,0.0,0.0,0.0,0.0,0.0,0.0,0.0,0.0,0.0,0.0,0.0,0.0,0.0,0.0,0.0,0.0,0.0,0.0,0.0,0.0,0.0,0.0,0.0,0.0,0.0,0.0,0.0,0.0,0.0,0.0,0.0,0.0,0.0,0.0,0.0,0.0,0.0,0.0,0.0,0.0,0.0,0.0,2.9338,0.0,0.0,0.0,0.0,0.0,0.0,0.0,0.0,0.0,0.0,0.0,0.0,0.0,0.0,0.0,0.0,0.0,0.0,0.0,0.0,0.0,0.0,0.0,0.0,0.0,0.0,0.0,0.0,0.0,0.0,0.0,0.0,0.0,0.0,0.0,0.0,0.0,0.0,0.0,0.0,0.0,0.0,0.0,0.0,0.0,0.0,0.0,0.0,0.0,0.0,0.0,0.0,0.0,0.0,0.0,0.0,0.0,0.0,0.0,0.0,0.0,0.0,0.0,0.0,0.0,0.0,0.0,0.0,0.0,0.0,0.0,0.0,0.0,0.0,0.0,0.0,0.0,0.0,0.0,0.0,0.0,0.0,0.0,0.0,0.0,0.0,0.0,0.0,0.0,0.0,0.0,0.0,0.0,0.0,0.0,0.0,0.0,0.0,0.0,0.0,0.0,0.0,0.0,0.0,0.0,0.0,0.0,0.0,0.0,0.0,3.0716,3.0765,3.0802,3.0611,3.0197,0.0,0.0,0.0,0.0,0.0,0.0,0.0,0.0,0.0,0.0,0.0,0.0,0.0,0.0,0.0,0.0,0.0,0.0,0.0,0.0,0.0,0.0,0.0,0.0,0.0,0.0,0.0,0.0,0.0,0.0,0.0,0.0,0.0,0.0,0.0,0.0,0.0,0.0,0.0,0.0,0.0,0.0,0.0,0.0,0.0,0.0,0.0,0.0,0.0,0.0,0.0,0.0,0.0,0.0,0.0,0.0,0.0,0.0,0.0,0.0,0.0,0.0,0.0,0.0,0.0,0.0,0.0,0.0,0.0,0.0,0.0,0.0,0.0,0.0,0.0,0.0,0.0,0.0,0.0,0.0,0.0,0.0,0.0,0.0,0.0,0.0,0.0,0.0,0.0,0.0,0.0,0.0,0.0,0.0,0.0,0.0,0.0,0.0,0.0,0.0,0.0,0.0,0.0,0.0,0.0,0.0,0.0,0.0,0.0,0.0,0.0,0.0,3.0784,3.0691,3.0472,0.0,0.0,0.0,0.0,0.0,0.0,0.0,0.0,0.0,0.0,0.0,0.0,0.0,0.0,0.0,0.0,0.0,0.0,0.0,0.0,0.0,0.0,0.0,0.0,0.0,0.0,0.0,0.0,0.0,0.0,0.0,0.0,0.0,0.0,0.0,0.0,0.0,0.0,0.0,0.0,0.0,0.0,0.0,0.0,0.0,0.0,0.0,0.0,0.0,0.0,0.0,0.0,0.0,0.0,0.0,0.0,0.0,0.0,0.0,0.0,0.0,0.0,0.0,0.0,0.0,0.0,0.0,0.0,0.0,0.0,0.0,0.0,0.0,0.0,0.0,0.0,0.0,0.0,0.0,0.0,0.0,0.0,0.0,0.0,0.0,0.0,0.0,0.0,0.0,0.0,0.0,0.0,0.0,0.0,0.0,0.0,0.0,0.0,0.0,0.0,0.0,0.0,0.0,0.0,0.0,0.0,0.0,0.0,0.0,0.0,3.0707,3.0699,3.0702,0.0,2.9628,0.0,0.0,0.0,0.0,0.0,0.0,0.0,0.0,0.0,0.0,0.0,0.0,0.0,0.0,0.0,0.0,0.0,0.0,0.0,0.0,0.0,0.0,0.0,0.0,0.0,0.0,0.0,0.0,0.0,0.0,0.0,0.0,0.0,0.0,0.0,0.0,0.0,0.0,0.0,0.0,0.0,0.0,0.0,0.0,0.0,0.0,0.0,0.0,0.0,0.0,0.0,0.0,0.0,0.0,0.0,0.0,0.0,0.0,0.0,0.0,0.0,0.0,0.0,0.0,0.0,0.0,0.0,0.0,0.0,0.0,0.0,0.0,0.0,0.0,0.0,0.0,0.0,0.0,0.0,0.0,0.0,0.0,0.0,0.0,0.0,0.0,0.0,0.0,0.0,0.0,0.0,0.0,0.0,0.0,0.0,0.0,0.0,0.0,0.0,0.0,0.0,0.0,0.0,0.0,0.0,0.0,0.0,0.0,0.0,0.0,3.0605,3.0512,3.0447,3.0283,0.0,0.0,0.0,0.0,0.0,0.0,0.0,0.0,0.0,0.0,0.0,0.0,0.0,0.0,0.0,0.0,0.0,0.0,0.0,0.0,0.0,0.0,0.0,0.0,0.0,0.0,0.0,0.0,0.0,0.0,0.0,0.0,0.0,0.0,0.0,0.0,0.0,0.0,0.0,0.0,0.0,0.0,0.0,0.0,0.0,0.0,0.0,0.0,0.0,0.0,0.0,0.0,0.0,0.0,0.0,0.0,0.0,0.0,0.0,0.0,0.0,0.0,0.0,0.0,0.0,0.0,0.0,0.0,0.0,0.0,0.0,0.0,0.0,0.0,0.0,0.0,0.0,0.0,0.0,0.0,0.0,0.0,0.0,0.0,0.0,0.0,0.0,0.0,0.0,0.0,0.0,0.0,0.0,0.0,0.0,0.0,0.0,0.0,0.0,0.0,0.0,0.0,0.0,0.0,0.0,0.0,0.0,0.0,0.0,0.0,3.0527,3.0287,2.9979,2.9817,2.98,2.9918,0.0,0.0,0.0,0.0,0.0,0.0,0.0,0.0,0.0,0.0,0.0,0.0,0.0,0.0,0.0,0.0,0.0,0.0,0.0,0.0,0.0,0.0,0.0,0.0,0.0,0.0,0.0,0.0,0.0,0.0,0.0,0.0,0.0,0.0,0.0,0.0,0.0,0.0,0.0,0.0,0.0,0.0,0.0,0.0,0.0,0.0,0.0,0.0,0.0,0.0,0.0,0.0,0.0,0.0,0.0,0.0,0.0,0.0,0.0,0.0,0.0,0.0,0.0,0.0,0.0,0.0,0.0,0.0,0.0,0.0,0.0,0.0,0.0,0.0,0.0,0.0,0.0,0.0,0.0,0.0,0.0,0.0,0.0,0.0,0.0,0.0,0.0,0.0,0.0,0.0,0.0,0.0,0.0,0.0,0.0,0.0,0.0,0.0,0.0,0.0,0.0,0.0,0.0,0.0,0.0,0.0,0.0,0.0,3.0495,3.0219,2.9706,2.8877,2.8662,2.8683,0.0,0.0,0.0,0.0,0.0,0.0,0.0,0.0,0.0,0.0,0.0,0.0,0.0,0.0,0.0,0.0,0.0,0.0,0.0,0.0,0.0,0.0,0.0,0.0,0.0,0.0,0.0,0.0,0.0,0.0,0.0,0.0,0.0,0.0,0.0,0.0,0.0,0.0,0.0,0.0,0.0,0.0,0.0,0.0,0.0,0.0,0.0,0.0,0.0,0.0,0.0,0.0,0.0,0.0,0.0,0.0,0.0,0.0,0.0,0.0,0.0,0.0,0.0,0.0,0.0,0.0,0.0,0.0,0.0,0.0,0.0,0.0,0.0,0.0,0.0,0.0,0.0,0.0,0.0,0.0,0.0,0.0,0.0,0.0,0.0,0.0,0.0,0.0,0.0,0.0,0.0,0.0,0.0,0.0,0.0,0.0,0.0,0.0,0.0,0.0,0.0,0.0,0.0,0.0,0.0,0.0,0.0,0.0,0.0,3.0075,2.8733,2.7506,2.6532,2.6294,2.6411,0.0,0.0,0.0,0.0,0.0,0.0,0.0,0.0,0.0,0.0,0.0,0.0,0.0,0.0,0.0,0.0,0.0,0.0,0.0,0.0,0.0,0.0,0.0,0.0,0.0,0.0,0.0,0.0,0.0,0.0,0.0,0.0,0.0,0.0,0.0,0.0,0.0,0.0,0.0,0.0,0.0,0.0,0.0,0.0,0.0,0.0,0.0,0.0,0.0,0.0,0.0,0.0,0.0,0.0,0.0,0.0,0.0,0.0,0.0,0.0,0.0,0.0,0.0,0.0,0.0,0.0,0.0,0.0,0.0,0.0,0.0,0.0,0.0,0.0,0.0,0.0,0.0,0.0,0.0,0.0,0.0,0.0,0.0,0.0,0.0,0.0,0.0,0.0,0.0,0.0,0.0,0.0,0.0,0.0,0.0,0.0,0.0,0.0,0.0,0.0,0.0,0.0,0.0,0.0,0.0,0.0,0.0,0.0,0.0,2.8249,0.0,2.4793,2.3186,2.2948,2.3281,0.0,0.0,0.0,0.0,0.0,0.0,0.0,0.0,0.0,0.0,0.0,0.0,0.0,0.0,0.0,0.0,0.0,0.0,0.0,0.0,0.0,0.0,0.0,0.0,0.0,0.0,0.0,0.0,0.0,0.0,0.0,0.0,0.0,0.0,0.0,0.0,0.0,0.0,0.0,0.0,0.0,0.0,0.0,0.0,0.0,0.0,0.0,0.0,0.0,0.0,0.0,0.0,0.0,0.0,0.0,0.0,0.0,0.0,0.0,0.0,0.0,0.0,0.0,0.0,0.0,0.0,0.0,0.0,0.0,0.0,0.0,0.0,0.0,0.0,0.0,0.0,0.0,0.0,0.0,0.0,0.0,0.0,0.0,0.0,0.0,0.0,0.0,0.0,0.0,0.0,0.0,0.0,0.0,0.0,0.0,0.0,0.0,0.0,0.0,0.0,0.0,0.0,0.0,0.0,0.0,0.0,0.0,0.0,2.8028,2.4715,2.3481,2.1476,1.8745,1.8606,1.9283,0.0,0.0,0.0,0.0,0.0,0.0,0.0,0.0,0.0,0.0,0.0,0.0,0.0,0.0,0.0,0.0,0.0,0.0,0.0,0.0,0.0,0.0,0.0,0.0,0.0,0.0,0.0,0.0,0.0,0.0,0.0,0.0,0.0,0.0,0.0,0.0,0.0,0.0,0.0,0.0,0.0,0.0,0.0,0.0,0.0,0.0,0.0,0.0,0.0,0.0,0.0,0.0,0.0,0.0,0.0,0.0,0.0,0.0,0.0,0.0,0.0,0.0,0.0,0.0,0.0,0.0,0.0,0.0,0.0,0.0,0.0,0.0,0.0,0.0,0.0,0.0,0.0,0.0,0.0,0.0,0.0,0.0,0.0,0.0,0.0,0.0,0.0,0.0,0.0,0.0,0.0,0.0,0.0,0.0,0.0,0.0,0.0,0.0,0.0,0.0,0.0,0.0,0.0,0.0,0.0,0.0,0.0,0.0,0.0,1.8167,1.8982,1.6973,1.2135,1.2928,1.4334,0.0,0.0,0.0,0.0,0.0,0.0,0.0,0.0,0.0,0.0,0.0,0.0,0.0,0.0,0.0,0.0,0.0,0.0,0.0,0.0,0.0,0.0,0.0,0.0,0.0,0.0,0.0,0.0,0.0,0.0,0.0,0.0,0.0,0.0,0.0,0.0,0.0,0.0,0.0,0.0,0.0,0.0,0.0,0.0,0.0,0.0,0.0,0.0,0.0,0.0,0.0,0.0,0.0,0.0,0.0,0.0,0.0,0.0,0.0,0.0,0.0,0.0,0.0,0.0,0.0,0.0,0.0,0.0,0.0,0.0,0.0,0.0,0.0,0.0,0.0,0.0,0.0,0.0,0.0,0.0,0.0,0.0,0.0,0.0,0.0,0.0,0.0,0.0,0.0,0.0,0.0,0.0,0.0,0.0,0.0,0.0,0.0,0.0,0.0,0.0,0.0,0.0,0.0,0.0,0.0,0.0,0.0,0.0,0.0,0.7334,0.99,0.9277,0.4956,0.7096,0.9242,1.1421,0.0,0.0,0.0,0.0,0.0,0.0,0.0,0.0,0.0,0.0,0.0,0.0,0.0,0.0,0.0,0.0,0.0,0.0,0.0,0.0,0.0,0.0,0.0,0.0,0.0,0.0,0.0,0.0,0.0,0.0,0.0,0.0,0.0,0.0,0.0,0.0,0.0,0.0,0.0,0.0,0.0,0.0,0.0,0.0,0.0,0.0,0.0,0.0,0.0,0.0,0.0,0.0,0.0,0.0,0.0,0.0,0.0,0.0,0.0,0.0,0.0,0.0,0.0,0.0,0.0,0.0,0.0,0.0,0.0,0.0,0.0,0.0,0.0,0.0,0.0,0.0,0.0,0.0,0.0,0.0,0.0,0.0,0.0,0.0,0.0,0.0,0.0,0.0,0.0,0.0,0.0,0.0,0.0,0.0,0.0,0.0,0.0,0.0,0.0,0.0,0.0,0.0,0.0,0.0,0.0,0.0,0.0,0.0,-0.688,-0.28,-0.1027,-0.1965,0.1242,0.4233,0.0,0.0,0.0,0.0,0.0,0.0,0.0,0.0,0.0,0.0,0.0,0.0,0.0,0.0,0.0,0.0,0.0,0.0,0.0,0.0,0.0,0.0,0.0,0.0,0.0,0.0,0.0,0.0,0.0,0.0,0.0,0.0,0.0,0.0,0.0,0.0,0.0,0.0,0.0,0.0,0.0,0.0,0.0,0.0,0.0,0.0,0.0,0.0,0.0,0.0,0.0,0.0,0.0,0.0,0.0,0.0,0.0,0.0,0.0,0.0,0.0,0.0,0.0,0.0,0.0,0.0,0.0,0.0,0.0,0.0,0.0,0.0,0.0,0.0,0.0,0.0,0.0,0.0,0.0,0.0,0.0,0.0,0.0,0.0,0.0,0.0,0.0,0.0,0.0,0.0,0.0,0.0,0.0,0.0,0.0,0.0,0.0,0.0,0.0,0.0,0.0,0.0,0.0,0.0,0.0,0.0,0.0,0.0,0.0,-1.4157,-1.3974,-1.1802,-0.769,-0.352,0.0069,0.0,0.0,0.0,0.0,0.0,0.0,0.0,0.0,0.0,0.0,0.0,0.0,0.0,0.0,0.0,0.0,0.0,0.0,0.0,0.0,0.0,0.0,0.0,0.0,0.0,0.0,0.0,0.0,0.0,0.0,0.0,0.0,0.0,0.0,0.0,0.0,0.0,0.0,0.0,0.0,0.0,0.0,0.0,0.0,0.0,0.0,0.0,0.0,0.0,0.0,0.0,0.0,0.0,0.0,0.0,0.0,0.0,0.0,0.0,0.0,0.0,0.0,0.0,0.0,0.0,0.0,0.0,0.0,0.0,0.0,0.0,0.0,0.0,0.0,0.0,0.0,0.0,0.0,0.0,0.0,0.0,0.0,0.0,0.0,0.0,0.0,0.0,0.0,0.0,0.0,0.0,0.0,0.0,0.0,0.0,0.0,0.0,0.0,0.0,0.0,0.0,0.0,0.0,0.0,0.0,0.0,0.0,0.0,-1.4796,-1.7917,-1.9061,-1.7282,-1.2453,-0.7305,-0.3158,0.0,0.0,0.0,0.0,0.0,0.0,0.0,0.0,0.0,0.0,0.0,0.0,0.0,0.0,0.0,0.0,0.0,0.0,0.0,0.0,0.0,0.0,0.0,0.0,0.0,0.0,0.0,0.0,0.0,0.0,0.0,0.0,0.0,0.0,0.0,0.0,0.0,0.0,0.0,0.0,0.0,0.0,0.0,0.0,0.0,0.0,0.0,0.0,0.0,0.0,0.0,0.0,0.0,0.0,0.0,0.0,0.0,0.0,0.0,0.0,0.0,0.0,0.0,0.0,0.0,0.0,0.0,0.0,0.0,0.0,0.0,0.0,0.0,0.0,0.0,0.0,0.0,0.0,0.0,0.0,0.0,0.0,0.0,0.0,0.0,0.0,0.0,0.0,0.0,0.0,0.0,0.0,0.0,0.0,0.0,0.0,0.0,0.0,0.0,0.0,0.0,0.0,0.0,0.0,0.0,0.0,0.0,0.0,-1.7664,-1.9201,-2.0205,-1.9237,-1.6039,-1.0185,-0.5752,0.0,0.0,0.0,0.0,0.0,0.0,0.0,0.0,0.0,0.0,0.0,0.0,0.0,0.0,0.0,0.0,0.0,0.0,0.0,0.0,0.0,0.0,0.0,0.0,0.0,0.0,0.0,0.0,0.0,0.0,0.0,0.0,0.0,0.0,0.0,0.0,0.0,0.0,0.0,0.0,0.0,0.0,0.0,0.0,0.0,0.0,0.0,0.0,0.0,0.0,0.0,0.0,0.0,0.0,0.0,0.0,0.0,0.0,0.0,0.0,0.0,0.0,0.0,0.0,0.0,0.0,0.0,0.0,0.0,0.0,0.0,0.0,0.0,0.0,0.0,0.0,0.0,0.0,0.0,0.0,0.0,0.0,0.0,0.0,0.0,0.0,0.0,0.0,0.0,0.0,0.0,0.0,0.0,0.0,0.0,0.0,0.0,0.0,0.0,0.0,0.0,0.0,0.0,0.0,0.0,0.0,0.0,0.0,-2.0333,-2.1226,-2.1164,-1.9558,-1.6409,-1.1288,-0.729,0.0,0.0,0.0,0.0,0.0,0.0,0.0,0.0,0.0,0.0,0.0,0.0,0.0,0.0,0.0,0.0,0.0,0.0,0.0,0.0,0.0,0.0,0.0,0.0,0.0,0.0,0.0,0.0,0.0,0.0,0.0,0.0,0.0,0.0,0.0,0.0,0.0,0.0,0.0,0.0,0.0,0.0,0.0,0.0,0.0,0.0,0.0,0.0,-0.377,0.0,0.0,0.0,0.0,0.0,0.0,0.0,0.0,0.0,0.0,0.0,0.0,0.0,0.0,0.0,0.0,0.0,0.0,0.0,0.0,0.0,0.0,0.0,0.0,0.0,0.0,0.0,0.0,0.0,0.0,0.0,0.0,0.0,0.0,0.0,0.0,0.0,0.0,0.0,0.0,0.0,0.0,0.0,0.0,0.0,0.0,0.0,0.0,0.0,0.0,0.0,0.0,0.0,0.0,0.0,0.0,0.0,0.0,0.0,-2.1848,-2.1681,-2.1143,-1.9028,-1.5223,-1.1359,-0.8217,0.0,0.0,0.0,0.0,0.0,0.0,0.0,0.0,0.0,0.0,0.0,0.0,0.0,0.0,0.0,0.0,0.0,0.0,0.0,0.0,0.0,0.0,0.0,0.0,0.0,0.0,0.0,0.0,0.0,0.0,0.0,0.0,0.0,0.0,0.0,0.0,0.0,0.0,0.0,0.0,0.0,0.0,0.0,0.0,0.0,0.0,0.0,0.0,0.0,0.0,0.0,0.0,0.0,0.0,0.0,0.0,0.0,0.0,0.0,0.0,0.0,0.0,0.0,0.0,0.0,0.0,0.0,0.0,0.0,0.0,0.0,0.0,0.0,0.0,0.0,0.0,0.0,0.0,0.0,0.0,0.0,0.0,0.0,0.0,0.0,0.0,0.0,0.0,0.0,0.0,0.0,0.0,0.0,0.0,0.0,0.0,0.0,0.0,0.0,0.0,0.0,0.0,0.0,0.0,0.0,0.0,0.0,-2.2607,-2.2766,-2.1506,-2.0751,-1.8215,-1.3606,-1.1051,-0.8647,-0.6466,0.0,0.0,0.0,0.0,0.0,0.0,0.0,0.0,0.0,0.0,0.0,0.0,0.0,0.0,0.0,0.0,0.0,0.0,0.0,0.0,0.0,0.0,0.0,0.0,0.0,0.0,0.0,0.0,0.0,0.0,0.0,0.0,0.0,0.0,0.0,0.0,0.0,0.0,-0.0764,-0.1624,0.0,0.0,0.0,0.0,0.0,0.0,0.0,0.0,-0.6903,0.0,0.0,0.0,0.0,0.0,0.0,0.0,0.0,0.0,0.0,0.0,0.0,0.0,0.0,0.0,0.0,0.0,0.0,0.0,0.0,0.0,0.0,0.0,0.0,0.0,0.0,0.0,0.0,0.0,0.0,0.0,0.0,0.0,0.0,0.0,0.0,0.0,0.0,0.0,0.0,0.0,0.0,0.0,0.0,0.0,0.0,0.0,0.0,0.0,0.0,0.0,0.0,0.0,0.0,0.0,0.0,-2.3568,-2.4042,-2.3447,-2.1763,-2.0552,-1.756,-1.2718,-1.074,-0.8857,-0.6932,0.0,0.0,0.0,0.0,0.0,0.0,0.0,0.0,0.0,0.0,0.0,0.0,0.0,0.0,0.0,0.0,0.0,0.0,0.0,0.0,0.0,0.0,0.0,0.0,0.0,0.0,0.0,0.0,0.0,0.0,0.0,0.0,0.0,0.0,0.0,0.0,0.0,0.0,0.0,-0.6191,-0.6822,0.0,0.0,0.0,0.0,0.0,0.0,0.0,0.0,-0.778,0.0,0.0,0.0,0.0,0.0,0.0,0.0,0.0,0.0,0.0,0.0,0.0,0.0,0.0,0.0,0.0,0.0,0.0,0.0,0.0,0.0,0.0,0.0,0.0,0.0,0.0,0.0,0.0,0.0,0.0,0.0,0.0,0.0,0.0,0.0,0.0,0.0,0.0,0.0,0.0,0.0,0.0,0.0,0.0,0.0,0.0,0.0,0.0,0.0,0.0,0.0,0.0,0.0,0.0,0.0,-2.5309,-2.4752,-2.3534,-2.1754,-1.9652,-1.6415,-1.2005,-1.0361,-0.8816,0.0,0.0,0.0,0.0,0.0,0.0,0.0,0.0,0.0,0.0,0.0,0.0,0.0,0.0,0.0,0.0,0.0,0.0,0.0,0.0,0.0,0.0,0.0,0.0,0.0,0.0,0.0,0.0,0.0,0.0,0.0,0.0,0.0,0.0,0.0,0.0,0.0,0.0,0.0,0.0,-0.8101,-0.8708,-0.9048,0.0,0.0,0.0,0.0,0.0,0.0,-0.9239,-0.8914,0.0,0.0,0.0,0.0,0.0,0.0,0.0,0.0,0.0,0.0,0.0,0.0,0.0,0.0,0.0,0.0,0.0,0.0,0.0,0.0,0.0,0.0,0.0,0.0,0.0,0.0,0.0,0.0,0.0,0.0,0.0,0.0,0.0,0.0,0.0,0.0,0.0,0.0,0.0,0.0,0.0,0.0,0.0,0.0,0.0,0.0,0.0,0.0,0.0,0.0,0.0,0.0,0.0,0.0,0.0,-2.6563,-2.5046,-2.3366,-2.1587,-1.8648,-1.5249,-1.1439,-0.9958,-0.8708,0.0,0.0,0.0,0.0,0.0,0.0,0.0,0.0,0.0,0.0,0.0,0.0,0.0,0.0,0.0,0.0,0.0,0.0,0.0,0.0,0.0,0.0,0.0,0.0,0.0,0.0,0.0,0.0,0.0,0.0,0.0,0.0,0.0,0.0,0.0,0.0,0.0,0.0,0.0,0.0,0.0,-1.0138,-1.0952,-1.1112,0.0,0.0,0.0,0.0,-1.0684,-1.0383,0.0,0.0,0.0,0.0,0.0,0.0,0.0,0.0,0.0,0.0,0.0,0.0,0.0,0.0,0.0,0.0,0.0,0.0,0.0,0.0,0.0,0.0,0.0,0.0,0.0,0.0,0.0,0.0,0.0,0.0,0.0,0.0,0.0,0.0,0.0,0.0,0.0,0.0,0.0,0.0,0.0,0.0,0.0,0.0,0.0,0.0,0.0,0.0,0.0,0.0,0.0,0.0,0.0,0.0,0.0,0.0,-2.6819,-2.4917,-2.3042,-2.1277,-1.7855,-1.441,-1.1122,-0.9753,-0.8538,0.0,0.0,0.0,0.0,0.0,0.0,0.0,0.0,0.0,0.0,0.0,0.0,0.0,0.0,0.0,0.0,0.0,0.0,0.0,0.0,0.0,0.0,0.0,0.0,0.0,0.0,0.0,0.0,0.0,0.0,0.0,0.0,0.0,0.0,0.0,0.0,0.0,0.0,0.0,0.0,0.0,-1.206,-1.2523,-1.265,-1.2851,0.0,0.0,-1.2111,-1.2145,-1.1889,0.0,0.0,0.0,0.0,0.0,0.0,0.0,0.0,0.0,0.0,0.0,0.0,0.0,0.0,0.0,0.0,0.0,0.0,0.0,0.0,0.0,0.0,0.0,0.0,0.0,0.0,0.0,0.0,0.0,0.0,0.0,0.0,0.0,0.0,0.0,0.0,0.0,0.0,0.0,0.0,0.0,0.0,0.0,0.0,0.0,0.0,0.0,0.0,0.0,0.0,0.0,0.0,0.0,0.0,0.0,-2.6534,-2.6425,-2.4366,-2.2181,-1.9929,-1.6484,-1.3457,-1.0975,-0.9652,-0.856,0.0,0.0,0.0,0.0,0.0,0.0,0.0,0.0,0.0,0.0,0.0,0.0,0.0,0.0,0.0,0.0,0.0,0.0,0.0,0.0,0.0,0.0,0.0,0.0,0.0,0.0,0.0,0.0,0.0,0.0,0.0,0.0,0.0,0.0,0.0,0.0,0.0,0.0,0.0,0.0,0.0,0.0,-1.3796,-1.3892,0.0,0.0,0.0,-1.3379,-1.3548,0.0,0.0,0.0,0.0,0.0,0.0,0.0,0.0,0.0,0.0,0.0,0.0,0.0,0.0,0.0,0.0,0.0,0.0,0.0,0.0,0.0,0.0,0.0,0.0,0.0,0.0,0.0,0.0,0.0,0.0,0.0,0.0,0.0,0.0,0.0,0.0,0.0,0.0,0.0,0.0,0.0,0.0,0.0,0.0,0.0,0.0,0.0,0.0,0.0,0.0,0.0,0.0,0.0,0.0,0.0,0.0,0.0,-2.5879,-2.3661,-2.1167,-1.8477,-1.5079,-1.2493,-1.08,-0.9594,0.0,0.0,0.0,0.0,0.0,0.0,0.0,0.0,0.0,0.0,0.0,0.0,0.0,0.0,0.0,0.0,0.0,0.0,0.0,0.0,0.0,0.0,0.0,0.0,0.0,0.0,0.0,-1.3257,0.0,0.0,0.0,0.0,0.0,0.0,0.0,0.0,0.0,0.0,0.0,0.0,0.0,0.0,-1.4331,-1.4882,-1.5097,-1.5183,0.0,0.0,-1.5113,-1.536,-1.5515,-1.5592,0.0,0.0,0.0,0.0,0.0,0.0,0.0,0.0,0.0,0.0,0.0,0.0,0.0,0.0,0.0,0.0,0.0,0.0,0.0,0.0,0.0,0.0,0.0,0.0,0.0,0.0,0.0,0.0,0.0,0.0,0.0,0.0,0.0,0.0,0.0,0.0,0.0,0.0,0.0,0.0,0.0,0.0,0.0,0.0,0.0,0.0,0.0,0.0,0.0,0.0,0.0,0.0,0.0,0.0,0.0,-2.5348,-2.2817,-2.007,-1.7178,-1.3843,-1.164,-1.0548,-0.9402,-0.8571,0.0,0.0,0.0,0.0,0.0,0.0,0.0,0.0,0.0,0.0,0.0,0.0,0.0,0.0,0.0,0.0,0.0,0.0,0.0,0.0,0.0,0.0,0.0,0.0,0.0,0.0,0.0,0.0,0.0,0.0,0.0,0.0,0.0,0.0,0.0,0.0,0.0,0.0,0.0,0.0,0.0,-1.5194,-1.5754,-1.6193,-1.6615,0.0,0.0,-1.7849,-1.8255,-1.8504,-1.876,-1.8905,0.0,0.0,0.0,0.0,0.0,0.0,0.0,0.0,0.0,0.0,0.0,0.0,0.0,0.0,0.0,0.0,0.0,0.0,0.0,0.0,0.0,0.0,0.0,0.0,0.0,0.0,0.0,0.0,0.0,0.0,0.0,0.0,0.0,0.0,0.0,0.0,0.0,0.0,0.0,0.0,0.0,0.0,0.0,0.0,0.0,0.0,0.0,0.0,0.0,0.0,0.0,0.0,0.0,-2.6328,-2.398,-2.1503,-1.8494,-1.4995,-1.249,-1.0919,-1.0174,-0.9338,-0.863,0.0,0.0,0.0,0.0,0.0,0.0,0.0,0.0,0.0,0.0,0.0,0.0,0.0,0.0,0.0,0.0,0.0,0.0,0.0,0.0,0.0,0.0,0.0,0.0,0.0,0.0,0.0,0.0,-1.997,-1.6969,-1.3438,0.0,0.0,0.0,0.0,0.0,0.0,0.0,0.0,0.0,0.0,-1.6292,-1.6951,-1.7573,0.0,0.0,-1.9349,-2.0009,-2.0578,-2.0985,-2.1307,-2.1462,-2.1654,0.0,0.0,0.0,0.0,0.0,0.0,0.0,0.0,0.0,0.0,0.0,0.0,0.0,0.0,0.0,0.0,0.0,0.0,0.0,0.0,0.0,0.0,0.0,0.0,0.0,0.0,0.0,0.0,0.0,0.0,0.0,0.0,0.0,0.0,0.0,0.0,0.0,0.0,0.0,0.0,0.0,0.0,0.0,0.0,0.0,0.0,0.0,0.0,0.0,0.0,0.0,0.0,-2.5553,-2.2776,-2.0143,-1.694,-1.3202,-1.1447,-1.0358,-0.9983,-0.928,-0.8635,0.0,0.0,0.0,0.0,0.0,0.0,0.0,0.0,0.0,0.0,0.0,0.0,0.0,0.0,0.0,0.0,0.0,0.0,0.0,0.0,0.0,0.0,0.0,0.0,0.0,0.0,0.0,0.0,-2.2952,-1.8598,-1.4447,0.0,0.0,0.0,0.0,0.0,0.0,0.0,0.0,0.0,0.0,-1.7533,-1.8584,-1.9371,-2.0227,-2.0914,-2.1846,-2.2682,-2.3412,-2.3808,-2.4223,-2.4454,0.0,0.0,0.0,0.0,0.0,0.0,0.0,0.0,0.0,0.0,0.0,0.0,0.0,0.0,0.0,0.0,0.0,0.0,0.0,0.0,0.0,0.0,0.0,0.0,0.0,0.0,0.0,0.0,0.0,0.0,-3.06,0.0,0.0,0.0,0.0,0.0,0.0,0.0,0.0,0.0,0.0,0.0,0.0,0.0,0.0,0.0,0.0,0.0,0.0,0.0,0.0,0.0,0.0,-2.47,-2.2032,-1.88,-1.5475,-1.2112,-1.0724,-0.9926,-0.9804,-0.9157,-0.8576,-0.7982,0.0,0.0,0.0,0.0,0.0,0.0,0.0,0.0,0.0,0.0,0.0,0.0,0.0,0.0,0.0,0.0,0.0,0.0,0.0,0.0,0.0,0.0,0.0,0.0,0.0,0.0,-3.0375,-2.4053,-1.8806,0.0,0.0,0.0,0.0,0.0,0.0,0.0,0.0,0.0,0.0,-1.7643,-1.9012,-2.0678,-2.1556,-2.2523,-2.3865,-2.4981,-2.5854,-2.6701,-2.7232,-2.7773,0.0,0.0,0.0,0.0,0.0,0.0,0.0,0.0,0.0,0.0,0.0,0.0,0.0,0.0,0.0,0.0,0.0,0.0,0.0,0.0,0.0,0.0,0.0,0.0,0.0,0.0,0.0,-3.4081,-3.355,0.0,0.0,0.0,0.0,0.0,0.0,0.0,0.0,0.0,0.0,0.0,-3.385,-3.4005,0.0,0.0,0.0,0.0,0.0,0.0,0.0,0.0,0.0,0.0,0.0,0.0,-2.3549,-2.0839,-1.7314,-1.4008,-1.0961,-1.0098,-0.9594,-0.9466,-0.9022,-0.8306,-0.7321,0.0,0.0,0.0,0.0,0.0,0.0,0.0,0.0,0.0,0.0,0.0,0.0,0.0,0.0,0.0,0.0,0.0,0.0,0.0,0.0,0.0,0.0,0.0,0.0,0.0,-3.3557,0.0,0.0,0.0,0.0,0.0,0.0,0.0,0.0,0.0,0.0,0.0,-1.8536,-1.9679,-2.0402,-2.1359,-2.2783,-2.3684,-2.4724,0.0,0.0,0.0,0.0,0.0,0.0,0.0,0.0,0.0,0.0,0.0,0.0,0.0,0.0,-2.7767,-2.6719,-2.6803,-2.7326,-2.8179,0.0,0.0,0.0,0.0,0.0,0.0,0.0,0.0,0.0,0.0,0.0,0.0,0.0,0.0,-3.6112,0.0,-3.5237,0.0,0.0,0.0,0.0,0.0,0.0,0.0,0.0,-3.4111,-3.425,-3.4302,-3.4413,-3.4483,0.0,-3.4632,-3.4064,0.0,0.0,0.0,0.0,0.0,0.0,0.0,0.0,-2.2663,-1.9893,-1.5953,-1.263,-0.9995,-0.9406,-0.9202,-0.9144,-0.8779,-0.8042,-0.6924,-0.6141,-0.5488,0.0,0.0,0.0,0.0,0.0,0.0,0.0,0.0,0.0,0.0,0.0,0.0,0.0,0.0,0.0,0.0,0.0,0.0,0.0,0.0,0.0,0.0,0.0,-3.4579,0.0,0.0,0.0,0.0,0.0,0.0,0.0,0.0,0.0,-1.9881,-2.0479,-2.1525,-2.2635,-2.3142,-2.3841,-2.5016,0.0,0.0,0.0,0.0,0.0,0.0,0.0,-3.1489,-3.1709,-3.1942,-3.2218,-3.2437,-3.2647,-3.2815,-3.2851,0.0,0.0,-3.0106,-2.9956,-3.0391,-3.1166,-3.1482,-3.17,-3.1804,-3.208,-3.2193,0.0,0.0,0.0,0.0,0.0,0.0,0.0,0.0,-3.7018,-3.6999,0.0,-3.5992,0.0,0.0,0.0,0.0,0.0,-3.4531,0.0,0.0,-3.4529,-3.4653,-3.4733,-3.4773,-3.4851,-3.4906,-3.4868,-3.4868,-3.4887,-3.4557,0.0,0.0,0.0,0.0,0.0,0.0,-2.2006,-1.9154,-1.479,-1.133,-0.9051,-0.8769,-0.8724,-0.886,-0.8446,-0.7842,-0.699,-0.6276,-0.569,-0.5153,-0.5153,0.0,0.0,0.0,0.0,0.0,0.0,0.0,0.0,0.0,0.0,0.0,0.0,0.0,0.0,0.0,0.0,0.0,0.0,0.0,0.0,-3.5539,0.0,0.0,0.0,0.0,0.0,0.0,0.0,0.0,0.0,0.0,-2.3688,-2.3814,-2.4521,-2.537,0.0,0.0,0.0,0.0,-2.9184,-2.9902,-3.099,-3.1874,-3.2263,-3.2692,-3.2975,-3.3185,0.0,0.0,-3.3699,-3.4191,-3.4551,-3.4802,-3.4976,-3.4634,-3.2256,-3.2083,-3.2416,-3.2904,-3.278,-3.2675,-3.2892,-3.2627,-3.2313,-3.997,0.0,0.0,0.0,0.0,-3.9009,-3.8987,-3.905,-3.9031,-3.871,-3.8123,-3.7246,0.0,0.0,0.0,0.0,0.0,0.0,-3.4791,-3.4736,-3.4925,-3.5054,-3.5072,-3.5122,-3.5187,-3.5232,-3.4623,-3.4336,-3.4336,-3.3546,-3.2694,-3.1918,0.0,0.0,0.0,0.0,-2.1401,-1.8658,-1.3999,-1.0594,-0.8557,-0.8387,-0.8487,-0.8787,-0.8731,-0.8236,-0.7512,-0.6924,-0.6404,-0.5815,-0.5939,0.0,0.0,0.0,0.0,0.0,0.0,0.0,0.0,0.0,0.0,0.0,0.0,0.0,0.0,0.0,0.0,0.0,0.0,0.0,-3.5541,-3.5436,-3.5139,0.0,0.0,0.0,0.0,0.0,0.0,0.0,0.0,0.0,-3.1377,-2.9714,-2.885,0.0,0.0,-2.9101,-2.9771,-2.98,-3.005,-3.0788,0.0,0.0,0.0,-3.2097,-3.2231,-3.2298,-3.2511,-3.2854,-3.3165,-3.3568,-3.3931,-3.4192,-3.4409,-3.4349,-3.403,-3.4106,-3.4288,-3.415,-3.4053,-3.3851,-3.3578,-3.3373,-3.3054,-4.0801,-4.0572,-4.0369,-4.0262,-4.0194,-4.0082,-4.0062,-4.0062,-4.0062,-3.9795,-3.9261,-3.808,-3.7262,-3.6692,-3.5458,0.0,0.0,0.0,-3.5069,-3.5083,-3.5235,-3.5315,-3.5307,-3.5009,-3.493,-3.495,-3.4122,-3.3686,-3.3628,-3.2664,-3.2038,-3.1732,0.0,0.0,-2.8743,-2.4709,-2.1245,-1.8288,-1.3651,-1.0125,-0.7801,-0.8017,-0.8359,-0.8753,-0.8829,-0.863,-0.8032,-0.7582,-0.7125,-0.6728,-0.692,-0.7307,0.0,0.0,0.0,0.0,0.0,0.0,0.0,0.0,0.0,0.0,0.0,-2.1699,0.0,0.0,0.0,0.0,-3.3714,-3.4852,-3.523,-3.5129,0.0,0.0,0.0,0.0,0.0,0.0,0.0,-3.4262,-3.4668,-3.5101,-3.5711,-3.4173,-3.2806,-3.2531,-3.1738,-3.1217,-3.1292,0.0,-3.1033,-3.1368,-3.1653,-3.1838,-3.1917,-3.2047,-3.2112,-3.2127,-3.2428,-3.2649,-3.2908,-3.327,-3.3547,-3.3774,-3.4089,-3.4309,-3.4207,-3.4484,-3.4762,-3.4767,-3.4576,-3.425,-3.3902,-3.351,-3.3002,-4.1026,-4.0979,-4.0738,-4.0615,-4.05,-4.0454,-4.0367,-4.0315,-4.0257,-4.0219,-4.0104,-3.8457,-3.7693,-3.7529,-3.593,0.0,-3.5136,-3.5243,-3.5364,-3.5407,-3.5353,-3.5348,-3.5372,-3.4581,-3.4237,-3.4272,-3.3421,-3.2965,-3.2871,-3.1965,-3.1373,-3.1145,-3.1115,-3.0453,-2.9001,-2.5082,-2.1374,-1.7978,-1.359,-0.9903,-0.7051,-0.7684,-0.8326,-0.8812,-0.8958,-0.8888,-0.8554,-0.8301,-0.8042,-0.7837,-0.8027,-0.8474,-0.9122,0.0,0.0,0.0,0.0,0.0,0.0,0.0,0.0,0.0,0.0,0.0,0.0,0.0,0.0,0.0,-3.4447,0.0,-3.484,-3.4737,0.0,0.0,0.0,-3.5036,-3.6247,-3.5826,-3.5805,-3.6735,0.0,0.0,-3.7197,0.0,-3.6042,-3.4471,-3.3556,-3.2817,-3.225,-3.2148,-3.2048,-3.1562,-3.1961,-3.2275,-3.1953,-3.2052,-3.2043,-3.2043,-3.2367,-3.2334,-3.2405,-3.2703,-3.3096,-3.3051,-3.3695,-3.3891,-3.3275,-3.3274,-3.3833,-3.4547,-3.4257,-3.3841,-3.3818,-3.3044,-3.229,-4.1039,-4.0981,-4.0929,-4.0849,-4.0738,-4.0636,-4.061,-4.0571,-3.9959,-3.9689,-3.9573,-3.781,-3.6671,-3.6026,-3.5575,-3.5325,-3.5334,-3.5405,-3.5483,-3.5514,-3.4913,-3.4627,-3.4631,-3.3848,-3.3461,-3.3441,-3.2608,-3.2173,-3.2125,-3.1216,-3.037,-2.9656,-2.9519,-2.9255,-2.8697,-2.535,-2.1664,-1.78,-1.3729,-1.026,-0.7438,-0.7913,-0.8442,-0.8941,-0.9204,-0.9262,-0.9145,-0.9139,-0.9069,-0.8947,-0.9314,-0.9812,-1.0514,-1.1978,0.0,0.0,0.0,0.0,0.0,0.0,0.0,0.0,0.0,-2.5638,-2.7342,0.0,-3.0865,0.0,-3.3846,-3.4463,-3.4431,-3.4289,0.0,0.0,-3.5161,-3.5377,-3.6237,-3.6121,-3.6077,-3.6186,-3.6041,-3.5892,-3.5878,-3.5473,-3.4874,-3.4091,-3.4087,-3.3903,-3.3071,-3.2505,-3.198,-3.1442,-3.1218,-3.1168,-3.1003,-3.0551,-3.035,-3.0306,-2.9958,-2.974,-2.9941,-3.0068,-3.0279,-3.0588,-3.0769,-3.0913,-3.0999,-3.0998,-3.1235,-3.1663,-3.2438,-3.3115,-3.2944,-3.2238,-3.1559,-4.083,-4.0474,-4.0422,-4.0163,-3.9782,-4.0469,-4.0571,-4.0181,-3.9724,-3.9336,-3.8872,-3.7514,-3.6385,-3.5577,-3.5521,-3.5489,-3.5476,-3.5128,-3.4805,-3.4522,-3.406,-3.3839,-3.3838,-3.3014,-3.2643,-3.2632,-3.1786,-3.1158,-3.0773,-3.0238,-2.9477,-2.8578,-2.8461,-2.8202,-2.7709,-2.4914,-2.1605,-1.7773,-1.2423,-0.8965,-0.7527,-0.7908,-0.8442,-0.8988,-0.9402,-0.9594,-0.9594,-0.9843,-0.9964,-1.0104,-1.0534,-1.1087,-1.1772,-1.314,-1.4414,0.0,0.0,0.0,0.0,0.0,0.0,0.0,0.0,0.0,0.0,0.0,-3.1455,-3.284,-3.3597,-3.3981,-3.3944,-3.3836,-3.4109,-3.488,-3.4897,-3.5162,-3.5919,-3.5951,-3.5848,-3.5747,-3.557,-3.5372,-3.5153,-3.4816,-3.4387,-3.3819,-3.3762,-3.3434,-3.2618,-3.1862,-3.118,-3.0571,-3.0245,-2.9958,-2.9799,-2.9435,-2.9203,-2.916,-2.8882,-2.8803,-2.8987,-2.9079,-2.9198,-2.9535,-2.9726,-2.9818,-2.9978,-3.0083,-3.0173,-3.037,-3.0982,-3.152,-3.162,-3.1144,-3.064,-4.0253,-3.9602,-3.9558,-3.9108,-3.8517,-3.9954,-4.015,-3.9441,-3.9344,-3.8801,-3.7928,-3.7181,-3.6317,-3.5463,-3.545,-3.5496,-3.5546,-3.4607,-3.3691,-3.289,-3.2909,-3.2985,-3.3009,-3.2155,-3.1717,-3.1635,-3.0904,-3.0081,-2.9256,-2.9187,-2.8672,-2.7779,-2.771,-2.729,-2.6451,-2.4147,-2.1058,-1.719,-1.0632,-0.7261,-0.7423,-0.7855,-0.8381,-0.8988,-0.9542,-0.9926,-1.0053,-1.0421,-1.0737,-1.1108,-1.167,-1.2228,-1.2956,-1.4039,-1.5109,0.0,-1.8203,0.0,0.0,0.0,0.0,0.0,0.0,0.0,0.0,-3.0853,-3.2109,-3.3226,-3.3433,-3.3491,-3.3433,-3.3404,-3.3665,-3.4274,-3.4271,-3.4492,-3.5209,-3.5217,-3.5151,-3.5088,-3.4932,-3.4691,-3.4359,-3.4051,-3.3588,-3.2906,-3.2278,-3.1659,-3.1101,-3.0657,-3.0317,-2.9574,-2.9248,-2.9107,-2.8839,-2.8652,-2.855,-2.8592,-2.8455,-2.8521,-2.8569,-2.8621,-2.8732,-2.8842,-2.8921,-2.9132,-2.9252,-2.9334,-2.9386,-2.9301,-2.9331,-2.9583,-3.0205,-3.0023,-2.9645,-3.8804,-3.8663,-3.8668,-3.8556,-3.8443,-3.8719,-3.8788,-3.8587,-3.7888,-3.7083,-3.6267,-3.6105,-3.5533,-3.4738,-3.4652,-3.501,-3.5582,-3.4051,-3.2512,-3.1109,-3.1814,-3.2158,-3.2159,-3.1343,-3.0574,-2.9913,-2.9719,-2.9188,-2.8352,-2.833,-2.7865,-2.6947,-2.6911,-2.6463,-2.5504,0.0,0.0,0.0,-1.0039,-0.7822,-0.7418,-0.7968,-0.8503,-0.8994,-0.96,0.0,-1.0244,-1.0807,-1.1303,-1.1615,-1.2343,0.0,0.0,0.0,0.0,0.0,0.0,0.0,0.0,0.0,0.0,0.0,-2.6641,-2.8142,-3.0002,-3.1401,-3.2369,-3.2948,-3.2993,-3.3055,-3.3099,-3.3011,-3.3023,-3.3187,-3.3169,-3.3187,-3.3409,-3.3426,-3.3394,-3.3344,-3.2699,-3.2214,-3.2082,-3.1218,-3.0437,-3.0051,-2.9388,-2.8772,-2.8092,-2.9437,-3.0207,-2.9627,-2.8906,-2.872,-2.8722,-2.8173,-2.7781,-2.7868,-2.7432,-2.7234,-2.731,-2.7041,-2.684,-2.6965,-2.6673,-2.6486,-2.6582,-2.6555,-2.6768,-2.6745,-2.6633,-2.7188,-2.9498,-2.9403,-2.8839,-3.8119,0.0,-3.7728,-3.7486,0.0,-3.7092,-3.7055,-3.7074,-3.7092,-3.6634,-3.5771,-3.5355,-3.4919,-3.4466,-3.4013,-3.4032,-3.4371,-3.3064,-3.1797,-3.0635,-3.1039,-3.1285,-3.1317,-3.045,-2.9816,-2.9408,-2.8948,-2.83,-2.7478,-2.7423,-2.6939,-2.6067,-2.6014,-2.5771,-2.5195,-2.1284,-1.7167,-1.2868,-0.946,-0.7588,-0.737,-0.7966,-0.8446,-0.8823,0.0,0.0,0.0,0.0,0.0,0.0,0.0,0.0,0.0,0.0,0.0,-1.7413,-1.8942,-2.0297,-2.1409,-2.2904,-2.4291,-2.5463,-2.7179,-2.8682,-2.9804,-3.0716,-3.1293,-3.1568,-3.16,-3.1613,-3.164,-3.16,-3.1572,-3.159,-3.1635,-3.1613,-3.1676,-3.1676,-3.1724,-3.1658,-3.1231,-3.0826,-3.0665,-3.0071,-2.9385,-2.8907,-2.8329,-2.7681,-2.7211,-2.7782,-2.8107,-2.7372,-2.6937,-2.6688,-2.6621,-2.6471,-2.6226,-2.6168,-2.5988,-2.5916,-2.6038,-2.5859,-2.5703,-2.5819,-2.5601,-2.5488,-2.5521,-2.5535,-2.5583,-2.5615,-2.5521,-2.5848,-2.7405,-2.7285,-2.6956,-3.7424,-3.6841,-3.6764,-3.6367,-3.5766,-3.5708,-3.5621,-3.5534,0.0,0.0,0.0,-3.4664,-3.4201,-3.4002,-3.3285,-3.287,-3.2609,-3.1932,-3.1236,-3.0597,-3.043,-3.0397,-3.044,-2.9589,-2.9091,-2.8909,-2.8216,-2.7433,-2.6598,-2.6509,-2.6133,-2.5443,-2.5341,-2.5038,-2.4213,-1.9143,-1.5095,-1.2371,-0.9088,-0.7302,-0.7265,-0.7918,-0.8374,-0.8699,-0.9469,-1.0026,-1.0463,-1.12,-1.1936,-1.2611,-1.3382,-1.4159,-1.4811,-1.5632,-1.6454,-1.7257,-1.8762,-2.007,-2.1066,-2.2732,-2.4283,-2.5619,-2.747,-2.88,-2.9369,-2.9706,-2.9951,-3.0131,-3.0194,-3.0243,-3.0274,-3.0274,-3.0274,-3.0287,-3.033,-3.0409,-3.0439,-3.0434,-3.0553,-3.0404,-3.0242,-2.9982,-2.9744,-2.9261,-2.8818,-2.8356,-2.7624,-2.704,-2.6529,-2.6212,-2.598,-2.5326,-2.5177,-2.4761,-2.4576,-2.4712,-2.4632,-2.4825,-2.4803,-2.4834,-2.498,-2.4955,-2.4978,-2.5088,-2.5,-2.4899,-2.4914,-2.4855,-2.4958,-2.4958,-2.4911,-2.4897,-2.4864,-2.4842,-2.4911,-3.5855,-3.5822,-3.5803,-3.5725,-3.5648,-3.5669,-3.5321,-3.47,-3.4806,-3.4787,-3.4613,-3.3768,-3.2964,-3.2258,-3.2143,-3.166,-3.0983,-3.082,-3.0704,0.0,-2.9829,-2.9528,-2.9552,-2.8679,-2.7891,-2.7186,-2.7031,-2.6544,-2.5759,-2.5666,-2.5528,-2.5351,-2.5293,-2.4048,-2.1414,-1.7663,-1.446,-1.1929,-0.8989,-0.7422,-0.7383,-0.7756,-0.8178,-0.8717,-0.912,-0.9551,-0.9976,-1.0617,-1.1238,-1.1866,-1.2655,-1.3433,-1.4035,-1.5024,-1.5834,-1.6514,-1.7565,-1.8576,-1.9509,-2.1167,-2.3093,-2.5227,-2.6126,-2.7308,-2.9057,-2.9059,-2.9262,-2.9854,-2.9902,-3.0021,-3.012,-3.0068,-3.0047,-3.0176,-3.0238,-3.033,-3.0267,-3.0309,-3.0303,-3.0232,-2.9775,-2.9147,-2.8842,-2.8063,-2.7214,-2.6684,-2.6015,-2.5251,-2.4432,-2.476,-2.5132,-2.4932,-2.4716,-2.4533,-2.4291,-2.4504,-2.4404,-2.4519,-2.4546,-2.4558,-2.4606,-2.4389,-2.4192,-2.4271,-2.3935,-2.3688,-2.3644,-2.3585,-2.3673,-2.3658,-2.3522,-2.3387,-2.3416,-2.3293,-2.3447,-3.5418,-3.5483,-3.5495,-3.5237,-3.4824,-3.4395,-3.403,-3.3654,-3.3209,-3.3345,-3.3692,-3.2889,-3.2259,-3.1815,-3.1342,-3.0936,-3.0521,-3.0037,-2.9748,-2.9573,-2.8915,-2.8614,-2.8573,-2.7749,-2.7129,-2.6722,-2.6262,-2.582,-2.5476,-2.5451,-2.5388,-2.5293,-2.506,-2.3411,-2.037,-1.7028,-1.4014,-1.1332,-0.8495,-0.7144,-0.7373,-0.7711,-0.8056,-0.8465,-0.8945,-0.9434,-0.9904,-1.0473,-1.1092,-1.1648,-1.25,-1.3223,-1.3863,-1.4694,-1.5526,-1.635,-1.7315,-1.8282,-1.9203,-2.0926,-2.2534,-2.393,-2.4846,-2.5664,-2.6471,-2.7416,-2.8092,-2.8508,-2.8603,-2.8683,-2.8745,-2.8776,-2.8838,-2.885,-2.8971,-2.8882,-2.8521,-2.8546,-2.8413,-2.7949,-2.7493,-2.7123,-2.697,-2.6286,-2.5601,-2.508,-2.4209,-2.3108,-2.2199,-2.2294,-2.2732,-2.3288,-2.3283,-2.3138,-2.3041,-2.3076,-2.3138,-2.3249,-2.3393,-2.3488,-2.3536,-2.3374,-2.3305,-2.3276,-2.3033,-2.2947,-2.2889,-2.2918,-2.2918,-2.2918,-2.2814,-2.2723,-2.2723,-2.2558,-2.2648,-3.4994,-3.5081,-3.487,-3.4455,-3.3821,-3.3029,-3.2694,-3.2629,-3.1838,-3.1892,-3.2425,-3.1855,-3.1545,-3.139,-3.0588,-3.02,-3.0064,-2.9292,-2.8791,-2.854,-2.7962,-2.7672,-2.7604,-2.6801,-2.6384,-2.6334,-2.571,-2.5393,-2.5376,-2.536,-2.5351,-2.5228,-2.4727,-2.2873,-1.9749,-1.6539,-1.3535,-1.0689,-0.8035,-0.6923,-0.7317,-0.766,-0.7973,-0.8324,-0.8783,-0.9238,-0.9763,-1.0304,-1.0862,-1.1469,-1.2195,-1.2904,-1.3523,-1.4244,-1.5052,-1.5912,-1.6824,-1.7953,-1.9287,-2.0808,-2.201,-2.2812,-2.386,-2.4398,-2.4424,-2.5715,-2.6682,-2.684,-2.6991,-2.7063,-2.7093,-2.7122,-2.7181,-2.7192,-2.7342,-2.7232,-2.6676,-2.6668,-2.6488,-2.5824,-2.5683,-2.5606,-2.532,-2.4965,-2.4492,-2.3685,-2.2456,-2.1446,-2.0808,-2.0316,-2.0487,-2.1111,-2.1472,-2.1439,-2.1346,-2.1453,-2.1579,-2.1685,-2.1809,-2.19,-2.205,-2.2036,-2.2081,-2.2038,-2.2053,-2.2026,-2.2053,-2.2038,-2.2055,-2.2012,-2.1924,-2.2008,-2.2119,-2.2183,-2.2128,-3.4015,-3.3983,-3.333,-3.2953,-3.2831,-3.2065,-3.1763,-3.1723,-3.0902,-3.0575,-3.0694,-3.0623,-3.0595,-3.0439,-2.9706,-2.9319,-2.9171,-2.8392,-2.7988,-2.7873,-2.7113,-2.6718,-2.6651,-2.5909,-2.5532,-2.553,-2.5444,-2.536,-2.5322,-2.5313,-2.5292,-2.5189,-2.4404,-2.2312,-1.9104,-1.6004,-1.2979,-1.0027,-0.7829,-0.6977,-0.7467,-0.7543,-0.7824,-0.8359,-0.8438,-0.8711,-0.9284,-0.9657,-1.0179,-1.0756,-1.1447,-1.2045,-1.2603,-1.3223,-1.3878,-1.4655,-1.5507,-1.6985,-1.921,-2.026,-2.1265,-2.2577,-2.3243,-2.3836,-2.4175,-2.4669,-2.4996,-2.5207,-2.5351,-2.5568,-2.5502,-2.5642,-2.5775,-2.584,-2.5903,-2.5772,-2.5747,-2.5806,-2.589,-2.5793,-2.5565,-2.5631,-2.5306,-2.4837,-2.4022,-2.2568,-2.1491,-2.0563,-1.9963,-1.9415,-1.9146,-1.9458,-1.9674,-1.9894,-1.9935,-2.0001,-2.0227,-2.0244,-2.0307,-2.0522,-2.0636,-2.0681,-2.0641,-2.0878,-2.071,-2.0739,-2.0696,-2.0599,-2.0654,-2.0823,-2.0721,-2.0606,-2.1004,-2.1384,-2.1641,-3.2955,-3.3006,-3.2678,-3.227,-3.1813,-3.1054,-3.077,-3.0778,-3.0452,-3.0011,-2.9551,-2.955,-2.9574,-2.961,-2.924,-2.8795,-2.8234,-2.7378,-2.7025,-2.6979,-2.6173,-2.5761,-2.5725,-2.5456,-2.5274,-2.5303,-2.5284,-2.5274,-2.5243,-2.5241,-2.5252,-2.5118,-2.382,-2.1395,-1.8086,-1.5068,-1.2012,-0.8923,-0.7422,-0.6864,-0.7246,-0.7413,-0.7681,-0.8055,-0.8262,-0.8586,-0.8956,-0.9361,-0.9777,-1.0257,-1.0913,-1.1528,-1.2126,-1.2647,-1.3314,-1.4212,-1.5454,-1.6888,-1.8384,-1.9281,-2.019,-2.1166,-2.1887,-2.2456,-2.2859,-2.3214,-2.3515,-2.3729,-2.4576,-2.5209,-2.5275,-2.5355,-2.5427,-2.5446,-2.5535,-2.5438,-2.5034,-2.5122,-2.5088,-2.4692,-2.4562,-2.4486,-2.4247,-2.3466,-2.2308,-2.0945,-1.989,-1.9045,-1.8179,-1.7722,-1.7529,-1.7466,-1.7586,-1.8174,-1.8972,-1.9391,-1.9485,-1.953,-1.969,-1.9778,-1.9855,-1.991,-2.0012,-1.997,-1.9915,-1.9915,-2.0023,-1.9998,-1.9998,-1.9943,-1.994,-1.9963,-2.0061,-2.0253,-2.0375,-3.1902,-3.1939,-3.1748,-3.1364,-3.0861,-3.0285,-2.995,-2.9804,-2.9785,-2.9308,-2.8559,-2.8507,-2.8427,-2.8307,-2.8288,-2.7931,-2.7275,-2.6428,-2.6046,-2.6044,-2.5459,-2.5184,-2.5179,-2.5179,-2.519,-2.5201,-2.5201,-2.5201,-2.5201,-2.522,-2.5205,-2.4873,-2.3068,-2.0354,-1.7056,-1.4054,-1.0932,-0.797,-0.6924,-0.6668,-0.6929,-0.7206,-0.7505,-0.7895,-0.8162,-0.8434,-0.8811,-0.9106,-0.9524,-0.994,-1.0454,-1.1015,-1.1619,-1.2116,-1.2842,-1.3967,-1.5365,-1.6629,-1.7544,-1.8458,-1.9288,-2.0039,-2.0862,-2.1493,-2.1911,-2.2343,-2.2632,-2.2877,-2.3902,-2.4601,-2.4707,-2.4769,-2.4822,-2.4874,-2.4977,-2.4811,-2.4409,-2.4449,-2.4343,-2.3916,-2.3952,-2.362,-2.3177,-2.2097,-2.0747,-1.9364,-1.821,-1.7173,-1.6318,-1.602,-1.5881,-1.5881,-1.5957,-1.6603,-1.7971,-1.8317,-1.8529,-1.8618,-1.8671,-1.8732,-1.8983,-1.9014,-1.9014,-1.869,-1.8946,-1.9044,-1.8854,-1.8949,-1.9114,-1.9141,-1.9179,-1.9229,-1.9195,-1.9252,-1.9337,-3.0803,-3.077,-3.0133,-2.9905,-2.9882,-2.9876,-2.9453,-2.8818,-2.878,-2.8309,-2.7604,-2.7566,-2.711,-2.6422,-2.6504,-2.6473,-2.6275,-2.5558,-2.5216,-2.5247,-2.5152,-2.5107,-2.5094,-2.5094,-2.5149,-2.5195,-2.5187,-2.5206,-2.5217,-2.5252,-2.5124,-2.468,-2.2178,-1.9255,-1.6052,-1.2883,-0.9839,-0.7155,-0.6379,-0.6302,-0.6602,-0.6762,-0.7171,-0.7747,-0.7901,-0.8221,-0.8705,-0.8956,-0.9263,-0.9769,-1.0087,-1.0506,-1.1116,-1.1519,-1.2442,-1.3815,-1.4869,-1.5908,-1.6925,-1.7894,-1.8864,-1.9849,-2.0667,-2.1383,-2.1953,-2.2409,-2.2738,-2.297,-2.3228,-2.3383,-2.3407,-2.3587,-2.3548,-2.3578,-2.3618,-2.3692,-2.3719,-2.3902,-2.3862,-2.3915,-2.3917,-2.3472,-2.2555,-2.1229,-1.9636,-1.8106,-1.6783,-1.5696,-1.505,-1.4801,-1.4835,-1.4949,-1.5085,-1.5492,-1.6281,-1.6923,-1.7046,-1.7213,-1.7415,-1.7297,-1.729,-1.7306,-1.7384,-1.7424,-1.7652,-1.7708,-1.7591,-1.7606,-1.7728,-1.7887,-1.819,-1.8292,-1.8258,-1.8697,-1.8713,-2.9715,-2.9744,-2.9546,-2.9494,-2.9551,-2.9082,-2.8628,-2.8221,-2.7883,-2.7283,-2.6623,-2.6547,-2.6042,-2.525,-2.5276,-2.5352,-2.5375,-2.5045,-2.4926,-2.4972,-2.4972,-2.4999,-2.5038,-2.5051,-2.5076,-2.5132,-2.5151,-2.5125,-2.5153,-2.5197,-2.4899,-2.3786,-2.1154,-1.8049,-1.4846,-1.1674,-0.882,-0.6564,-0.6148,-0.6174,-0.6247,-0.6283,-0.6566,-0.7171,-0.76,-0.7889,-0.8215,-0.848,-0.8791,-0.9138,-0.9517,-0.9925,-1.0438,-1.125,-1.2197,-1.3294,-1.4226,-1.5163,-1.6219,-1.7341,-1.8426,-1.954,-2.0586,-2.1442,-2.2108,-2.2634,-2.2995,-2.3193,-2.336,-2.343,-2.3435,-2.3389,-2.336,-2.343,-2.3567,-2.3685,-2.3771,-2.3894,-2.4054,-2.4134,-2.3961,-2.315,-2.1473,-1.9972,-1.8215,-1.6157,-1.4926,-1.4089,-1.3606,-1.3548,-1.3815,-1.4014,-1.4258,-1.4536,-1.4949,-1.5724,-1.6175,-1.6349,-1.6461,-1.6602,-1.6625,-1.668,-1.6812,-1.6867,-1.6846,-1.6931,-1.7012,-1.7125,-1.7102,-1.7167,-1.7479,-1.7488,-1.7282,-1.7655,-1.758,-2.8644,-2.8676,-2.85,-2.8608,-2.8782,-2.8128,-2.7643,-2.7356,-2.689,-2.6255,-2.56,-2.5487,-2.5134,-2.4666,-2.4591,-2.4623,-2.4734,-2.4768,-2.4798,-2.4827,-2.4861,-2.4903,-2.4945,-2.494,-2.4966,-2.5044,-2.5089,-2.5107,-2.5118,-2.507,-2.4371,-2.3004,-1.982,-1.6593,-1.339,-1.0278,-0.7681,-0.6125,-0.5836,-0.5839,-0.5858,-0.5819,-0.6029,-0.65,-0.6927,-0.7407,-0.7771,-0.8049,-0.8309,-0.8573,-0.889,-0.9259,-0.9723,-1.0606,-1.1434,-1.2139,-1.3016,-1.4,-1.5084,-1.6439,-1.7771,-1.9075,-2.0153,-2.118,-2.2272,-2.2908,-2.3259,-2.3463,-2.3616,-2.3725,-2.375,-2.3685,-2.3638,-2.3638,-2.3743,-2.3852,-2.3959,-2.4133,-2.4172,-2.4024,-2.3228,-2.1927,-2.0044,-1.7985,-1.5896,-1.3725,-1.2783,-1.2172,-1.203,-1.2297,-1.2725,-1.3035,-1.3304,-1.3589,-1.3967,-1.456,-1.5299,-1.5534,-1.5756,-1.592,-1.6051,-1.6151,-1.6207,-1.6262,-1.6362,-1.6448,-1.6534,-1.6663,-1.6748,-1.6748,-1.6812,-1.6858,-1.6721,-1.6535,-1.6604,-2.7634,-2.761,-2.6924,-2.7069,-2.7469,-2.7022,-2.6524,-2.6079,-2.5819,-2.5262,-2.4648,-2.45,-2.4482,-2.4389,-2.4408,-2.4425,-2.4459,-2.4575,-2.4657,-2.4707,-2.4757,-2.4806,-2.4802,-2.4813,-2.4889,-2.501,-2.5076,-2.5125,-2.5175,-2.4778,-2.3673,-2.1311,-1.8219,-1.5008,-1.1729,-0.8832,-0.6624,-0.5553,-0.5413,-0.5378,-0.532,-0.5399,-0.5622,-0.595,-0.6044,-0.6539,-0.7553,-0.7623,-0.7759,-0.8053,-0.8265,-0.8579,-0.8934,-0.9467,-0.989,-1.0429,-1.1343,-1.2337,-1.341,-1.5045,-1.6701,-1.8133,-1.9326,-2.0635,-2.2263,-2.3088,-2.3577,-2.3819,-2.3899,-2.3939,-2.402,-2.4059,-2.4001,-2.3937,-2.3976,-2.4077,-2.4192,-2.4303,-2.4174,-2.3531,-2.2076,-2.0107,-1.7861,-1.5306,-1.2958,-1.1474,-1.0623,-1.034,-1.0501,-1.1057,-1.1534,-1.19,-1.2344,-1.2725,-1.3016,-1.3362,-1.4118,-1.4731,-1.5006,-1.5232,-1.5445,-1.5546,-1.568,-1.5724,-1.5869,-1.6001,-1.612,-1.625,-1.6349,-1.6392,-1.6349,-1.6318,-1.62,-1.6081,-1.5949,-2.6573,-2.6602,-2.6463,-2.6301,-2.619,-2.5837,-2.5348,-2.4745,-2.4672,-2.4487,-2.4303,-2.4266,-2.4266,-2.4266,-2.4247,-2.4284,-2.434,-2.4357,-2.4426,-2.4545,-2.4647,-2.4676,-2.4707,-2.4719,-2.4798,-2.4917,-2.4991,-2.5087,-2.502,-2.4493,-2.2958,-2.03,-1.7068,-1.3768,-1.0443,-0.797,-0.6173,-0.5383,-0.5277,-0.5162,-0.5014,-0.492,-0.5083,-0.5396,-0.5466,-0.5755,-0.6262,-0.6545,-0.6801,-0.7057,-0.7145,-0.7444,-0.7918,-0.842,-0.8838,-0.9306,-0.9998,-1.0786,-1.1606,-1.318,-1.4906,-1.6508,-1.7961,-1.9847,-2.1949,-2.3231,-2.3897,-2.4118,-2.4247,-2.4338,-2.4353,-2.4388,-2.4319,-2.4135,-2.4229,-2.4284,-2.4246,-2.4155,-2.3388,-2.1925,-2.0068,-1.7596,-1.4664,-1.2084,-1.0277,-0.9098,-0.8625,-0.8738,-0.9273,-0.9953,-1.0626,-1.1049,-1.1493,-1.185,-1.2197,-1.2491,-1.2967,-1.3684,-1.4107,-1.4547,-1.4777,-1.496,-1.5051,-1.5232,-1.5367,-1.5546,-1.568,-1.58,-1.5888,-1.5944,-1.5913,-1.5869,-1.5748,-1.5614,-1.5492,-2.5499,-2.5488,-2.5319,-2.5131,-2.4856,-2.4693,-2.439,-2.3979,-2.4018,-2.4036,-2.4054,-2.4036,-2.4056,-2.4094,-2.4094,-2.4132,-2.4226,-2.4171,-2.4229,-2.4393,-2.4532,-2.4599,-2.4572,-2.4354,-2.4128,-2.3987,-2.4004,-2.411,-2.4172,-2.3061,-2.1143,-1.8233,-1.5193,-1.1944,-0.8781,-0.6775,-0.5427,-0.5044,-0.4914,-0.4819,-0.4646,-0.4555,-0.4684,-0.483,-0.4848,-0.5006,-0.5166,-0.541,-0.5724,-0.6138,-0.6326,-0.6577,-0.6972,-0.727,-0.7583,-0.7906,-0.846,-0.9046,-0.9584,-1.1204,-1.3066,-1.4866,-1.7091,-1.9227,-2.1194,-2.263,-2.334,-2.3977,-2.4083,-2.4301,-2.4526,-2.4572,-2.4441,-2.4136,-2.4319,-2.4299,-2.4026,-2.3275,-2.1808,-1.9699,-1.7229,-1.4359,-1.1541,-0.9287,-0.7756,-0.6881,-0.6993,-0.7545,-0.8237,-0.8981,-0.9607,-1.0182,-1.0584,-1.0998,-1.136,-1.166,-1.1909,-1.253,-1.3102,-1.3647,-1.4082,-1.4222,-1.4362,-1.464,-1.4869,-1.5017,-1.5142,-1.522,-1.5254,-1.5367,-1.5424,-1.5277,-1.5142,-1.5153,-1.5028,-2.4428,-2.4322,-2.3786,-2.3634,-2.3674,-2.3714,-2.3743,-2.3699,-2.3756,-2.3792,-2.3774,-2.3795,-2.3834,-2.3876,-2.3896,-2.3974,-2.4052,-2.3908,-2.382,-2.3897,-2.4042,-2.4091,-2.4029,-2.3649,-2.3173,-2.2695,-2.2596,-2.2614,-2.2765,-2.1162,-1.8533,-1.5697,-1.2918,-0.9734,-0.7026,-0.5256,-0.462,-0.4526,-0.4479,-0.4387,-0.4135,-0.4332,-0.4416,-0.4336,-0.4292,-0.4304,-0.4369,-0.4381,-0.4729,-0.549,-0.5702,-0.5808,-0.6,-0.6088,-0.6203,-0.6341,-0.6799,-0.7102,-0.7681,-0.9096,-1.1025,-1.3002,-1.6036,-1.8989,-2.0088,-2.0988,-2.2014,-2.3182,-2.3437,-2.3742,-2.4211,-2.4217,-2.3861,-2.3558,-2.356,-2.3597,-2.2803,-2.137,-1.9265,-1.6719,-1.3807,-1.0813,-0.8406,-0.6587,-0.5698,-0.5433,-0.5882,-0.6686,-0.7444,-0.8196,-0.8732,-0.9249,-0.9762,-1.0131,-1.0541,-1.0744,-1.1049,-1.1501,-1.208,-1.2579,-1.3266,-1.3515,-1.3752,-1.4035,-1.428,-1.4419,-1.4558,-1.4582,-1.4663,-1.4766,-1.472,-1.4628,-1.4593,-1.4558,-1.4512,-2.3342,-2.3383,-2.3305,-2.3336,-2.3389,-2.3435,-2.3522,-2.3549,-2.3571,-2.3594,-2.3616,-2.3656,-2.3628,-2.3728,-2.3692,-2.3795,-2.368,-2.3242,-2.2681,-2.2356,-2.2426,-2.2597,-2.2722,-2.2689,-2.2529,-2.2331,-2.2265,-2.2431,-2.2218,-2.0084,-1.7506,-1.4586,-1.1507,-0.8676,-0.6074,-0.4931,-0.4476,-0.429,-0.4271,-0.4184,-0.3998,-0.4012,-0.406,-0.4012,-0.3921,-0.3877,-0.3877,-0.3796,-0.4043,-0.4619,-0.4735,-0.4808,-0.4901,-0.5065,-0.5213,-0.5261,-0.5489,-0.5657,-0.5913,-0.6999,-0.861,-1.0406,-1.3579,-1.6385,-1.8167,-1.923,-2.0409,-2.1604,-2.2263,-2.2446,-2.2397,-2.2406,-2.1586,-1.9948,-2.0677,-2.1156,-1.9796,-1.8251,-1.6077,-1.2737,-1.0297,-0.8055,-0.6134,-0.4931,-0.4395,-0.4732,-0.5391,-0.6154,-0.6918,-0.7509,-0.8096,-0.8573,-0.904,-0.9406,-0.9666,-0.9873,-1.019,-1.0549,-1.0998,-1.1392,-1.2187,-1.2832,-1.3074,-1.3399,-1.361,-1.3752,-1.3858,-1.3941,-1.4025,-1.4118,-1.4118,-1.4071,-1.4046,-1.401,-1.3952,-2.2764,-2.2842,-2.297,-2.307,-2.3144,-2.3217,-2.3265,-2.3336,-2.336,-2.3188,-2.3021,-2.3012,-2.2843,-2.2643,-2.2608,-2.2803,-2.2928,-2.2381,-2.1804,-2.1334,-2.1292,-2.1419,-2.1552,-2.1686,-2.1585,-2.1343,-2.1428,-2.1169,-2.0451,-1.8372,-1.567,-1.2767,-0.9916,-0.7234,-0.4963,-0.4392,-0.4084,-0.395,-0.389,-0.3788,-0.3622,-0.366,-0.366,-0.3615,-0.3524,-0.3476,-0.3432,-0.3391,-0.3571,-0.3928,-0.4064,-0.406,-0.41,-0.4228,-0.436,-0.4403,-0.4491,-0.4487,-0.4482,-0.5219,-0.6416,-0.8081,-1.0728,-1.2935,-1.4887,-1.6281,-1.7449,-1.871,-1.936,-1.9482,-1.9546,-1.9792,-1.8425,-1.5928,-1.5923,-1.6284,-1.5905,-1.4409,-1.2088,-0.9361,-0.723,-0.5663,-0.3984,-0.3677,-0.3904,-0.4401,-0.5062,-0.5828,-0.649,-0.6972,-0.7456,-0.7937,-0.8302,-0.862,-0.8935,-0.9197,-0.9413,-0.9777,-1.0131,-1.049,-1.12,-1.199,-1.2393,-1.2686,-1.289,-1.3045,-1.318,-1.3286,-1.3334,-1.343,-1.3515,-1.3515,-1.344,-1.343,-1.3382,-2.2497,-2.2579,-2.2712,-2.2816,-2.2876,-2.2857,-2.281,-2.2912,-2.2792,-2.2488,-2.2053,-2.2011,-2.1763,-2.1081,-2.1444,-2.1455,-2.1812,-2.1417,-2.0969,-2.0626,-2.0506,-2.0532,-2.0666,-2.077,-2.059,-2.0229,-2.0021,-1.9531,-1.8457,-1.6127,-1.339,-1.0784,-0.7952,-0.5784,-0.428,-0.3694,-0.3585,-0.3554,-0.3465,-0.3369,-0.3262,-0.3306,-0.3306,-0.3217,-0.317,-0.3078,-0.299,-0.2946,-0.3126,-0.3445,-0.349,-0.3575,-0.3615,-0.3612,-0.366,-0.3748,-0.37,-0.3612,-0.3439,-0.3854,-0.4586,-0.6094,-0.7545,-0.9244,-1.1318,-1.2645,-1.3726,-1.4877,-1.5237,-1.5439,-1.5595,-1.6217,-1.4627,-1.1743,-1.0061,-1.0073,-1.0714,-1.0126,-0.8311,-0.6221,-0.4674,-0.3704,-0.3231,-0.3241,-0.3688,-0.4408,-0.5011,-0.5559,-0.6109,-0.6544,-0.6923,-0.7354,-0.7616,-0.7777,-0.8143,-0.8461,-0.8679,-0.8995,-0.9354,-0.9814,-1.0438,-1.1091,-1.166,-1.1968,-1.2157,-1.2314,-1.2461,-1.2569,-1.2666,-1.2715,-1.2793,-1.2813,-1.2783,-1.2813,-1.2803,-2.2231,-2.246,-2.2542,-2.2605,-2.2556,-2.2125,-2.1915,-2.1906,-2.1405,-2.1197,-2.1015,-2.1003,-2.0952,-2.0884,-2.0817,-2.0901,-2.0705,-2.0422,-2.0011,-1.9587,-1.9641,-1.9741,-1.9871,-1.9985,-2.0,-1.9898,-1.9821,-1.8917,-1.716,-1.4716,-1.1993,-0.924,-0.6774,-0.4765,-0.3792,-0.3398,-0.3306,-0.3258,-0.3123,-0.3078,-0.299,-0.2996,-0.2998,-0.2909,-0.2865,-0.2729,-0.2637,-0.2593,-0.2637,-0.2773,-0.2912,-0.3046,-0.3087,-0.3087,-0.3132,-0.3132,-0.3087,-0.2954,-0.2818,-0.3028,-0.3447,-0.429,-0.5444,-0.668,-0.7973,-0.911,-0.9882,-1.0583,-1.1043,-1.135,-1.1163,-1.0407,-0.9385,-0.7722,-0.6401,-0.5523,-0.5331,-0.5887,-0.5461,-0.4206,-0.3545,-0.3181,-0.3016,-0.3408,-0.391,-0.4467,-0.4904,-0.5344,-0.5727,-0.6114,-0.644,-0.6815,-0.6977,-0.7187,-0.7456,-0.7771,-0.8043,-0.8262,-0.862,-0.8981,-0.9599,-1.0131,-1.0592,-1.1006,-1.1368,-1.1519,-1.1669,-1.1819,-1.1918,-1.1968,-1.2076,-1.2076,-1.2126,-1.2175,-1.2224,-2.1986,-2.2141,-2.1877,-2.1807,-2.1786,-2.1208,-2.0916,-2.0897,-2.0618,-2.0275,-2.0027,-2.006,-1.9918,-1.9654,-1.9738,-1.9664,-1.9605,-1.9523,-1.938,-1.9223,-1.9295,-1.945,-1.9625,-1.972,-1.988,-1.9928,-1.9559,-1.8276,-1.6105,-1.3519,-1.0808,-0.8008,-0.5597,-0.4152,-0.3439,-0.3129,-0.304,-0.2951,-0.2815,-0.2768,-0.2724,-0.2682,-0.2553,-0.2511,-0.2467,-0.2375,-0.2286,-0.2284,-0.2239,-0.2239,-0.233,-0.2509,-0.2687,-0.2684,-0.2684,-0.264,-0.26,-0.2467,-0.2375,-0.2324,-0.2492,-0.2923,-0.3609,-0.4413,-0.5307,-0.6157,-0.6657,-0.7126,-0.7516,-0.764,-0.6969,-0.6444,-0.534,-0.4463,-0.3724,-0.3116,-0.2843,-0.3377,-0.3641,-0.2845,-0.2738,-0.2963,-0.3186,-0.3574,-0.3962,-0.4463,-0.4688,-0.5073,-0.5352,-0.5736,-0.595,-0.6218,-0.6381,-0.6598,-0.6815,-0.7139,-0.7408,-0.7676,-0.7943,-0.8196,-0.8554,-0.9086,-0.951,-1.0028,-1.0541,-1.0753,-1.0905,-1.1057,-1.1167,-1.1318,-1.1418,-1.1418,-1.1418,-1.1469,-1.1519,-2.1589,-2.1637,-2.0978,-2.0776,-2.0757,-2.0204,-1.9924,-1.9974,-1.9911,-1.9412,-1.9098,-1.9103,-1.8875,-1.8399,-1.8487,-1.8518,-1.8673,-1.8878,-1.9018,-1.9168,-1.9292,-1.9446,-1.9628,-1.9809,-1.9807,-1.9767,-1.8963,-1.7354,-1.4846,-1.2271,-0.9317,-0.6687,-0.4748,-0.351,-0.3034,-0.286,-0.2732,-0.2598,-0.2462,-0.2415,-0.2415,-0.2326,-0.2194,-0.2107,-0.2109,-0.2064,-0.202,-0.1973,-0.1928,-0.1794,-0.1794,-0.2016,-0.2284,-0.237,-0.2373,-0.2235,-0.2196,-0.2109,-0.1973,-0.1792,-0.1834,-0.2012,-0.2142,-0.249,-0.3256,-0.3619,-0.4026,-0.4282,-0.4564,-0.4465,-0.3662,-0.3645,-0.3151,-0.2552,-0.224,-0.2166,-0.2293,-0.2294,-0.246,-0.2516,-0.2742,-0.3077,-0.3355,-0.3688,-0.4076,-0.4408,-0.4577,-0.4802,-0.5077,-0.5297,-0.5567,-0.5727,-0.5837,-0.6105,-0.6322,-0.649,-0.6815,-0.7025,-0.73,-0.7509,-0.7711,-0.8084,-0.8613,-0.9242,-0.9658,-0.9925,-1.0087,-1.0241,-1.0395,-1.0608,-1.071,-1.0702,-1.0702,-1.0761,-1.0863,-2.06,-2.0693,-2.0069,-1.9853,-1.9834,-1.9219,-1.8951,-1.8842,-1.8434,-1.8076,-1.8014,-1.8092,-1.8219,-1.813,-1.8194,-1.838,-1.8601,-1.8807,-1.9,-1.9166,-1.9323,-1.9485,-1.9688,-1.9821,-1.9608,-1.8883,-1.7752,-1.5672,-1.3083,-1.0303,-0.7682,-0.5166,-0.3719,-0.2904,-0.2635,-0.246,-0.2328,-0.2196,-0.2107,-0.2061,-0.2061,-0.1971,-0.1882,-0.1794,-0.1794,-0.1794,-0.1794,-0.1794,-0.1839,-0.1794,-0.1794,-0.1837,-0.1882,-0.1927,-0.1927,-0.1927,-0.1882,-0.1839,-0.1705,-0.1658,-0.1524,-0.1478,-0.1521,-0.1432,-0.165,-0.1738,-0.2131,-0.2131,-0.2224,-0.2082,-0.1937,-0.2231,-0.2207,-0.2082,-0.2239,-0.2381,-0.2648,-0.2724,-0.2724,-0.2777,-0.3007,-0.3244,-0.3522,-0.3744,-0.4021,-0.4298,-0.4411,-0.4577,-0.4798,-0.4963,-0.5128,-0.5234,-0.534,-0.5614,-0.5887,-0.6,-0.6218,-0.6376,-0.6593,-0.681,-0.702,-0.7289,-0.7711,-0.8343,-0.8771,-0.9099,-0.9256,-0.9413,-0.9569,-0.9777,-0.9873,-0.9976,-1.0028,-1.0035,-1.0198,-1.9957,-1.9699,-1.9056,-1.88,-1.8749,-1.8177,-1.7914,-1.7897,-1.7622,-1.7526,-1.7595,-1.7704,-1.7816,-1.7961,-1.8091,-1.8304,-1.8582,-1.8807,-1.8982,-1.9148,-1.932,-1.9536,-1.9654,-1.9746,-1.8866,-1.7514,-1.5666,-1.3749,-1.1579,-0.8831,-0.6185,-0.4109,-0.2901,-0.2462,-0.2194,-0.2061,-0.1927,-0.1794,-0.1705,-0.1705,-0.1705,-0.1569,-0.1524,-0.1479,-0.1435,-0.1435,-0.1435,-0.1435,-0.1435,-0.1435,-0.1435,-0.1435,-0.1435,-0.1479,-0.1524,-0.1658,-0.1705,-0.1658,-0.1524,-0.1479,-0.1435,-0.1389,-0.1344,-0.1254,-0.121,-0.1298,-0.1299,-0.1435,-0.1524,-0.1624,-0.1842,-0.1879,-0.2084,-0.2291,-0.2452,-0.2659,-0.2863,-0.3018,-0.304,-0.3113,-0.3207,-0.3392,-0.3633,-0.3855,-0.4021,-0.4135,-0.4301,-0.4411,-0.4574,-0.4629,-0.4743,-0.4849,-0.4901,-0.5124,-0.534,-0.5508,-0.5618,-0.5778,-0.5996,-0.6209,-0.6372,-0.6588,-0.6912,-0.7396,-0.7771,-0.8203,-0.8527,-0.8738,-0.8844,-0.8942,-0.9093,-0.9197,-0.9249,-0.9354,-0.9517,-1.919,-1.8731,-1.8026,-1.776,-1.7743,-1.7326,-1.7158,-1.7158,-1.7248,-1.7329,-1.7448,-1.7502,-1.7635,-1.7794,-1.8031,-1.8284,-1.8598,-1.8789,-1.8999,-1.9107,-1.9111,-1.9306,-1.943,-1.8885,-1.7825,-1.5704,-1.324,-1.1283,-0.9821,-0.7266,-0.4875,-0.3268,-0.2368,-0.2057,-0.1791,-0.1748,-0.1569,-0.1435,-0.1345,-0.1345,-0.13,-0.13,-0.1211,-0.112,-0.112,-0.1121,-0.1166,-0.1165,-0.112,-0.112,-0.112,-0.112,-0.112,-0.112,-0.121,-0.1435,-0.1479,-0.1435,-0.1389,-0.1389,-0.1389,-0.1389,-0.1344,-0.1344,-0.1389,-0.1479,-0.1614,-0.1839,-0.1884,-0.1928,-0.208,-0.2213,-0.2401,-0.2542,-0.27,-0.2856,-0.3006,-0.3105,-0.3198,-0.3245,-0.3379,-0.3481,-0.366,-0.3796,-0.391,-0.3965,-0.4132,-0.419,-0.4298,-0.4242,-0.4356,-0.4408,-0.4519,-0.4688,-0.4849,-0.5014,-0.5124,-0.5234,-0.5449,-0.5668,-0.5832,-0.5941,-0.6322,-0.6647,-0.6912,-0.7289,-0.7676,-0.8002,-0.815,-0.8249,-0.8362,-0.8468,-0.8567,-0.8732,-0.8903,-1.7846,-1.7704,-1.7049,-1.6813,-1.6891,-1.6863,-1.6898,-1.7007,-1.7009,-1.7125,-1.7257,-1.7305,-1.7455,-1.7664,-1.8018,-1.8328,-1.8531,-1.8699,-1.8833,-1.8877,-1.8656,-1.8591,-1.8573,-1.7454,-1.5886,-1.3792,-1.1154,-0.9307,-0.7737,-0.5444,-0.3604,-0.2235,-0.1925,-0.1703,-0.139,-0.1345,-0.1346,-0.1168,-0.1123,-0.1123,-0.1078,-0.1078,-0.1034,-0.1034,-0.1034,-0.1034,-0.0989,-0.0987,-0.0985,-0.0985,-0.103,-0.1074,-0.112,-0.112,-0.112,-0.1165,-0.1165,-0.121,-0.1299,-0.1344,-0.1344,-0.1389,-0.1389,-0.1435,-0.1569,-0.1705,-0.1839,-0.2111,-0.2156,-0.2243,-0.2328,-0.2429,-0.2619,-0.2714,-0.2855,-0.2973,-0.3076,-0.3097,-0.3187,-0.3227,-0.3247,-0.3404,-0.3517,-0.3715,-0.3852,-0.3852,-0.3907,-0.3965,-0.3965,-0.391,-0.3968,-0.4079,-0.4135,-0.4301,-0.4467,-0.4577,-0.4629,-0.4739,-0.4959,-0.5179,-0.5289,-0.5449,-0.5673,-0.5996,-0.6213,-0.6485,-0.6918,-0.7241,-0.7456,-0.7616,-0.7723,-0.7877,-0.7978,-0.8103,-0.8268,-1.6697,-1.6806,-1.6495,-1.6409,-1.6474,-1.6554,-1.6623,-1.6717,-1.6789,-1.6866,-1.7,-1.7125,-1.7353,-1.7681,-1.8035,-1.8081,-1.8035,-1.8163,-1.8107,-1.8051,-1.7838,-1.7776,-1.7407,-1.6193,-1.4369,-1.1737,-0.9274,-0.6959,-0.541,-0.4148,-0.2679,-0.1743,-0.1523,-0.1345,-0.0942,-0.0808,-0.0629,-0.0494,-0.045,-0.0494,-0.0494,-0.0494,-0.0494,-0.0494,-0.0584,-0.0584,-0.0584,-0.0674,-0.0718,-0.0807,-0.0853,-0.0852,-0.0852,-0.0852,-0.0852,-0.0852,-0.0897,-0.1032,-0.1254,-0.1299,-0.1344,-0.1389,-0.1435,-0.1479,-0.166,-0.1839,-0.2018,-0.2239,-0.2239,-0.2373,-0.2551,-0.2593,-0.271,-0.2839,-0.2914,-0.2933,-0.2994,-0.3051,-0.3083,-0.3074,-0.3118,-0.3213,-0.326,-0.3382,-0.3468,-0.3498,-0.3508,-0.3522,-0.3463,-0.3408,-0.3577,-0.3749,-0.386,-0.3913,-0.4079,-0.4245,-0.4242,-0.4353,-0.4574,-0.4739,-0.4849,-0.4959,-0.5234,-0.5403,-0.5618,-0.5891,-0.6273,-0.6539,-0.6864,-0.7031,-0.7139,-0.7295,-0.745,-0.7551,-0.7777,-1.5841,-1.6026,-1.6083,-1.6151,-1.6203,-1.6274,-1.6355,-1.6421,-1.6554,-1.6659,-1.6805,-1.7025,-1.737,-1.762,-1.7808,-1.7803,-1.7754,-1.7589,-1.7212,-1.6977,-1.6836,-1.6753,-1.5975,-1.4679,-1.2336,-0.9832,-0.7579,-0.5249,-0.3467,-0.2386,-0.1726,-0.1102,-0.1009,-0.0799,-0.0403,-0.0135,0.0045,0.027,0.027,0.0225,0.018,0.018,0.018,0.0135,0.009,-0.0,-0.0045,-0.0225,-0.0405,-0.045,-0.0584,-0.0629,-0.0629,-0.0719,-0.0719,-0.0719,-0.0764,-0.0898,-0.1121,-0.1211,-0.1299,-0.1389,-0.1479,-0.1614,-0.1749,-0.193,-0.2152,-0.2326,-0.2368,-0.2504,-0.2684,-0.2729,-0.2784,-0.2879,-0.2881,-0.287,-0.2879,-0.2917,-0.2874,-0.2845,-0.2843,-0.2857,-0.2955,-0.3071,-0.3086,-0.308,-0.3106,-0.3072,-0.3074,-0.3074,-0.3244,-0.3469,-0.3524,-0.358,-0.3747,-0.3858,-0.3855,-0.3965,-0.4187,-0.4353,-0.4463,-0.4632,-0.4908,-0.5022,-0.5132,-0.5289,-0.5609,-0.5941,-0.6277,-0.649,-0.6652,-0.6815,-0.6972,-0.7128,-0.7343,-1.5448,-1.5477,-1.5697,-1.587,-1.6039,-1.6024,-1.6095,-1.6207,-1.6301,-1.6436,-1.6607,-1.6952,-1.7361,-1.7535,-1.7432,-1.76,-1.8253,-1.7257,-1.6634,-1.6321,-1.6124,-1.5555,-1.438,-1.2375,-0.9955,-0.7563,-0.5611,-0.3582,-0.175,-0.0994,-0.0526,-0.0294,-0.0256,-0.0087,0.0133,0.0359,0.0584,0.0809,0.0854,0.0763,0.0674,0.0629,0.0629,0.0629,0.0629,0.0539,0.036,0.0135,-0.0045,-0.009,-0.027,-0.0405,-0.0405,-0.0539,-0.0584,-0.0629,-0.0719,-0.0809,-0.0989,-0.1121,-0.121,-0.1389,-0.1614,-0.1749,-0.1794,-0.2064,-0.2243,-0.2415,-0.2413,-0.2549,-0.2729,-0.2865,-0.2821,-0.2821,-0.2773,-0.2773,-0.2729,-0.2737,-0.2685,-0.2592,-0.2587,-0.2607,-0.2516,-0.2618,-0.2746,-0.2797,-0.283,-0.2798,-0.291,-0.2907,-0.3019,-0.3132,-0.3188,-0.3244,-0.3416,-0.3524,-0.3633,-0.3744,-0.3968,-0.4079,-0.419,-0.4411,-0.4577,-0.4688,-0.4798,-0.4901,-0.5007,-0.5449,-0.5782,-0.6,-0.6164,-0.6386,-0.6657,-0.6869,-0.7085,-1.5118,-1.5102,-1.5163,-1.5359,-1.5624,-1.5682,-1.574,-1.5841,-1.6039,-1.6301,-1.6581,-1.6942,-1.7288,-1.744,-1.7223,-1.7127,-1.7362,-1.6457,-1.5846,-1.5354,-1.4955,-1.4089,-1.2526,-1.0547,-0.823,-0.6099,-0.4108,-0.2234,-0.0589,0.0036,0.0454,0.0594,0.058,0.069,0.0797,0.085,0.0984,0.1029,0.1119,0.103,0.0987,0.0942,0.0942,0.0942,0.0764,0.0674,0.0584,0.0494,0.036,0.0225,-0.0,-0.0135,-0.0,-0.0,-0.0405,-0.0584,-0.0674,-0.0764,-0.0854,-0.0987,-0.121,-0.1389,-0.1614,-0.1794,-0.1794,-0.2064,-0.2241,-0.2328,-0.2413,-0.2504,-0.2593,-0.264,-0.2637,-0.264,-0.264,-0.2637,-0.2595,-0.2595,-0.2509,-0.2391,-0.2352,-0.2336,-0.2242,-0.2194,-0.2365,-0.2477,-0.2509,-0.2575,-0.2631,-0.2742,-0.2798,-0.291,-0.291,-0.3021,-0.319,-0.3302,-0.3355,-0.3524,-0.3691,-0.3802,-0.3968,-0.4079,-0.4242,-0.4353,-0.4519,-0.4629,-0.4794,-0.5069,-0.5344,-0.5567,-0.5845,-0.6064,-0.6337,-0.6603,-0.682,-1.4811,-1.4746,-1.4683,-1.4887,-1.5239,-1.5329,-1.5418,-1.5551,-1.5784,-1.6148,-1.6581,-1.6866,-1.7216,-1.7361,-1.6891,-1.6654,-1.642,-1.571,-1.51,-1.4543,-1.3903,-1.2678,-1.0955,-0.9066,-0.7072,-0.4884,-0.2772,-0.0837,0.0101,0.0547,0.0915,0.1136,0.1317,0.129,0.1284,0.1282,0.1276,0.1229,0.1211,0.1122,0.1118,0.1074,0.103,0.1029,0.0857,0.0771,0.0732,0.0649,0.0614,0.0486,0.0311,0.0179,-0.0,-0.0,-0.0,-0.045,-0.0629,-0.0719,-0.0764,-0.0987,-0.1254,-0.1435,-0.1614,-0.1749,-0.1839,-0.202,-0.2152,-0.2279,-0.2322,-0.2368,-0.246,-0.2549,-0.2549,-0.2549,-0.2549,-0.2549,-0.246,-0.2415,-0.2328,-0.2199,-0.216,-0.2076,-0.2016,-0.1973,-0.2084,-0.2234,-0.2353,-0.2369,-0.2352,-0.2464,-0.2519,-0.2633,-0.2747,-0.2856,-0.3023,-0.3079,-0.319,-0.3299,-0.3469,-0.3635,-0.3747,-0.3858,-0.3965,-0.4132,-0.4298,-0.4411,-0.4577,-0.4798,-0.5018,-0.5242,-0.5517,-0.5845,-0.6064,-0.6386,-0.6549,-1.4465,-1.4429,-1.4332,-1.4543,-1.4856,-1.4951,-1.5118,-1.5298,-1.5551,-1.5968,-1.6485,-1.6799,-1.7191,-1.7294,-1.655,-1.6149,-1.6009,-1.5154,-1.4465,-1.4037,-1.3063,-1.1569,-0.9792,-0.7935,-0.5551,-0.2932,-0.1291,-0.0268,0.0538,0.102,0.1339,0.1491,0.1615,0.1642,0.1603,0.1676,0.1603,0.1466,0.1418,0.1283,0.1163,0.1127,0.1089,0.1009,0.093,0.0892,0.0857,0.0749,0.0718,0.0642,0.0615,0.0445,-0.0,-0.0,-0.018,-0.0539,-0.0674,-0.0719,-0.0719,-0.1121,-0.1299,-0.139,-0.1569,-0.1658,-0.1794,-0.1928,-0.2062,-0.2148,-0.2235,-0.2326,-0.2415,-0.246,-0.2415,-0.2415,-0.237,-0.237,-0.2237,-0.2194,-0.2105,-0.2016,-0.1928,-0.1799,-0.1776,-0.1773,-0.1922,-0.2053,-0.2158,-0.2162,-0.2166,-0.2184,-0.2296,-0.241,-0.2521,-0.2691,-0.28,-0.2858,-0.297,-0.3135,-0.3246,-0.336,-0.3524,-0.3688,-0.3799,-0.3965,-0.4076,-0.4187,-0.4356,-0.447,-0.4746,-0.5022,-0.5348,-0.5677,-0.5896,-0.6168,-0.6332,-1.4065,-1.3947,-1.3848,-1.3914,-1.4111,-1.4501,-1.478,-1.498,-1.5403,-1.5883,-1.6367,-1.6747,-1.7199,-1.7149,-1.6541,-1.5941,-1.5877,-1.5114,-1.4418,-1.3476,-1.2261,-1.0375,-0.8433,-0.6163,-0.3817,-0.1694,-0.0335,0.037,0.1113,0.1466,0.1687,0.1849,0.1941,0.1936,0.1767,0.1724,0.168,0.1625,0.1495,0.1377,0.1298,0.1259,0.1218,0.1139,0.1058,0.1016,0.0974,0.0876,0.0813,0.0748,0.0729,0.0611,0.0356,0.0224,-0.0045,-0.0315,-0.045,-0.0719,-0.0764,-0.0988,-0.1211,-0.13,-0.1479,-0.1614,-0.1658,-0.1794,-0.1884,-0.1971,-0.2016,-0.2061,-0.2016,-0.2016,-0.2016,-0.1971,-0.1971,-0.1971,-0.1928,-0.1928,-0.1884,-0.1839,-0.1749,-0.1658,-0.1581,-0.1603,-0.173,-0.1776,-0.1934,-0.1948,-0.195,-0.2014,-0.2071,-0.2184,-0.2352,-0.2465,-0.2635,-0.2691,-0.2805,-0.297,-0.3081,-0.3137,-0.3304,-0.3524,-0.3633,-0.3799,-0.391,-0.3965,-0.419,-0.4359,-0.4636,-0.4912,-0.5183,-0.5462,-0.5686,-0.59,-0.6164,-1.3589,-1.3412,-1.3365,-1.3391,-1.3527,-1.4046,-1.4433,-1.4794,-1.5299,-1.5797,-1.6231,-1.667,-1.715,-1.7188,-1.6546,-1.6008,-1.5998,-1.5048,-1.3448,-1.2472,-1.1045,-0.9271,-0.7084,-0.4472,-0.2301,-0.0532,0.0403,0.1082,0.1464,0.1715,0.1982,0.2156,0.2257,0.2174,0.1989,0.1898,0.1806,0.1742,0.1614,0.1452,0.1413,0.1332,0.1322,0.123,0.1183,0.11,0.1019,0.0952,0.0895,0.0804,0.0747,0.0723,0.0613,0.0446,0.0134,-0.0045,-0.0225,-0.0539,-0.0674,-0.0809,-0.0943,-0.1032,-0.1345,-0.1479,-0.1524,-0.1658,-0.1749,-0.1794,-0.1794,-0.1794,-0.1794,-0.1794,-0.1705,-0.1705,-0.166,-0.1705,-0.1658,-0.1658,-0.1658,-0.1614,-0.1569,-0.1479,-0.1436,-0.1456,-0.1493,-0.1579,-0.1661,-0.1723,-0.1782,-0.1845,-0.1961,-0.2073,-0.2184,-0.2296,-0.2465,-0.2579,-0.2691,-0.2805,-0.2916,-0.2972,-0.3137,-0.3302,-0.3469,-0.3633,-0.3744,-0.391,-0.4079,-0.4304,-0.4467,-0.4688,-0.4908,-0.5132,-0.5474,-0.5686,-0.5887,-1.3057,-1.2896,-1.2861,-1.2943,-1.3129,-1.3641,-1.4189,-1.4808,-1.5209,-1.5653,-1.6123,-1.6607,-1.7126,-1.7356,-1.6534,-1.6179,-1.5984,-1.5017,-1.2889,-1.0967,-0.9556,-0.801,-0.5945,-0.3304,-0.1249,0.0133,0.098,0.1379,0.1705,0.2071,0.234,0.2435,0.2436,0.2324,0.2251,0.2128,0.1993,0.1874,0.1731,0.1575,0.145,0.141,0.135,0.125,0.1191,0.1127,0.1042,0.097,0.0918,0.084,0.0802,0.0788,0.0728,0.0705,0.0401,0.018,-0.0,-0.027,-0.0539,-0.0629,-0.0719,-0.0808,-0.1076,-0.1256,-0.1389,-0.1479,-0.1524,-0.1614,-0.1614,-0.1705,-0.1705,-0.1614,-0.1524,-0.1479,-0.1435,-0.1435,-0.1389,-0.1389,-0.1389,-0.1344,-0.1344,-0.1299,-0.1344,-0.1358,-0.1439,-0.1525,-0.1606,-0.1718,-0.177,-0.1793,-0.185,-0.1961,-0.2073,-0.2184,-0.2296,-0.2465,-0.2579,-0.2691,-0.2805,-0.2916,-0.3026,-0.3137,-0.3246,-0.3413,-0.3633,-0.3799,-0.3965,-0.4135,-0.4245,-0.4467,-0.4632,-0.4908,-0.5191,-0.5458,-0.5668,-1.2496,-1.233,-1.233,-1.2365,-1.2473,-1.3057,-1.3749,-1.4479,-1.4966,-1.5492,-1.6067,-1.6617,-1.7158,-1.7659,-1.7227,-1.6801,-1.6201,-1.4975,-1.2273,-1.0193,-0.8365,-0.6602,-0.445,-0.2106,-0.0399,0.0536,0.122,0.17,0.2066,0.2444,0.2696,0.2832,0.2637,0.2549,0.2404,0.2295,0.2117,0.1979,0.1823,0.1678,0.1545,0.1466,0.1365,0.131,0.1236,0.1169,0.1121,0.1089,0.101,0.1003,0.0907,0.086,0.084,0.076,0.0539,0.0315,0.0135,-0.009,-0.0225,-0.036,-0.0494,-0.0584,-0.0808,-0.0942,-0.112,-0.121,-0.1299,-0.139,-0.139,-0.1435,-0.1435,-0.139,-0.1345,-0.13,-0.1256,-0.1165,-0.1165,-0.1165,-0.1165,-0.1165,-0.1165,-0.1217,-0.126,-0.1316,-0.1403,-0.1483,-0.1555,-0.1667,-0.1762,-0.1786,-0.1797,-0.185,-0.1961,-0.2073,-0.2184,-0.2296,-0.2465,-0.2579,-0.2635,-0.2747,-0.286,-0.297,-0.3081,-0.3246,-0.3466,-0.363,-0.3852,-0.3962,-0.4079,-0.4187,-0.4353,-0.4629,-0.4959,-0.5175,-0.5395,-1.1884,-1.1737,-1.1737,-1.1811,-1.1993,-1.2567,-1.3216,-1.3901,-1.461,-1.524,-1.5896,-1.6538,-1.7142,-1.763,-1.7536,-1.7424,-1.7404,-1.507,-1.1994,-0.8364,-0.7364,-0.5377,-0.3176,-0.1083,0.02,0.0974,0.1498,0.1892,0.2336,0.2742,0.3026,0.2978,0.2862,0.2684,0.2499,0.2359,0.2209,0.2074,0.1943,0.1827,0.1692,0.1564,0.1479,0.1326,0.1247,0.1229,0.1241,0.1194,0.1159,0.1101,0.1032,0.0992,0.0923,0.0799,0.0674,0.0494,0.0405,0.027,0.0135,-0.0045,-0.018,-0.0315,-0.0405,-0.0494,-0.0718,-0.0897,-0.1033,-0.1167,-0.1122,-0.1121,-0.1121,-0.1121,-0.1121,-0.1121,-0.1032,-0.0942,-0.0942,-0.0942,-0.0942,-0.1032,-0.1035,-0.1089,-0.114,-0.1242,-0.1378,-0.1473,-0.1594,-0.1693,-0.1777,-0.179,-0.1797,-0.1852,-0.185,-0.1961,-0.2073,-0.2184,-0.2296,-0.2354,-0.241,-0.2521,-0.2691,-0.2802,-0.2912,-0.3079,-0.3246,-0.3411,-0.3519,-0.3744,-0.3858,-0.3965,-0.4076,-0.4298,-0.4574,-0.4901,-0.5014,-1.1169,-1.1105,-1.1142,-1.1282,-1.1579,-1.2066,-1.2567,-1.3126,-1.4038,-1.4892,-1.5608,-1.6363,-1.7044,-1.7574,-1.7753,-1.8267,-1.7476,-1.5393,-1.0906,-0.6288,-0.6213,-0.4569,-0.2095,-0.0267,0.0705,0.1378,0.1843,0.2118,0.2542,0.2953,0.3187,0.3034,0.2951,0.2821,0.2593,0.2413,0.2315,0.2213,0.2117,0.2021,0.1857,0.1774,0.163,0.1402,0.1332,0.1315,0.1316,0.13,0.1262,0.1163,0.1146,0.1136,0.0993,0.0881,0.076,0.0719,0.0674,0.0629,0.0494,0.0359,0.036,0.027,0.018,0.0135,-0.0045,-0.0494,-0.0674,-0.0764,-0.0718,-0.0718,-0.0718,-0.0718,-0.0718,-0.0674,-0.0629,-0.0629,-0.0629,-0.072,-0.0815,-0.0908,-0.0964,-0.102,-0.1049,-0.1109,-0.1283,-0.142,-0.1578,-0.167,-0.1734,-0.1796,-0.1797,-0.1797,-0.1852,-0.185,-0.1961,-0.2017,-0.2071,-0.2128,-0.2184,-0.2296,-0.2465,-0.2633,-0.2745,-0.2856,-0.2968,-0.3077,-0.3186,-0.3411,-0.358,-0.3635,-0.3747,-0.3913,-0.4187,-0.4515,-0.4736,-1.0322,-1.0322,-1.0428,-1.0687,-1.0943,-1.1383,-1.1934,-1.2555,-1.3272,-1.4224,-1.5316,-1.6196,-1.6978,-1.7569,-1.8234,-1.8831,-1.8379,-1.5092,-0.9969,-0.6064,-0.456,-0.3405,-0.0996,0.0302,0.111,0.1577,0.1979,0.2401,0.2881,0.324,0.3398,0.3262,0.3129,0.2948,0.2773,0.2593,0.2415,0.2328,0.2241,0.2154,0.1973,0.1839,0.1689,0.1527,0.1422,0.1349,0.1313,0.1326,0.1298,0.1278,0.121,0.1157,0.1103,0.1026,0.103,0.0986,0.0942,0.0896,0.0851,0.0807,0.0809,0.0854,0.081,0.0855,0.0629,0.0045,-0.0225,-0.0225,-0.027,-0.027,-0.027,-0.027,-0.027,-0.0225,-0.0225,-0.027,-0.0315,-0.0501,-0.0688,-0.0742,-0.0845,-0.0913,-0.094,-0.1014,-0.1194,-0.1335,-0.1539,-0.1625,-0.1737,-0.1797,-0.1797,-0.1797,-0.1797,-0.1852,-0.1906,-0.1905,-0.1961,-0.2017,-0.2073,-0.2184,-0.224,-0.2408,-0.2519,-0.2577,-0.2689,-0.2742,-0.2907,-0.3077,-0.3244,-0.3299,-0.3469,-0.3635,-0.3747,-0.4021,-0.4298,-0.9487,-0.9478,-0.9755,-1.003,-1.0341,-1.0677,-1.1196,-1.1813,-1.2555,-1.3524,-1.4668,-1.5818,-1.6811,-1.7579,-1.8476,-1.9161,-1.868,-1.4918,-0.9664,-0.5347,-0.2804,-0.1735,-0.0345,0.0853,0.1378,0.1854,0.2387,0.2875,0.3272,0.351,0.3663,0.3486,0.3306,0.3129,0.2954,0.2729,0.2593,0.2413,0.2328,0.2194,0.2105,0.1971,0.1839,0.1685,0.1538,0.1468,0.1419,0.1394,0.1361,0.1332,0.1302,0.1266,0.12,0.1164,0.1165,0.112,0.112,0.112,0.1165,0.1211,0.1257,0.1258,0.1303,0.1257,0.1302,0.0852,0.0763,0.0763,0.0538,0.0493,0.0494,0.0494,0.0494,0.0539,0.0361,0.0226,0.0046,-0.0143,-0.0288,-0.0437,-0.0589,-0.0847,-0.0868,-0.0986,-0.1169,-0.1253,-0.1399,-0.157,-0.1684,-0.1685,-0.1741,-0.1741,-0.1741,-0.1797,-0.1852,-0.1852,-0.1906,-0.1962,-0.1962,-0.2017,-0.2073,-0.2184,-0.224,-0.2354,-0.241,-0.2464,-0.2629,-0.2798,-0.291,-0.2968,-0.3135,-0.3357,-0.3469,-0.3635,-0.3858,-0.8618,-0.8699,-0.899,-0.9328,-0.9664,-0.9961,-1.0408,-1.0987,-1.1743,-1.2681,-1.3769,-1.5213,-1.6423,-1.7492,-1.8462,-1.9105,-1.7999,-1.4164,-0.9107,-0.4316,-0.2187,-0.0842,0.0362,0.1416,0.1933,0.2445,0.2984,0.336,0.3693,0.3874,0.3932,0.3711,0.3581,0.3448,0.309,0.2909,0.2821,0.2593,0.246,0.2368,0.2237,0.215,0.1973,0.1839,0.1705,0.1614,0.1567,0.1521,0.1475,0.1474,0.1468,0.1426,0.1429,0.1389,0.1344,0.1344,0.1389,0.1435,0.1435,0.1479,0.1524,0.1567,0.1614,0.1703,0.1748,0.1749,0.1705,0.157,0.1391,0.1167,0.1168,0.1168,0.1169,0.1096,0.0872,0.0648,0.0431,0.0247,0.005,-0.0101,-0.0409,-0.0621,-0.0842,-0.0962,-0.1086,-0.1168,-0.129,-0.1459,-0.1572,-0.1572,-0.1572,-0.1628,-0.1628,-0.1684,-0.1741,-0.174,-0.1796,-0.1682,-0.1682,-0.1793,-0.1849,-0.1905,-0.1962,-0.2073,-0.2128,-0.2238,-0.2296,-0.2464,-0.2577,-0.2633,-0.2856,-0.3079,-0.3135,-0.3246,-0.3416,-0.7773,-0.7923,-0.8062,-0.8365,-0.8798,-0.8967,-0.9341,-1.0021,-1.0768,-1.1698,-1.2861,-1.4196,-1.5613,-1.7243,-1.8404,-1.8921,-1.8182,-1.3786,-0.7185,-0.1517,-0.0963,0.0078,0.1156,0.2025,0.2572,0.3131,0.3621,0.3915,0.4111,0.4293,0.424,0.402,0.388,0.3707,0.349,0.3309,0.3084,0.286,0.2684,0.2593,0.2415,0.2239,0.2018,0.193,0.1839,0.1794,0.1749,0.1749,0.1703,0.1749,0.1705,0.1705,0.1705,0.166,0.1658,0.1658,0.1748,0.1837,0.1839,0.1927,0.2016,0.2101,0.2192,0.2237,0.233,0.2476,0.2433,0.2393,0.2123,0.1764,0.1721,0.1582,0.1542,0.1415,0.125,0.0977,0.0752,0.0609,0.0513,0.0208,-0.0106,-0.0429,-0.0766,-0.0883,-0.0994,-0.1066,-0.1122,-0.129,-0.1403,-0.1403,-0.1403,-0.1459,-0.1459,-0.1515,-0.1628,-0.1628,-0.1628,-0.1515,-0.1459,-0.1514,-0.1626,-0.1628,-0.1684,-0.1794,-0.1905,-0.2015,-0.2127,-0.2186,-0.2296,-0.2408,-0.2633,-0.2802,-0.2856,-0.2968,-0.3137]},{"header":{"parameterUnit":"m.s-1","parameterCategory":1,"la1":31.0,"la2":29.5877,"lo1":-88.7671,"lo2":-86.6584,"dy":0.0162,"dx":0.0185,"nx":115,"ny":88,"refTime":"2023-07-23T00:00:00:Z","depth":0,"parameterNumber":3,"parameterNumberName":"V-component_of_WINDS"},"data":[0.0,0.0,0.0,0.0,0.0,0.0,0.0,0.0,0.0,0.0,0.0,0.0,0.0,0.0,0.0,0.0,0.0,0.0,0.0,0.0,0.0,0.0,0.0,0.0,0.0,0.0,0.0,0.0,0.0,0.0,0.0,0.0,0.0,0.0,0.0,0.0,0.0,0.0,0.0,0.0,0.0,0.0,0.0,0.0,0.0,0.0,0.0,0.0,0.0,0.0,0.0,0.0,0.0,0.0,0.0,0.0,0.0,0.0,0.0,0.0,0.0,0.0,0.0,0.0,0.0,0.0,0.0,0.0,0.0,0.0,0.0,0.0,0.0,0.0,0.0,0.0,0.0,0.0,0.0,0.0,0.0,0.0,0.0,0.0,0.0,0.0,0.0,0.0,0.0,0.0,0.0,0.0,0.0,0.0,0.0,0.0,0.0,0.0,0.0,0.0,0.0,0.0,0.0,0.0,0.0,0.0,0.0,0.0,0.0,0.0,0.0,0.0,0.0,0.0,0.0,0.0,0.0,0.0,0.0,0.0,0.0,0.0,0.0,0.0,0.0,0.0,0.0,0.0,0.0,0.0,0.0,0.0,0.0,0.0,0.0,0.0,0.0,0.0,0.0,0.0,0.0,0.0,0.0,0.0,0.0,0.0,0.0,0.0,0.0,0.0,0.0,0.0,0.0,0.0,0.0,0.0,0.0,0.0,0.0,0.0,0.0,0.0,0.0,0.0,0.0,0.0,0.0,0.0,0.0,0.0,0.0,0.0,0.0,0.0,0.0,0.0,0.0,0.0,0.0,0.0,0.0,0.0,0.0,0.0,0.0,0.0,0.0,0.0,0.0,0.0,0.0,0.0,0.0,0.0,0.0,0.0,0.0,0.0,0.0,0.0,0.0,0.0,0.0,0.0,0.0,0.0,0.0,0.0,0.0,0.0,0.0,0.0,0.0,0.0,0.0,0.0,0.0,0.0,0.0,0.0,0.0,0.0,0.0,0.0,0.0,0.0,0.0,0.0,0.0,0.0,0.0,0.0,0.0,0.0,0.0,0.0,0.0,0.0,0.0,0.0,0.0,0.0,0.0,0.0,0.0,0.0,0.0,0.0,0.0,0.0,0.0,0.0,0.0,0.0,0.0,0.0,0.0,0.0,0.0,0.0,0.0,0.0,0.0,0.0,0.0,0.0,0.0,0.0,0.0,0.0,0.0,0.0,0.0,0.0,0.0,0.0,0.0,0.0,0.0,0.0,0.0,0.0,0.0,0.0,0.0,0.0,0.0,0.0,0.0,0.0,0.0,0.0,0.0,0.0,0.0,0.0,0.0,0.0,0.0,0.0,0.0,0.0,0.0,0.0,0.0,0.0,0.0,0.0,0.0,0.0,0.0,0.0,0.0,0.0,0.0,0.0,0.0,0.0,0.0,0.0,0.0,0.0,0.0,0.0,0.0,0.0,0.0,0.0,0.0,0.0,0.0,0.0,0.0,0.0,0.0,0.0,0.0,0.0,0.0,0.0,0.0,0.0,0.0,0.0,0.0,0.0,0.0,0.0,0.0,0.0,0.0,0.0,0.0,0.0,0.0,0.0,0.0,0.0,0.0,0.0,0.0,0.0,0.0,0.0,0.0,0.0,0.0,0.0,0.0,0.0,0.0,0.0,0.0,0.0,0.0,0.0,0.0,0.0,0.0,0.0,0.0,0.0,0.0,0.0,0.0,0.0,0.0,0.0,0.0,0.0,0.0,0.0,0.0,0.0,0.0,0.0,0.0,0.0,0.0,0.0,0.0,0.0,0.0,0.0,0.0,0.0,0.0,0.0,0.0,0.0,0.0,0.0,0.0,0.0,0.0,0.0,0.0,0.0,0.0,0.0,0.0,0.0,0.0,0.0,0.0,0.0,0.0,0.0,0.0,0.0,0.0,0.0,0.0,0.0,0.0,0.0,0.0,0.0,0.0,0.0,0.0,0.0,0.0,0.0,0.0,0.0,0.0,0.0,0.0,0.0,0.0,0.0,0.0,0.0,0.0,0.0,0.0,0.0,0.0,0.0,0.0,0.0,0.0,0.0,0.0,0.0,0.0,0.0,0.0,0.0,0.0,0.0,0.0,0.0,0.0,0.0,0.0,0.0,0.0,0.0,0.0,0.0,0.0,0.0,0.0,0.0,0.0,0.0,0.0,0.0,0.0,0.0,0.0,0.0,0.0,0.0,0.0,0.0,0.0,0.0,0.0,0.0,0.0,0.0,0.0,0.0,0.0,0.0,0.0,0.0,0.0,0.0,0.0,0.0,0.0,0.0,0.0,0.0,0.0,0.0,0.0,0.0,0.0,0.0,0.0,0.0,0.0,0.0,0.0,0.0,0.0,0.0,0.0,0.0,0.0,0.0,0.0,0.0,0.0,0.0,0.0,0.0,0.0,0.0,0.0,0.0,0.0,0.0,0.0,0.0,0.0,0.0,0.0,0.0,0.0,0.0,0.0,0.0,0.0,0.0,0.0,0.0,0.0,0.0,0.0,0.0,0.0,0.0,0.0,0.0,0.0,0.0,0.0,0.0,0.0,0.0,0.0,0.0,0.0,0.0,0.0,0.0,0.0,0.0,0.0,0.0,0.0,0.0,0.0,0.0,0.0,0.0,0.0,0.0,0.0,0.0,0.0,0.0,0.0,0.0,0.0,0.0,0.0,0.0,0.0,0.0,0.0,0.0,0.0,0.0,0.0,0.0,0.0,0.0,0.0,0.0,0.0,0.0,0.0,0.0,0.0,0.0,0.0,0.0,0.0,0.0,0.0,0.0,0.0,0.0,0.0,0.0,0.0,0.0,0.0,0.0,0.0,0.0,0.0,0.0,0.0,0.0,0.0,0.0,0.0,0.0,0.0,0.0,0.0,0.0,0.0,0.0,0.0,0.0,0.0,0.0,0.0,0.0,0.0,0.0,0.0,0.0,0.0,0.0,0.0,0.0,0.0,0.0,0.0,0.0,0.0,0.0,0.0,0.0,0.0,0.0,0.0,0.0,0.0,0.0,0.0,0.0,0.0,0.0,0.0,0.0,0.0,0.0,0.0,0.0,0.0,0.0,0.0,0.0,0.0,0.0,0.0,0.0,0.0,0.0,0.0,0.0,0.0,0.0,0.0,0.0,0.0,0.0,0.0,0.0,0.0,0.0,0.0,0.0,0.0,0.0,0.0,0.0,0.0,0.0,0.0,0.0,0.0,0.0,0.0,0.0,0.0,0.0,0.0,0.0,0.0,0.0,0.0,0.0,0.0,0.0,0.0,0.0,0.0,0.0,0.0,0.0,0.0,0.0,0.0,0.0,0.0,0.0,0.0,0.0,0.0,0.0,0.0,0.0,0.0,0.0,0.0,0.0,0.0,0.0,0.0,0.0,0.0,0.0,0.0,0.0,0.0,0.0,0.0,0.0,0.0,0.0,0.0,0.0,0.0,0.0,0.0,0.0,0.0,0.0,0.0,0.0,0.0,0.0,0.0,0.0,0.0,0.0,0.0,0.0,0.0,0.0,0.0,0.0,0.0,0.0,0.0,0.0,0.0,0.0,0.0,0.0,0.0,0.0,0.0,0.0,0.0,0.0,0.0,0.0,0.0,0.0,0.0,0.0,0.0,0.0,0.0,0.0,0.0,0.0,0.0,0.0,0.0,0.0,0.0,0.0,0.0,0.0,0.0,0.0,0.0,0.0,0.0,0.0,0.0,0.0,0.0,0.0,0.0,0.0,0.0,0.0,0.0,0.0,0.0,0.0,0.0,0.0,0.0,0.0,0.0,0.0,0.0,0.0,0.0,0.0,0.0,0.0,0.0,0.0,0.0,0.0,0.0,0.0,0.0,0.0,0.0,0.0,0.0,0.0,0.0,0.0,0.0,0.0,0.0,0.0,0.0,0.0,0.0,0.0,0.0,0.0,0.0,0.0,0.0,0.0,0.0,0.0,0.0,0.0,0.0,0.0,0.0,0.0,0.0,0.0,0.0,0.0,0.0,0.0,0.0,0.0,0.0,0.0,0.0,0.0,0.0,0.0,0.0,0.0,0.0,0.0,0.0,0.0,0.0,0.0,0.0,0.0,0.0,0.0,0.0,0.0,0.0,0.0,0.0,0.0,0.0,0.0,0.0,0.0,0.0,0.0,0.0,0.0,0.0,0.0,0.0,0.0,0.0,0.0,0.0,0.0,0.0,0.0,0.0,0.0,0.0,0.0,0.0,0.0,0.0,0.0,0.0,0.0,0.0,0.0,0.0,0.0,0.0,0.0,0.0,0.0,0.0,0.0,0.0,0.0,0.2373,0.0,0.0,0.0,0.0,0.0,0.0,0.0,0.0,0.0,0.0,0.0,0.0,0.0,0.0,0.0,0.0,0.0,0.0,0.0,0.0,0.0,0.0,0.0,0.0,0.0,0.0,0.0,0.0,0.0,0.0,0.0,0.0,0.0,0.0,0.0,0.0,0.0,0.0,0.0,0.0,0.0,0.0,0.0,0.0,0.0,0.0,0.0,0.0,0.0,0.0,0.0,0.0,0.0,0.0,0.0,0.0,0.0,0.0,0.0,0.0,0.0,0.0,0.0,0.0,0.0,0.0,0.0,0.0,0.0,0.0,0.0,0.0,0.0,0.0,0.0,0.0,0.0,0.0,0.0,0.0,0.0,0.0,0.0,0.0,0.0,0.0,0.0,0.0,0.0,0.0,0.0,0.0,0.0,0.0,0.0,0.0,0.0,0.0,0.0,0.0,0.0,0.0,0.0,0.0,0.0,0.0,0.0,0.0,0.0,0.0,0.2755,0.2151,0.1884,0.1805,0.1847,0.0,0.0,0.0,0.0,0.0,0.0,0.0,0.0,0.0,0.0,0.0,0.0,0.0,0.0,0.0,0.0,0.0,0.0,0.0,0.0,0.0,0.0,0.0,0.0,0.0,0.0,0.0,0.0,0.0,0.0,0.0,0.0,0.0,0.0,0.0,0.0,0.0,0.0,0.0,0.0,0.0,0.0,0.0,0.0,0.0,0.0,0.0,0.0,0.0,0.0,0.0,0.0,0.0,0.0,0.0,0.0,0.0,0.0,0.0,0.0,0.0,0.0,0.0,0.0,0.0,0.0,0.0,0.0,0.0,0.0,0.0,0.0,0.0,0.0,0.0,0.0,0.0,0.0,0.0,0.0,0.0,0.0,0.0,0.0,0.0,0.0,0.0,0.0,0.0,0.0,0.0,0.0,0.0,0.0,0.0,0.0,0.0,0.0,0.0,0.0,0.0,0.0,0.0,0.0,0.0,0.0,0.0,0.0,0.0,0.0,0.0,0.0,0.1008,0.0871,0.0998,0.0,0.0,0.0,0.0,0.0,0.0,0.0,0.0,0.0,0.0,0.0,0.0,0.0,0.0,0.0,0.0,0.0,0.0,0.0,0.0,0.0,0.0,0.0,0.0,0.0,0.0,0.0,0.0,0.0,0.0,0.0,0.0,0.0,0.0,0.0,0.0,0.0,0.0,0.0,0.0,0.0,0.0,0.0,0.0,0.0,0.0,0.0,0.0,0.0,0.0,0.0,0.0,0.0,0.0,0.0,0.0,0.0,0.0,0.0,0.0,0.0,0.0,0.0,0.0,0.0,0.0,0.0,0.0,0.0,0.0,0.0,0.0,0.0,0.0,0.0,0.0,0.0,0.0,0.0,0.0,0.0,0.0,0.0,0.0,0.0,0.0,0.0,0.0,0.0,0.0,0.0,0.0,0.0,0.0,0.0,0.0,0.0,0.0,0.0,0.0,0.0,0.0,0.0,0.0,0.0,0.0,0.0,0.0,0.0,0.0,0.1475,0.0469,-0.0268,0.0,-0.0194,0.0,0.0,0.0,0.0,0.0,0.0,0.0,0.0,0.0,0.0,0.0,0.0,0.0,0.0,0.0,0.0,0.0,0.0,0.0,0.0,0.0,0.0,0.0,0.0,0.0,0.0,0.0,0.0,0.0,0.0,0.0,0.0,0.0,0.0,0.0,0.0,0.0,0.0,0.0,0.0,0.0,0.0,0.0,0.0,0.0,0.0,0.0,0.0,0.0,0.0,0.0,0.0,0.0,0.0,0.0,0.0,0.0,0.0,0.0,0.0,0.0,0.0,0.0,0.0,0.0,0.0,0.0,0.0,0.0,0.0,0.0,0.0,0.0,0.0,0.0,0.0,0.0,0.0,0.0,0.0,0.0,0.0,0.0,0.0,0.0,0.0,0.0,0.0,0.0,0.0,0.0,0.0,0.0,0.0,0.0,0.0,0.0,0.0,0.0,0.0,0.0,0.0,0.0,0.0,0.0,0.0,0.0,0.0,0.0,0.0,0.02,-0.1466,-0.2463,-0.2783,0.0,0.0,0.0,0.0,0.0,0.0,0.0,0.0,0.0,0.0,0.0,0.0,0.0,0.0,0.0,0.0,0.0,0.0,0.0,0.0,0.0,0.0,0.0,0.0,0.0,0.0,0.0,0.0,0.0,0.0,0.0,0.0,0.0,0.0,0.0,0.0,0.0,0.0,0.0,0.0,0.0,0.0,0.0,0.0,0.0,0.0,0.0,0.0,0.0,0.0,0.0,0.0,0.0,0.0,0.0,0.0,0.0,0.0,0.0,0.0,0.0,0.0,0.0,0.0,0.0,0.0,0.0,0.0,0.0,0.0,0.0,0.0,0.0,0.0,0.0,0.0,0.0,0.0,0.0,0.0,0.0,0.0,0.0,0.0,0.0,0.0,0.0,0.0,0.0,0.0,0.0,0.0,0.0,0.0,0.0,0.0,0.0,0.0,0.0,0.0,0.0,0.0,0.0,0.0,0.0,0.0,0.0,0.0,0.0,0.0,0.0067,-0.1985,-0.4347,-0.5459,-0.5658,-0.4872,0.0,0.0,0.0,0.0,0.0,0.0,0.0,0.0,0.0,0.0,0.0,0.0,0.0,0.0,0.0,0.0,0.0,0.0,0.0,0.0,0.0,0.0,0.0,0.0,0.0,0.0,0.0,0.0,0.0,0.0,0.0,0.0,0.0,0.0,0.0,0.0,0.0,0.0,0.0,0.0,0.0,0.0,0.0,0.0,0.0,0.0,0.0,0.0,0.0,0.0,0.0,0.0,0.0,0.0,0.0,0.0,0.0,0.0,0.0,0.0,0.0,0.0,0.0,0.0,0.0,0.0,0.0,0.0,0.0,0.0,0.0,0.0,0.0,0.0,0.0,0.0,0.0,0.0,0.0,0.0,0.0,0.0,0.0,0.0,0.0,0.0,0.0,0.0,0.0,0.0,0.0,0.0,0.0,0.0,0.0,0.0,0.0,0.0,0.0,0.0,0.0,0.0,0.0,0.0,0.0,0.0,0.0,0.0,0.0865,-0.2113,-0.5305,-0.8691,-0.9313,-0.9182,0.0,0.0,0.0,0.0,0.0,0.0,0.0,0.0,0.0,0.0,0.0,0.0,0.0,0.0,0.0,0.0,0.0,0.0,0.0,0.0,0.0,0.0,0.0,0.0,0.0,0.0,0.0,0.0,0.0,0.0,0.0,0.0,0.0,0.0,0.0,0.0,0.0,0.0,0.0,0.0,0.0,0.0,0.0,0.0,0.0,0.0,0.0,0.0,0.0,0.0,0.0,0.0,0.0,0.0,0.0,0.0,0.0,0.0,0.0,0.0,0.0,0.0,0.0,0.0,0.0,0.0,0.0,0.0,0.0,0.0,0.0,0.0,0.0,0.0,0.0,0.0,0.0,0.0,0.0,0.0,0.0,0.0,0.0,0.0,0.0,0.0,0.0,0.0,0.0,0.0,0.0,0.0,0.0,0.0,0.0,0.0,0.0,0.0,0.0,0.0,0.0,0.0,0.0,0.0,0.0,0.0,0.0,0.0,0.0,-0.0459,-0.6107,-1.0421,-1.3012,-1.3615,-1.3385,0.0,0.0,0.0,0.0,0.0,0.0,0.0,0.0,0.0,0.0,0.0,0.0,0.0,0.0,0.0,0.0,0.0,0.0,0.0,0.0,0.0,0.0,0.0,0.0,0.0,0.0,0.0,0.0,0.0,0.0,0.0,0.0,0.0,0.0,0.0,0.0,0.0,0.0,0.0,0.0,0.0,0.0,0.0,0.0,0.0,0.0,0.0,0.0,0.0,0.0,0.0,0.0,0.0,0.0,0.0,0.0,0.0,0.0,0.0,0.0,0.0,0.0,0.0,0.0,0.0,0.0,0.0,0.0,0.0,0.0,0.0,0.0,0.0,0.0,0.0,0.0,0.0,0.0,0.0,0.0,0.0,0.0,0.0,0.0,0.0,0.0,0.0,0.0,0.0,0.0,0.0,0.0,0.0,0.0,0.0,0.0,0.0,0.0,0.0,0.0,0.0,0.0,0.0,0.0,0.0,0.0,0.0,0.0,0.0,-0.4033,0.0,-1.4824,-1.7393,-1.7929,-1.7623,0.0,0.0,0.0,0.0,0.0,0.0,0.0,0.0,0.0,0.0,0.0,0.0,0.0,0.0,0.0,0.0,0.0,0.0,0.0,0.0,0.0,0.0,0.0,0.0,0.0,0.0,0.0,0.0,0.0,0.0,0.0,0.0,0.0,0.0,0.0,0.0,0.0,0.0,0.0,0.0,0.0,0.0,0.0,0.0,0.0,0.0,0.0,0.0,0.0,0.0,0.0,0.0,0.0,0.0,0.0,0.0,0.0,0.0,0.0,0.0,0.0,0.0,0.0,0.0,0.0,0.0,0.0,0.0,0.0,0.0,0.0,0.0,0.0,0.0,0.0,0.0,0.0,0.0,0.0,0.0,0.0,0.0,0.0,0.0,0.0,0.0,0.0,0.0,0.0,0.0,0.0,0.0,0.0,0.0,0.0,0.0,0.0,0.0,0.0,0.0,0.0,0.0,0.0,0.0,0.0,0.0,0.0,0.0,0.1469,-1.0048,-1.4389,-1.81,-2.185,-2.2173,-2.1796,0.0,0.0,0.0,0.0,0.0,0.0,0.0,0.0,0.0,0.0,0.0,0.0,0.0,0.0,0.0,0.0,0.0,0.0,0.0,0.0,0.0,0.0,0.0,0.0,0.0,0.0,0.0,0.0,0.0,0.0,0.0,0.0,0.0,0.0,0.0,0.0,0.0,0.0,0.0,0.0,0.0,0.0,0.0,0.0,0.0,0.0,0.0,0.0,0.0,0.0,0.0,0.0,0.0,0.0,0.0,0.0,0.0,0.0,0.0,0.0,0.0,0.0,0.0,0.0,0.0,0.0,0.0,0.0,0.0,0.0,0.0,0.0,0.0,0.0,0.0,0.0,0.0,0.0,0.0,0.0,0.0,0.0,0.0,0.0,0.0,0.0,0.0,0.0,0.0,0.0,0.0,0.0,0.0,0.0,0.0,0.0,0.0,0.0,0.0,0.0,0.0,0.0,0.0,0.0,0.0,0.0,0.0,0.0,0.0,-0.7432,-1.1861,-1.7576,-2.4743,-2.5373,-2.5079,0.0,0.0,0.0,0.0,0.0,0.0,0.0,0.0,0.0,0.0,0.0,0.0,0.0,0.0,0.0,0.0,0.0,0.0,0.0,0.0,0.0,0.0,0.0,0.0,0.0,0.0,0.0,0.0,0.0,0.0,0.0,0.0,0.0,0.0,0.0,0.0,0.0,0.0,0.0,0.0,0.0,0.0,0.0,0.0,0.0,0.0,0.0,0.0,0.0,0.0,0.0,0.0,0.0,0.0,0.0,0.0,0.0,0.0,0.0,0.0,0.0,0.0,0.0,0.0,0.0,0.0,0.0,0.0,0.0,0.0,0.0,0.0,0.0,0.0,0.0,0.0,0.0,0.0,0.0,0.0,0.0,0.0,0.0,0.0,0.0,0.0,0.0,0.0,0.0,0.0,0.0,0.0,0.0,0.0,0.0,0.0,0.0,0.0,0.0,0.0,0.0,0.0,0.0,0.0,0.0,0.0,0.0,0.0,0.0,-0.2963,-0.9987,-1.7916,-2.707,-2.7941,-2.8027,-2.7403,0.0,0.0,0.0,0.0,0.0,0.0,0.0,0.0,0.0,0.0,0.0,0.0,0.0,0.0,0.0,0.0,0.0,0.0,0.0,0.0,0.0,0.0,0.0,0.0,0.0,0.0,0.0,0.0,0.0,0.0,0.0,0.0,0.0,0.0,0.0,0.0,0.0,0.0,0.0,0.0,0.0,0.0,0.0,0.0,0.0,0.0,0.0,0.0,0.0,0.0,0.0,0.0,0.0,0.0,0.0,0.0,0.0,0.0,0.0,0.0,0.0,0.0,0.0,0.0,0.0,0.0,0.0,0.0,0.0,0.0,0.0,0.0,0.0,0.0,0.0,0.0,0.0,0.0,0.0,0.0,0.0,0.0,0.0,0.0,0.0,0.0,0.0,0.0,0.0,0.0,0.0,0.0,0.0,0.0,0.0,0.0,0.0,0.0,0.0,0.0,0.0,0.0,0.0,0.0,0.0,0.0,0.0,0.0,0.2335,-0.8681,-1.882,-2.8095,-2.9935,-3.0607,0.0,0.0,0.0,0.0,0.0,0.0,0.0,0.0,0.0,0.0,0.0,0.0,0.0,0.0,0.0,0.0,0.0,0.0,0.0,0.0,0.0,0.0,0.0,0.0,0.0,0.0,0.0,0.0,0.0,0.0,0.0,0.0,0.0,0.0,0.0,0.0,0.0,0.0,0.0,0.0,0.0,0.0,0.0,0.0,0.0,0.0,0.0,0.0,0.0,0.0,0.0,0.0,0.0,0.0,0.0,0.0,0.0,0.0,0.0,0.0,0.0,0.0,0.0,0.0,0.0,0.0,0.0,0.0,0.0,0.0,0.0,0.0,0.0,0.0,0.0,0.0,0.0,0.0,0.0,0.0,0.0,0.0,0.0,0.0,0.0,0.0,0.0,0.0,0.0,0.0,0.0,0.0,0.0,0.0,0.0,0.0,0.0,0.0,0.0,0.0,0.0,0.0,0.0,0.0,0.0,0.0,0.0,0.0,0.0,0.4126,-0.5505,-1.617,-2.7966,-3.0894,-3.1836,0.0,0.0,0.0,0.0,0.0,0.0,0.0,0.0,0.0,0.0,0.0,0.0,0.0,0.0,0.0,0.0,0.0,0.0,0.0,0.0,0.0,0.0,0.0,0.0,0.0,0.0,0.0,0.0,0.0,0.0,0.0,0.0,0.0,0.0,0.0,0.0,0.0,0.0,0.0,0.0,0.0,0.0,0.0,0.0,0.0,0.0,0.0,0.0,0.0,0.0,0.0,0.0,0.0,0.0,0.0,0.0,0.0,0.0,0.0,0.0,0.0,0.0,0.0,0.0,0.0,0.0,0.0,0.0,0.0,0.0,0.0,0.0,0.0,0.0,0.0,0.0,0.0,0.0,0.0,0.0,0.0,0.0,0.0,0.0,0.0,0.0,0.0,0.0,0.0,0.0,0.0,0.0,0.0,0.0,0.0,0.0,0.0,0.0,0.0,0.0,0.0,0.0,0.0,0.0,0.0,0.0,0.0,0.0,1.5524,0.4095,-0.5376,-1.5976,-2.7807,-3.1328,-3.2797,0.0,0.0,0.0,0.0,0.0,0.0,0.0,0.0,0.0,0.0,0.0,0.0,0.0,0.0,0.0,0.0,0.0,0.0,0.0,0.0,0.0,0.0,0.0,0.0,0.0,0.0,0.0,0.0,0.0,0.0,0.0,0.0,0.0,0.0,0.0,0.0,0.0,0.0,0.0,0.0,0.0,0.0,0.0,0.0,0.0,0.0,0.0,0.0,0.0,0.0,0.0,0.0,0.0,0.0,0.0,0.0,0.0,0.0,0.0,0.0,0.0,0.0,0.0,0.0,0.0,0.0,0.0,0.0,0.0,0.0,0.0,0.0,0.0,0.0,0.0,0.0,0.0,0.0,0.0,0.0,0.0,0.0,0.0,0.0,0.0,0.0,0.0,0.0,0.0,0.0,0.0,0.0,0.0,0.0,0.0,0.0,0.0,0.0,0.0,0.0,0.0,0.0,0.0,0.0,0.0,0.0,0.0,0.0,1.3554,0.287,-0.7304,-1.7398,-2.7229,-3.1582,-3.3474,0.0,0.0,0.0,0.0,0.0,0.0,0.0,0.0,0.0,0.0,0.0,0.0,0.0,0.0,0.0,0.0,0.0,0.0,0.0,0.0,0.0,0.0,0.0,0.0,0.0,0.0,0.0,0.0,0.0,0.0,0.0,0.0,0.0,0.0,0.0,0.0,0.0,0.0,0.0,0.0,0.0,0.0,0.0,0.0,0.0,0.0,0.0,0.0,0.0,0.0,0.0,0.0,0.0,0.0,0.0,0.0,0.0,0.0,0.0,0.0,0.0,0.0,0.0,0.0,0.0,0.0,0.0,0.0,0.0,0.0,0.0,0.0,0.0,0.0,0.0,0.0,0.0,0.0,0.0,0.0,0.0,0.0,0.0,0.0,0.0,0.0,0.0,0.0,0.0,0.0,0.0,0.0,0.0,0.0,0.0,0.0,0.0,0.0,0.0,0.0,0.0,0.0,0.0,0.0,0.0,0.0,0.0,0.0,1.0641,0.0417,-0.9701,-1.9304,-2.8279,-3.2324,-3.3933,0.0,0.0,0.0,0.0,0.0,0.0,0.0,0.0,0.0,0.0,0.0,0.0,0.0,0.0,0.0,0.0,0.0,0.0,0.0,0.0,0.0,0.0,0.0,0.0,0.0,0.0,0.0,0.0,0.0,0.0,0.0,0.0,0.0,0.0,0.0,0.0,0.0,0.0,0.0,0.0,0.0,0.0,0.0,0.0,0.0,0.0,0.0,0.0,-3.3087,0.0,0.0,0.0,0.0,0.0,0.0,0.0,0.0,0.0,0.0,0.0,0.0,0.0,0.0,0.0,0.0,0.0,0.0,0.0,0.0,0.0,0.0,0.0,0.0,0.0,0.0,0.0,0.0,0.0,0.0,0.0,0.0,0.0,0.0,0.0,0.0,0.0,0.0,0.0,0.0,0.0,0.0,0.0,0.0,0.0,0.0,0.0,0.0,0.0,0.0,0.0,0.0,0.0,0.0,0.0,0.0,0.0,0.0,0.0,0.7151,-0.2422,-1.2207,-2.1133,-2.8935,-3.2299,-3.358,0.0,0.0,0.0,0.0,0.0,0.0,0.0,0.0,0.0,0.0,0.0,0.0,0.0,0.0,0.0,0.0,0.0,0.0,0.0,0.0,0.0,0.0,0.0,0.0,0.0,0.0,0.0,0.0,0.0,0.0,0.0,0.0,0.0,0.0,0.0,0.0,0.0,0.0,0.0,0.0,0.0,0.0,0.0,0.0,0.0,0.0,0.0,0.0,0.0,0.0,0.0,0.0,0.0,0.0,0.0,0.0,0.0,0.0,0.0,0.0,0.0,0.0,0.0,0.0,0.0,0.0,0.0,0.0,0.0,0.0,0.0,0.0,0.0,0.0,0.0,0.0,0.0,0.0,0.0,0.0,0.0,0.0,0.0,0.0,0.0,0.0,0.0,0.0,0.0,0.0,0.0,0.0,0.0,0.0,0.0,0.0,0.0,0.0,0.0,0.0,0.0,0.0,0.0,0.0,0.0,0.0,0.0,1.2147,0.3708,-0.5213,-1.4665,-2.2797,-2.9515,-3.1869,-3.2845,-3.2508,0.0,0.0,0.0,0.0,0.0,0.0,0.0,0.0,0.0,0.0,0.0,0.0,0.0,0.0,0.0,0.0,0.0,0.0,0.0,0.0,0.0,0.0,0.0,0.0,0.0,0.0,0.0,0.0,0.0,0.0,0.0,0.0,0.0,0.0,0.0,0.0,0.0,0.0,-2.9189,-3.0993,0.0,0.0,0.0,0.0,0.0,0.0,0.0,0.0,-3.6799,0.0,0.0,0.0,0.0,0.0,0.0,0.0,0.0,0.0,0.0,0.0,0.0,0.0,0.0,0.0,0.0,0.0,0.0,0.0,0.0,0.0,0.0,0.0,0.0,0.0,0.0,0.0,0.0,0.0,0.0,0.0,0.0,0.0,0.0,0.0,0.0,0.0,0.0,0.0,0.0,0.0,0.0,0.0,0.0,0.0,0.0,0.0,0.0,0.0,0.0,0.0,0.0,0.0,0.0,0.0,0.0,1.7599,0.947,0.1178,-0.7282,-1.6643,-2.4058,-2.9249,-3.1191,-3.1939,-3.1592,0.0,0.0,0.0,0.0,0.0,0.0,0.0,0.0,0.0,0.0,0.0,0.0,0.0,0.0,0.0,0.0,0.0,0.0,0.0,0.0,0.0,0.0,0.0,0.0,0.0,0.0,0.0,0.0,0.0,0.0,0.0,0.0,0.0,0.0,0.0,0.0,0.0,0.0,0.0,-3.2223,-3.391,0.0,0.0,0.0,0.0,0.0,0.0,0.0,0.0,-3.7403,0.0,0.0,0.0,0.0,0.0,0.0,0.0,0.0,0.0,0.0,0.0,0.0,0.0,0.0,0.0,0.0,0.0,0.0,0.0,0.0,0.0,0.0,0.0,0.0,0.0,0.0,0.0,0.0,0.0,0.0,0.0,0.0,0.0,0.0,0.0,0.0,0.0,0.0,0.0,0.0,0.0,0.0,0.0,0.0,0.0,0.0,0.0,0.0,0.0,0.0,0.0,0.0,0.0,0.0,0.0,1.3885,0.6,-0.2162,-1.0376,-1.8731,-2.5157,-2.9528,-3.0742,-3.1261,0.0,0.0,0.0,0.0,0.0,0.0,0.0,0.0,0.0,0.0,0.0,0.0,0.0,0.0,0.0,0.0,0.0,0.0,0.0,0.0,0.0,0.0,0.0,0.0,0.0,0.0,0.0,0.0,0.0,0.0,0.0,0.0,0.0,0.0,0.0,0.0,0.0,0.0,0.0,0.0,-3.3105,-3.4605,-3.5304,0.0,0.0,0.0,0.0,0.0,0.0,-3.8115,-3.8232,0.0,0.0,0.0,0.0,0.0,0.0,0.0,0.0,0.0,0.0,0.0,0.0,0.0,0.0,0.0,0.0,0.0,0.0,0.0,0.0,0.0,0.0,0.0,0.0,0.0,0.0,0.0,0.0,0.0,0.0,0.0,0.0,0.0,0.0,0.0,0.0,0.0,0.0,0.0,0.0,0.0,0.0,0.0,0.0,0.0,0.0,0.0,0.0,0.0,0.0,0.0,0.0,0.0,0.0,0.0,1.053,0.2743,-0.5234,-1.3293,-2.0529,-2.6017,-2.9605,-3.0197,-3.0622,0.0,0.0,0.0,0.0,0.0,0.0,0.0,0.0,0.0,0.0,0.0,0.0,0.0,0.0,0.0,0.0,0.0,0.0,0.0,0.0,0.0,0.0,0.0,0.0,0.0,0.0,0.0,0.0,0.0,0.0,0.0,0.0,0.0,0.0,0.0,0.0,0.0,0.0,0.0,0.0,0.0,-3.5068,-3.5824,-3.6633,0.0,0.0,0.0,0.0,-3.8526,-3.875,0.0,0.0,0.0,0.0,0.0,0.0,0.0,0.0,0.0,0.0,0.0,0.0,0.0,0.0,0.0,0.0,0.0,0.0,0.0,0.0,0.0,0.0,0.0,0.0,0.0,0.0,0.0,0.0,0.0,0.0,0.0,0.0,0.0,0.0,0.0,0.0,0.0,0.0,0.0,0.0,0.0,0.0,0.0,0.0,0.0,0.0,0.0,0.0,0.0,0.0,0.0,0.0,0.0,0.0,0.0,0.0,0.8072,0.0489,-0.7265,-1.5037,-2.1756,-2.6402,-2.8785,-2.936,-2.9777,0.0,0.0,0.0,0.0,0.0,0.0,0.0,0.0,0.0,0.0,0.0,0.0,0.0,0.0,0.0,0.0,0.0,0.0,0.0,0.0,0.0,0.0,0.0,0.0,0.0,0.0,0.0,0.0,0.0,0.0,0.0,0.0,0.0,0.0,0.0,0.0,0.0,0.0,0.0,0.0,0.0,-3.5528,-3.6629,-3.7267,-3.7859,0.0,0.0,-3.9003,-3.9115,-3.9193,0.0,0.0,0.0,0.0,0.0,0.0,0.0,0.0,0.0,0.0,0.0,0.0,0.0,0.0,0.0,0.0,0.0,0.0,0.0,0.0,0.0,0.0,0.0,0.0,0.0,0.0,0.0,0.0,0.0,0.0,0.0,0.0,0.0,0.0,0.0,0.0,0.0,0.0,0.0,0.0,0.0,0.0,0.0,0.0,0.0,0.0,0.0,0.0,0.0,0.0,0.0,0.0,0.0,0.0,0.0,1.0119,0.3949,-0.3587,-1.1059,-1.8262,-2.3651,-2.714,-2.8779,-2.927,-2.9608,0.0,0.0,0.0,0.0,0.0,0.0,0.0,0.0,0.0,0.0,0.0,0.0,0.0,0.0,0.0,0.0,0.0,0.0,0.0,0.0,0.0,0.0,0.0,0.0,0.0,0.0,0.0,0.0,0.0,0.0,0.0,0.0,0.0,0.0,0.0,0.0,0.0,0.0,0.0,0.0,0.0,0.0,-3.69,-3.7656,0.0,0.0,0.0,-3.8855,-3.8796,0.0,0.0,0.0,0.0,0.0,0.0,0.0,0.0,0.0,0.0,0.0,0.0,0.0,0.0,0.0,0.0,0.0,0.0,0.0,0.0,0.0,0.0,0.0,0.0,0.0,0.0,0.0,0.0,0.0,0.0,0.0,0.0,0.0,0.0,0.0,0.0,0.0,0.0,0.0,0.0,0.0,0.0,0.0,0.0,0.0,0.0,0.0,0.0,0.0,0.0,0.0,0.0,0.0,0.0,0.0,0.0,0.0,-0.0056,-0.7574,-1.4684,-2.1256,-2.5346,-2.7897,-2.8887,-2.931,0.0,0.0,0.0,0.0,0.0,0.0,0.0,0.0,0.0,0.0,0.0,0.0,0.0,0.0,0.0,0.0,0.0,0.0,0.0,0.0,0.0,0.0,0.0,0.0,0.0,0.0,0.0,-2.4672,0.0,0.0,0.0,0.0,0.0,0.0,0.0,0.0,0.0,0.0,0.0,0.0,0.0,0.0,-3.615,-3.6834,-3.7842,-3.8543,0.0,0.0,-3.8864,-3.8746,-3.8642,-3.859,0.0,0.0,0.0,0.0,0.0,0.0,0.0,0.0,0.0,0.0,0.0,0.0,0.0,0.0,0.0,0.0,0.0,0.0,0.0,0.0,0.0,0.0,0.0,0.0,0.0,0.0,0.0,0.0,0.0,0.0,0.0,0.0,0.0,0.0,0.0,0.0,0.0,0.0,0.0,0.0,0.0,0.0,0.0,0.0,0.0,0.0,0.0,0.0,0.0,0.0,0.0,0.0,0.0,0.0,0.0,-0.3337,-1.064,-1.737,-2.3321,-2.6593,-2.8453,-2.898,-2.9372,-2.9645,0.0,0.0,0.0,0.0,0.0,0.0,0.0,0.0,0.0,0.0,0.0,0.0,0.0,0.0,0.0,0.0,0.0,0.0,0.0,0.0,0.0,0.0,0.0,0.0,0.0,0.0,0.0,0.0,0.0,0.0,0.0,0.0,0.0,0.0,0.0,0.0,0.0,0.0,0.0,0.0,0.0,-3.5795,-3.6448,-3.7918,-3.8905,0.0,0.0,-3.9622,-3.9372,-3.9234,-3.9112,-3.8977,0.0,0.0,0.0,0.0,0.0,0.0,0.0,0.0,0.0,0.0,0.0,0.0,0.0,0.0,0.0,0.0,0.0,0.0,0.0,0.0,0.0,0.0,0.0,0.0,0.0,0.0,0.0,0.0,0.0,0.0,0.0,0.0,0.0,0.0,0.0,0.0,0.0,0.0,0.0,0.0,0.0,0.0,0.0,0.0,0.0,0.0,0.0,0.0,0.0,0.0,0.0,0.0,0.0,-0.0172,-0.7274,-1.4504,-2.0721,-2.5713,-2.7727,-2.8821,-2.9134,-2.9392,-2.9608,0.0,0.0,0.0,0.0,0.0,0.0,0.0,0.0,0.0,0.0,0.0,0.0,0.0,0.0,0.0,0.0,0.0,0.0,0.0,0.0,0.0,0.0,0.0,0.0,0.0,0.0,0.0,0.0,-2.041,-2.4122,-2.8818,0.0,0.0,0.0,0.0,0.0,0.0,0.0,0.0,0.0,0.0,-3.6168,-3.6769,-3.7686,0.0,0.0,-3.8388,-3.8642,-3.8298,-3.8054,-3.7853,-3.7742,-3.7317,0.0,0.0,0.0,0.0,0.0,0.0,0.0,0.0,0.0,0.0,0.0,0.0,0.0,0.0,0.0,0.0,0.0,0.0,0.0,0.0,0.0,0.0,0.0,0.0,0.0,0.0,0.0,0.0,0.0,0.0,0.0,0.0,0.0,0.0,0.0,0.0,0.0,0.0,0.0,0.0,0.0,0.0,0.0,0.0,0.0,0.0,0.0,0.0,0.0,0.0,0.0,0.0,-0.3705,-1.0864,-1.7821,-2.3423,-2.7525,-2.8511,-2.9048,-2.92,-2.9431,-2.9626,0.0,0.0,0.0,0.0,0.0,0.0,0.0,0.0,0.0,0.0,0.0,0.0,0.0,0.0,0.0,0.0,0.0,0.0,0.0,0.0,0.0,0.0,0.0,0.0,0.0,0.0,0.0,0.0,-1.8176,-2.3912,-2.9787,0.0,0.0,0.0,0.0,0.0,0.0,0.0,0.0,0.0,0.0,-3.6148,-3.687,-3.7411,-3.7644,-3.7536,-3.7838,-3.7936,-3.7466,-3.7192,-3.6947,-3.6771,0.0,0.0,0.0,0.0,0.0,0.0,0.0,0.0,0.0,0.0,0.0,0.0,0.0,0.0,0.0,0.0,0.0,0.0,0.0,0.0,0.0,0.0,0.0,0.0,0.0,0.0,0.0,0.0,0.0,0.0,1.3624,0.0,0.0,0.0,0.0,0.0,0.0,0.0,0.0,0.0,0.0,0.0,0.0,0.0,0.0,0.0,0.0,0.0,0.0,0.0,0.0,0.0,0.0,-0.6676,-1.3834,-2.0337,-2.5129,-2.8192,-2.8874,-2.924,-2.9302,-2.949,-2.9664,-2.9789,0.0,0.0,0.0,0.0,0.0,0.0,0.0,0.0,0.0,0.0,0.0,0.0,0.0,0.0,0.0,0.0,0.0,0.0,0.0,0.0,0.0,0.0,0.0,0.0,0.0,0.0,-0.8997,-1.7798,-2.5299,0.0,0.0,0.0,0.0,0.0,0.0,0.0,0.0,0.0,0.0,-3.5004,-3.557,-3.6548,-3.7148,-3.7484,-3.7642,-3.7921,-3.7971,-3.7261,-3.6971,-3.6689,0.0,0.0,0.0,0.0,0.0,0.0,0.0,0.0,0.0,0.0,0.0,0.0,0.0,0.0,0.0,0.0,0.0,0.0,0.0,0.0,0.0,0.0,0.0,0.0,0.0,0.0,0.0,1.2912,1.2879,0.0,0.0,0.0,0.0,0.0,0.0,0.0,0.0,0.0,0.0,0.0,1.207,1.1626,0.0,0.0,0.0,0.0,0.0,0.0,0.0,0.0,0.0,0.0,0.0,0.0,-0.9336,-1.6502,-2.2362,-2.6485,-2.8742,-2.9119,-2.931,-2.9351,-2.9511,-2.97,-2.9918,0.0,0.0,0.0,0.0,0.0,0.0,0.0,0.0,0.0,0.0,0.0,0.0,0.0,0.0,0.0,0.0,0.0,0.0,0.0,0.0,0.0,0.0,0.0,0.0,0.0,-0.301,0.0,0.0,0.0,0.0,0.0,0.0,0.0,0.0,0.0,0.0,0.0,-3.414,-3.3743,-3.4292,-3.4855,-3.5251,-3.5782,-3.6142,0.0,0.0,0.0,0.0,0.0,0.0,0.0,0.0,0.0,0.0,0.0,0.0,0.0,0.0,-3.1942,-3.2849,-3.2806,-3.2422,-3.1711,0.0,0.0,0.0,0.0,0.0,0.0,0.0,0.0,0.0,0.0,0.0,0.0,0.0,0.0,1.2346,0.0,1.2305,0.0,0.0,0.0,0.0,0.0,0.0,0.0,0.0,1.1248,1.0881,1.0651,1.0357,1.0051,0.0,0.9523,0.9527,0.0,0.0,0.0,0.0,0.0,0.0,0.0,0.0,-1.1361,-1.807,-2.3541,-2.6932,-2.8224,-2.8734,-2.8964,-2.9003,-2.9401,-2.9753,-2.9992,-3.0182,-3.0348,0.0,0.0,0.0,0.0,0.0,0.0,0.0,0.0,0.0,0.0,0.0,0.0,0.0,0.0,0.0,0.0,0.0,0.0,0.0,0.0,0.0,0.0,0.0,-0.3406,0.0,0.0,0.0,0.0,0.0,0.0,0.0,0.0,0.0,-3.1358,-3.2458,-3.2831,-3.2028,-3.2745,-3.3423,-3.3654,0.0,0.0,0.0,0.0,0.0,0.0,0.0,-3.3768,-3.3561,-3.3367,-3.3073,-3.2721,-3.1253,-3.0334,-3.1039,0.0,0.0,-3.1312,-3.1293,-3.0926,-3.0229,-2.9615,-2.8921,-2.8014,-2.7278,-2.6656,0.0,0.0,0.0,0.0,0.0,0.0,0.0,0.0,1.1053,1.1047,0.0,1.1004,0.0,0.0,0.0,0.0,0.0,1.064,0.0,0.0,0.982,0.9448,0.9226,0.9074,0.8689,0.838,0.8371,0.8291,0.8376,0.9502,0.0,0.0,0.0,0.0,0.0,0.0,-1.2705,-1.874,-2.3784,-2.653,-2.6856,-2.781,-2.8315,-2.8314,-2.9214,-2.9786,-2.9977,-3.0174,-3.033,-3.0386,-3.0386,0.0,0.0,0.0,0.0,0.0,0.0,0.0,0.0,0.0,0.0,0.0,0.0,0.0,0.0,0.0,0.0,0.0,0.0,0.0,0.0,-0.3422,0.0,0.0,0.0,0.0,0.0,0.0,0.0,0.0,0.0,0.0,-2.9122,-3.0072,-3.0281,-2.9574,0.0,0.0,0.0,0.0,-3.2698,-3.3209,-3.3378,-3.3296,-3.2975,-3.255,-3.2263,-3.2046,0.0,0.0,-3.1563,-3.0651,-3.0035,-3.0253,-2.9872,-2.958,-2.9557,-2.9399,-2.906,-2.8477,-2.775,-2.7055,-2.6635,-2.6186,-2.5703,0.6331,0.0,0.0,0.0,0.0,1.0089,1.0174,1.0008,1.0003,0.9921,0.9771,0.9806,0.0,0.0,0.0,0.0,0.0,0.0,0.916,0.8983,0.8385,0.8093,0.8016,0.7706,0.7399,0.7088,0.7044,0.6986,0.6986,0.7591,0.8608,0.9834,0.0,0.0,0.0,0.0,-1.2732,-1.907,-2.3647,-2.6222,-2.6935,-2.7867,-2.8652,-2.9195,-2.9476,-2.9699,-2.9851,-2.9992,-3.0128,-3.0267,-3.0203,0.0,0.0,0.0,0.0,0.0,0.0,0.0,0.0,0.0,0.0,0.0,0.0,0.0,0.0,0.0,0.0,0.0,0.0,0.0,-0.3188,-0.4665,-0.6751,0.0,0.0,0.0,0.0,0.0,0.0,0.0,0.0,0.0,-2.343,-2.5716,-2.714,0.0,0.0,-2.8848,-2.9642,-3.0192,-3.0713,-3.1193,0.0,0.0,0.0,-3.0726,-3.0586,-3.0516,-3.0317,-2.9974,-2.96,-2.9052,-2.8598,-2.8437,-2.8113,-2.7815,-2.7557,-2.799,-2.8014,-2.7409,-2.6966,-2.6686,-2.6116,-2.584,-2.5709,0.4378,0.5883,0.7027,0.7826,0.836,0.8794,0.8882,0.8882,0.8882,0.8822,0.8614,0.8617,0.8603,0.864,0.8594,0.0,0.0,0.0,0.7855,0.7698,0.7169,0.6865,0.6703,0.6489,0.6159,0.5927,0.5787,0.5788,0.6005,0.6275,0.7176,0.8428,0.0,0.0,-0.0627,-0.6333,-1.2266,-1.8448,-2.2832,-2.5379,-2.6126,-2.7284,-2.8446,-2.9551,-2.9569,-2.9608,-2.9715,-2.9853,-2.9965,-3.0037,-2.9973,-2.9861,0.0,0.0,0.0,0.0,0.0,0.0,0.0,0.0,0.0,0.0,0.0,-2.7037,0.0,0.0,0.0,0.0,-0.9827,-0.7091,-0.5422,-0.659,0.0,0.0,0.0,0.0,0.0,0.0,0.0,-1.9483,-1.9915,-2.0062,-1.949,-2.1458,-2.3293,-2.4072,-2.5359,-2.6544,-2.7443,0.0,-2.9066,-2.9508,-2.9776,-2.995,-2.9894,-2.9754,-2.9684,-2.9697,-2.9455,-2.9269,-2.8859,-2.829,-2.79,-2.7717,-2.736,-2.6926,-2.6486,-2.6701,-2.6916,-2.6557,-2.6292,-2.6044,-2.5663,-2.5597,-2.5553,0.2959,0.3315,0.5092,0.6251,0.6959,0.7224,0.7482,0.7654,0.7643,0.7636,0.7614,0.7388,0.7327,0.755,0.7473,0.0,0.7069,0.693,0.6714,0.6483,0.6234,0.5915,0.5523,0.54,0.5193,0.4817,0.4697,0.4853,0.5206,0.5421,0.5956,0.6691,0.6827,0.4483,-0.038,-0.5791,-1.1305,-1.7061,-2.154,-2.4205,-2.5001,-2.6364,-2.7885,-2.9513,-2.9531,-2.9531,-2.9589,-2.9681,-2.9753,-2.9767,-2.9696,-2.9551,-2.9378,0.0,0.0,0.0,0.0,0.0,0.0,0.0,0.0,0.0,0.0,0.0,0.0,0.0,0.0,0.0,-0.9311,0.0,-0.7804,-0.8822,0.0,0.0,0.0,-1.4066,-1.5479,-1.6801,-1.7657,-1.762,0.0,0.0,-1.705,0.0,-1.9164,-2.1645,-2.3279,-2.4506,-2.531,-2.6619,-2.7615,-2.817,-2.8778,-2.9188,-2.928,-2.9114,-2.8978,-2.8978,-2.9144,-2.8859,-2.8544,-2.7931,-2.7526,-2.761,-2.7164,-2.6478,-2.5997,-2.5648,-2.5495,-2.5681,-2.5581,-2.5386,-2.5253,-2.5241,-2.5228,0.278,0.3045,0.3671,0.4474,0.5544,0.5983,0.616,0.6154,0.615,0.6109,0.6091,0.5988,0.6054,0.6352,0.6433,0.6388,0.623,0.6163,0.5938,0.5625,0.5296,0.5098,0.479,0.4607,0.4405,0.4254,0.4148,0.4164,0.4229,0.4665,0.5014,0.5363,0.5872,0.4437,0.0877,-0.4128,-0.9589,-1.5337,-1.9975,-2.3737,-2.6597,-2.6928,-2.783,-2.9474,-2.9414,-2.9375,-2.9453,-2.9434,-2.9435,-2.9493,-2.9318,-2.9114,-2.8888,-2.9834,0.0,0.0,0.0,0.0,0.0,0.0,0.0,0.0,0.0,-2.4651,-2.2439,0.0,-1.7197,0.0,-1.1243,-0.9476,-0.9145,-1.0157,0.0,0.0,-1.2107,-1.2614,-1.3279,-1.3866,-1.4302,-1.4712,-1.5113,-1.5513,-1.5693,-1.6635,-1.7769,-1.919,-2.13,-2.3084,-2.436,-2.5396,-2.6362,-2.6972,-2.7498,-2.7819,-2.7915,-2.7629,-2.7327,-2.7288,-2.6974,-2.6544,-2.6258,-2.6023,-2.5747,-2.544,-2.5252,-2.4921,-2.4657,-2.4437,-2.4294,-2.4186,-2.4555,-2.4954,-2.5051,-2.4849,-2.4767,0.2676,0.2741,0.3181,0.369,0.4357,0.4879,0.5161,0.529,0.5318,0.5266,0.5204,0.5189,0.5357,0.5476,0.5705,0.578,0.5619,0.5564,0.5357,0.5005,0.4787,0.453,0.423,0.4054,0.3864,0.379,0.3622,0.3619,0.371,0.4048,0.4405,0.4718,0.5275,0.4215,0.1573,-0.3335,-0.8674,-1.4457,-2.0173,-2.4464,-2.714,-2.7133,-2.783,-2.9399,-2.9372,-2.931,-2.931,-2.9206,-2.9144,-2.9138,-2.8943,-2.8694,-2.842,-2.9169,-2.939,0.0,0.0,0.0,0.0,0.0,0.0,0.0,0.0,0.0,0.0,0.0,-1.6725,-1.4109,-1.2478,-1.1452,-1.1193,-1.1816,-1.233,-1.2782,-1.2961,-1.3146,-1.3519,-1.371,-1.4031,-1.4443,-1.4824,-1.5289,-1.5835,-1.6607,-1.7521,-1.8554,-2.0186,-2.1816,-2.3052,-2.4119,-2.5025,-2.5766,-2.6176,-2.6505,-2.6713,-2.6504,-2.6295,-2.6255,-2.5892,-2.5482,-2.5421,-2.5167,-2.4938,-2.4782,-2.4613,-2.4471,-2.4275,-2.4144,-2.4001,-2.3941,-2.4206,-2.4626,-2.4816,-2.4662,-2.4481,0.2815,0.2596,0.32,0.3422,0.3455,0.4023,0.4397,0.4755,0.4744,0.4678,0.4573,0.473,0.4862,0.4905,0.514,0.5226,0.5154,0.5095,0.4885,0.4549,0.4406,0.4123,0.3761,0.3664,0.3544,0.3395,0.3248,0.3228,0.3398,0.3648,0.3966,0.44,0.4699,0.3835,0.1676,-0.3179,-0.8722,-1.4878,-2.1325,-2.5531,-2.7229,-2.7169,-2.7848,-2.9399,-2.9368,-2.924,-2.9197,-2.9026,-2.891,-2.8749,-2.8525,-2.8291,-2.7943,-2.8312,-2.8266,0.0,-2.8165,0.0,0.0,0.0,0.0,0.0,0.0,0.0,0.0,-1.8083,-1.6009,-1.3848,-1.3339,-1.3193,-1.3339,-1.3411,-1.3601,-1.4022,-1.4283,-1.4464,-1.4674,-1.4858,-1.5011,-1.5257,-1.537,-1.5718,-1.6205,-1.6885,-1.7578,-1.8428,-1.9394,-2.0461,-2.1677,-2.2893,-2.4008,-2.4705,-2.509,-2.5639,-2.5853,-2.5798,-2.5707,-2.5631,-2.5286,-2.5123,-2.5275,-2.477,-2.4431,-2.4633,-2.4268,-2.4014,-2.4114,-2.386,-2.3796,-2.3622,-2.3646,-2.3956,-2.446,-2.453,-2.4221,0.331,0.3128,0.3298,0.3458,0.3617,0.3813,0.3906,0.4141,0.4066,0.4061,0.3972,0.4193,0.4206,0.4112,0.4485,0.4609,0.4606,0.471,0.4569,0.4165,0.4047,0.3806,0.3451,0.3363,0.3213,0.3144,0.3124,0.3132,0.323,0.3416,0.3668,0.4027,0.4262,0.3074,0.0445,0.0,0.0,0.0,-2.2682,-2.5385,-2.721,-2.7115,-2.7811,-2.9418,-2.9328,0.0,-2.913,-2.8905,-2.8694,-2.8569,-2.8219,0.0,0.0,0.0,0.0,0.0,0.0,0.0,0.0,0.0,0.0,0.0,-2.072,-1.9705,-1.9391,-1.7316,-1.5613,-1.4497,-1.4346,-1.4201,-1.4049,-1.4353,-1.4617,-1.4776,-1.4768,-1.4776,-1.4613,-1.4621,-1.4694,-1.4759,-1.4816,-1.4936,-1.5217,-1.5565,-1.6184,-1.7089,-1.7833,-1.8774,-1.9946,-2.1981,-2.3706,-2.4641,-2.5128,-2.5634,-2.5749,-2.5367,-2.5014,-2.5092,-2.47,-2.4307,-2.4162,-2.361,-2.3127,-2.3132,-2.248,-2.2126,-2.201,-2.189,-2.1968,-2.1657,-2.1857,-2.2412,-2.3781,-2.4023,-2.3879,0.3922,0.0,0.3716,0.3775,0.0,0.398,0.414,0.4142,0.398,0.385,0.3839,0.3872,0.3901,0.4079,0.4252,0.4405,0.4525,0.4573,0.4469,0.4169,0.3949,0.3703,0.343,0.3268,0.3134,0.3091,0.317,0.3162,0.3131,0.3428,0.3666,0.3838,0.4178,0.2936,0.0055,-0.6864,-1.384,-2.0794,-2.3268,-2.5211,-2.6575,-2.6892,-2.7624,-2.8857,0.0,0.0,0.0,0.0,0.0,0.0,0.0,0.0,0.0,0.0,0.0,-2.6184,-2.6072,-2.5632,-2.4737,-2.3822,-2.2751,-2.1461,-1.9477,-1.8009,-1.7556,-1.6075,-1.501,-1.447,-1.4401,-1.4324,-1.417,-1.4401,-1.4555,-1.4563,-1.4417,-1.4324,-1.4186,-1.4186,-1.4125,-1.4178,-1.4315,-1.4538,-1.4874,-1.5322,-1.5955,-1.6689,-1.7616,-1.8583,-1.9499,-2.103,-2.2457,-2.3378,-2.3936,-2.4242,-2.4287,-2.4045,-2.3822,-2.3769,-2.3502,-2.3232,-2.3036,-2.2678,-2.2442,-2.2247,-2.1962,-2.1673,-2.1605,-2.1617,-2.1562,-2.1493,-2.1605,-2.1882,-2.2792,-2.2997,-2.3022,0.4512,0.4116,0.427,0.4304,0.4233,0.4384,0.4453,0.4363,0.0,0.0,0.0,0.372,0.3821,0.4175,0.4087,0.4255,0.4583,0.4488,0.439,0.4164,0.3939,0.3732,0.3535,0.324,0.3122,0.3166,0.3215,0.3186,0.3089,0.349,0.3789,0.3916,0.4298,0.2632,-0.1481,-0.9965,-1.6764,-2.1319,-2.352,-2.5051,-2.5976,-2.6519,-2.7177,-2.8016,-2.8507,-2.871,-2.8553,-2.8252,-2.7949,-2.7672,-2.7286,-2.6913,-2.6582,-2.6016,-2.5458,-2.4992,-2.4673,-2.4131,-2.3293,-2.2732,-2.1864,-2.047,-1.8441,-1.6796,-1.578,-1.5136,-1.4689,-1.4453,-1.4321,-1.4263,-1.4197,-1.4197,-1.4197,-1.4123,-1.3983,-1.3858,-1.3792,-1.3709,-1.3683,-1.3776,-1.3942,-1.422,-1.4668,-1.5232,-1.5974,-1.6703,-1.7599,-1.8759,-1.9541,-2.0571,-2.1512,-2.2308,-2.2769,-2.2789,-2.2817,-2.2843,-2.267,-2.2748,-2.2628,-2.2361,-2.2198,-2.2079,-2.1905,-2.1809,-2.1732,-2.1549,-2.1562,-2.1511,-2.1601,-2.1601,-2.1655,-2.1642,-2.1709,-2.1882,-2.204,0.5199,0.4875,0.4873,0.4862,0.4851,0.4696,0.4493,0.4261,0.4197,0.4194,0.4173,0.3997,0.3975,0.3961,0.4089,0.4168,0.4079,0.4263,0.4247,0.0,0.3861,0.3756,0.3563,0.3458,0.3301,0.3278,0.3259,0.3377,0.3506,0.3607,0.3872,0.4356,0.446,0.084,-0.6241,-1.2368,-1.7619,-2.197,-2.3725,-2.5057,-2.5963,-2.5976,-2.6338,-2.7028,-2.7059,-2.6972,-2.686,-2.6613,-2.6314,-2.6037,-2.5662,-2.5264,-2.4934,-2.4397,-2.3809,-2.3367,-2.2686,-2.1943,-2.1197,-2.062,-1.9636,-1.8077,-1.6967,-1.6327,-1.6107,-1.5778,-1.5314,-1.4885,-1.4746,-1.4724,-1.4609,-1.4584,-1.4493,-1.4313,-1.4181,-1.3983,-1.3793,-1.3653,-1.3571,-1.3539,-1.3648,-1.3747,-1.4067,-1.4531,-1.5241,-1.6113,-1.7137,-1.8178,-1.9609,-2.0961,-2.1847,-2.2252,-2.2549,-2.2777,-2.2751,-2.2751,-2.2658,-2.2764,-2.2591,-2.2405,-2.2351,-2.1863,-2.1497,-2.1379,-2.0991,-2.0591,-2.0553,-2.0412,-2.0579,-2.0656,-2.081,-2.0874,-2.09,-2.1066,-2.1391,0.6086,0.5699,0.5622,0.5502,0.536,0.5064,0.4858,0.473,0.4667,0.439,0.4137,0.4111,0.4104,0.4189,0.4335,0.4417,0.4425,0.4489,0.4446,0.4288,0.4064,0.3958,0.3825,0.3653,0.3572,0.3518,0.3574,0.3629,0.3694,0.386,0.4135,0.4346,0.2193,-0.1997,-0.7973,-1.3545,-1.8346,-2.2481,-2.3989,-2.4914,-2.5295,-2.5622,-2.5946,-2.6247,-2.6541,-2.6641,-2.649,-2.625,-2.5973,-2.5707,-2.5347,-2.5,-2.4628,-2.4096,-2.3568,-2.3028,-2.2262,-2.1501,-2.0683,-1.9429,-1.8167,-1.7069,-1.6213,-1.5573,-1.5283,-1.5119,-1.4937,-1.4604,-1.4417,-1.4301,-1.4176,-1.4113,-1.3987,-1.3916,-1.3663,-1.3391,-1.3149,-1.2859,-1.2725,-1.2663,-1.2674,-1.2865,-1.3227,-1.3756,-1.4484,-1.5369,-1.6638,-1.8135,-1.9297,-2.0162,-2.1014,-2.1621,-2.1998,-2.215,-2.2251,-2.2187,-2.215,-2.2062,-2.191,-2.1807,-2.1756,-2.1325,-2.1169,-2.1143,-2.083,-2.0662,-2.061,-2.0636,-2.0636,-2.0636,-2.0723,-2.0822,-2.0822,-2.0944,-2.1305,0.6881,0.6423,0.6384,0.6153,0.5811,0.5453,0.5325,0.5241,0.5114,0.4766,0.4341,0.4335,0.4433,0.4551,0.464,0.4716,0.4829,0.4705,0.4624,0.4584,0.4366,0.4197,0.4125,0.3946,0.3826,0.376,0.3842,0.3852,0.3962,0.4187,0.4242,0.377,0.0,-0.4343,-0.8896,-1.4377,-1.9063,-2.2794,-2.4189,-2.4753,-2.4701,-2.525,-2.5481,-2.543,-2.5874,-2.6088,-2.5938,-2.5665,-2.5434,-2.5166,-2.4866,-2.4527,-2.4147,-2.3706,-2.3178,-2.262,-2.1926,-2.1114,-2.0147,-1.8572,-1.7352,-1.665,-1.5793,-1.5098,-1.4603,-1.4401,-1.4262,-1.4046,-1.3753,-1.3567,-1.3508,-1.3449,-1.333,-1.3262,-1.3041,-1.2771,-1.2439,-1.2083,-1.1863,-1.1769,-1.184,-1.2145,-1.2555,-1.3204,-1.4141,-1.5455,-1.6999,-1.8316,-1.9067,-1.9619,-2.0309,-2.0928,-2.1285,-2.1346,-2.1439,-2.136,-2.1205,-2.1124,-2.0969,-2.0873,-2.0743,-2.0729,-2.0681,-2.0641,-2.0655,-2.054,-2.0655,-2.0641,-2.0566,-2.0527,-2.0534,-2.0703,-2.0898,-2.1143,-2.1369,0.7463,0.7146,0.6933,0.663,0.6233,0.587,0.5672,0.5451,0.5379,0.5322,0.5205,0.4919,0.4846,0.4957,0.4838,0.4906,0.5078,0.4879,0.4809,0.4789,0.4598,0.4471,0.44,0.4219,0.4101,0.3987,0.403,0.4187,0.4408,0.4463,0.4119,0.3037,-0.0692,-0.5202,-0.9998,-1.5254,-1.9703,-2.3199,-2.4276,-2.4738,-2.4615,-2.4673,-2.4627,-2.445,-2.4506,-2.4431,-2.4344,-2.4052,-2.3835,-2.3602,-2.334,-2.3015,-2.2737,-2.2336,-2.1889,-2.1424,-2.0767,-1.9886,-1.8878,-1.7924,-1.722,-1.6706,-1.5974,-1.5185,-1.4526,-1.4028,-1.3642,-1.3332,-1.3057,-1.2888,-1.2715,-1.2785,-1.2781,-1.2603,-1.2564,-1.2431,-1.2074,-1.176,-1.1527,-1.1551,-1.1583,-1.1952,-1.2138,-1.286,-1.4363,-1.6322,-1.7716,-1.8843,-1.9533,-2.0105,-2.0442,-2.0685,-2.0642,-2.0511,-2.0553,-2.0353,-2.0404,-2.0332,-2.013,-2.0079,-2.0102,-1.9971,-1.9759,-2.0161,-1.9913,-1.994,-1.9899,-1.9719,-1.9859,-2.0021,-2.0098,-2.0161,-2.0731,-2.1291,-2.1641,0.814,0.7848,0.7619,0.7302,0.6835,0.6459,0.619,0.6052,0.5988,0.5902,0.5811,0.561,0.5481,0.5288,0.5353,0.5402,0.5424,0.5322,0.5192,0.5122,0.4969,0.4833,0.471,0.4661,0.457,0.4519,0.4515,0.457,0.4736,0.4849,0.3999,0.1977,-0.2032,-0.6643,-1.1633,-1.6735,-2.0805,-2.3708,-2.4465,-2.4749,-2.466,-2.4631,-2.4549,-2.4429,-2.4339,-2.4247,-2.4113,-2.3917,-2.375,-2.3589,-2.3271,-2.2995,-2.2685,-2.2354,-2.194,-2.137,-2.0416,-1.9428,-1.8545,-1.7668,-1.6867,-1.6242,-1.5325,-1.4514,-1.3871,-1.3268,-1.2768,-1.2617,-1.2726,-1.2776,-1.2602,-1.2572,-1.247,-1.2342,-1.2248,-1.1997,-1.1475,-1.1185,-1.0974,-1.0609,-1.0616,-1.0838,-1.1178,-1.2151,-1.3872,-1.6145,-1.7752,-1.8879,-1.9581,-1.9943,-2.0165,-2.0271,-2.0141,-2.0273,-2.0524,-2.0613,-2.0444,-2.0401,-2.0301,-2.0215,-2.0029,-2.0085,-2.0012,-1.997,-1.9915,-1.9915,-2.0111,-1.9998,-1.9998,-1.9943,-2.0028,-2.0226,-2.0594,-2.125,-2.1565,0.8697,0.8483,0.8211,0.782,0.7409,0.7131,0.6846,0.6607,0.6603,0.6497,0.6266,0.632,0.6042,0.5759,0.5755,0.5746,0.5735,0.5678,0.5596,0.5417,0.5353,0.5238,0.5066,0.5066,0.5011,0.4956,0.4956,0.4956,0.4956,0.4959,0.3655,0.0706,-0.3551,-0.8379,-1.3446,-1.8315,-2.1808,-2.3819,-2.4347,-2.4459,-2.4366,-2.4326,-2.4358,-2.4481,-2.4393,-2.4321,-2.4208,-2.4036,-2.3873,-2.3703,-2.3481,-2.3223,-2.2927,-2.2668,-2.2243,-2.1507,-2.0483,-1.9471,-1.865,-1.7747,-1.6841,-1.594,-1.488,-1.4025,-1.3362,-1.2706,-1.2224,-1.1972,-1.2244,-1.2333,-1.2251,-1.2081,-1.1973,-1.1864,-1.1647,-1.1307,-1.0867,-1.0631,-1.0333,-0.9784,-0.9799,-1.0087,-1.0746,-1.2186,-1.4192,-1.6393,-1.7973,-1.9072,-1.9707,-2.005,-2.0235,-2.0235,-2.015,-2.0231,-2.0583,-2.0433,-2.0399,-2.0318,-2.011,-2.0,-2.0004,-1.9949,-1.9949,-1.961,-1.9878,-1.9893,-1.9696,-1.9794,-1.988,-1.9908,-2.0034,-2.0175,-2.0316,-2.1009,-2.1196,0.9271,0.8969,0.8427,0.8153,0.7937,0.7727,0.7412,0.7052,0.7042,0.6993,0.6755,0.6745,0.6634,0.6404,0.6058,0.593,0.6006,0.5901,0.5821,0.5771,0.5749,0.5681,0.5563,0.5563,0.5403,0.5183,0.5124,0.5128,0.5073,0.4794,0.2918,-0.0592,-0.5171,-1.0131,-1.5232,-1.9743,-2.2493,-2.3587,-2.3809,-2.3728,-2.3606,-2.3581,-2.3827,-2.4385,-2.45,-2.4394,-2.4246,-2.4113,-2.3976,-2.3732,-2.362,-2.3458,-2.3175,-2.2977,-2.2446,-2.1582,-2.0846,-2.0089,-1.9214,-1.8288,-1.7286,-1.6145,-1.5084,-1.4086,-1.3256,-1.255,-1.2026,-1.1578,-1.1455,-1.1404,-1.1353,-1.125,-1.1106,-1.0995,-1.0577,-1.0363,-1.0252,-1.0023,-0.9762,-0.942,-0.9361,-1.0084,-1.1617,-1.346,-1.541,-1.7408,-1.9053,-2.0181,-2.0619,-2.0846,-2.0894,-2.0861,-2.0763,-2.0559,-2.0015,-1.999,-1.9782,-1.9715,-1.9771,-1.938,-1.9203,-1.9136,-1.9223,-1.9266,-1.9349,-1.9325,-1.9114,-1.9046,-1.9094,-1.9266,-1.9678,-1.9875,-2.0013,-2.0405,-2.0602,0.9799,0.9521,0.9174,0.8807,0.8404,0.8339,0.8007,0.7496,0.7471,0.7374,0.7196,0.7175,0.71,0.6884,0.6714,0.6498,0.6327,0.6361,0.6273,0.6168,0.6168,0.6059,0.5896,0.5841,0.5732,0.5572,0.5576,0.5513,0.5289,0.4556,0.2014,-0.2186,-0.6822,-1.1833,-1.6855,-2.0952,-2.3434,-2.4285,-2.399,-2.3661,-2.352,-2.3046,-2.3088,-2.3827,-2.4288,-2.4462,-2.4375,-2.4284,-2.4153,-2.3961,-2.3855,-2.3667,-2.3445,-2.3067,-2.2581,-2.1907,-2.129,-2.0585,-1.9763,-1.876,-1.7639,-1.6396,-1.5095,-1.3924,-1.2957,-1.2098,-1.1528,-1.1124,-1.0769,-1.0616,-1.0557,-1.0659,-1.0769,-1.0616,-1.0308,-0.9932,-0.9725,-0.9472,-0.9113,-0.8844,-0.9138,-1.0428,-1.2649,-1.4711,-1.6837,-1.9001,-2.0733,-2.1591,-2.1668,-2.1681,-2.1582,-2.1477,-2.1339,-2.115,-2.0861,-2.0308,-1.9975,-1.9833,-1.9792,-1.9698,-1.9551,-1.953,-1.9597,-1.9575,-1.9465,-1.9391,-1.9398,-1.9272,-1.9161,-1.9234,-1.9584,-1.968,-1.9706,-2.0132,-2.0224,1.0214,0.9944,0.9675,0.9226,0.88,0.8734,0.8451,0.7909,0.7902,0.7777,0.7583,0.755,0.7505,0.7365,0.7343,0.7235,0.6918,0.6869,0.6761,0.6652,0.6603,0.644,0.6277,0.6218,0.6109,0.5955,0.585,0.5681,0.5167,0.3635,0.0425,-0.4056,-0.8928,-1.3923,-1.8686,-2.2167,-2.3996,-2.4117,-2.3626,-2.3202,-2.2855,-2.23,-2.2305,-2.3046,-2.3574,-2.4041,-2.4459,-2.441,-2.4302,-2.421,-2.4096,-2.381,-2.3328,-2.2876,-2.232,-2.1676,-2.1344,-2.0854,-2.0108,-1.9248,-1.8163,-1.6728,-1.5186,-1.3754,-1.2473,-1.1484,-1.0846,-1.0446,-1.0146,-0.9888,-0.9777,-0.9932,-1.0095,-1.0095,-0.9895,-0.9577,-0.9197,-0.8903,-0.8738,-0.8803,-0.986,-1.1597,-1.3905,-1.6336,-1.853,-2.0638,-2.2141,-2.2771,-2.2625,-2.2415,-2.2265,-2.213,-2.1924,-2.1748,-2.1507,-2.1086,-2.0581,-2.0429,-2.0258,-2.0104,-2.0,-1.9945,-1.9925,-1.9904,-1.9848,-1.9777,-1.9705,-1.9596,-1.9523,-1.9523,-1.9597,-1.9738,-1.9752,-1.9882,-2.0053,1.047,1.0254,0.98,0.9453,0.9125,0.9107,0.8811,0.8348,0.8265,0.8147,0.7949,0.7901,0.7955,0.7925,0.7931,0.7877,0.7771,0.7396,0.7187,0.7085,0.6982,0.6879,0.682,0.6707,0.6495,0.6178,0.5905,0.5513,0.478,0.2059,-0.1655,-0.6516,-1.1496,-1.6235,-2.0943,-2.3158,-2.3884,-2.3132,-2.2764,-2.2189,-2.1339,-2.1259,-2.1544,-2.2205,-2.2362,-2.2994,-2.4323,-2.4362,-2.4238,-2.4244,-2.4173,-2.3731,-2.2826,-2.244,-2.1829,-2.1033,-2.1,-2.0841,-2.0261,-1.9696,-1.863,-1.6983,-1.5235,-1.3337,-1.1838,-1.0705,-0.9887,-0.9503,-0.9354,-0.9249,-0.8981,-0.8876,-0.9033,-0.9309,-0.9263,-0.8942,-0.8626,-0.8368,-0.8501,-0.9328,-1.1007,-1.3183,-1.5595,-1.816,-2.0438,-2.1925,-2.2911,-2.3361,-2.331,-2.3052,-2.2883,-2.2738,-2.25,-2.2265,-2.2096,-2.1911,-2.1432,-2.1039,-2.0844,-2.0679,-2.0496,-2.0444,-2.0342,-2.0308,-2.022,-2.0115,-1.9995,-1.9889,-1.9833,-1.9797,-1.9833,-1.9884,-2.0005,-2.0126,-2.0231,1.0871,1.0748,1.0357,0.9964,0.9532,0.9532,0.9163,0.8702,0.8616,0.8611,0.8546,0.8533,0.8533,0.8533,0.8527,0.848,0.8381,0.8209,0.7937,0.7563,0.7359,0.7192,0.7085,0.6972,0.6761,0.6386,0.6173,0.5504,0.3963,0.0962,-0.3227,-0.8202,-1.3335,-1.7943,-2.1895,-2.3819,-2.4306,-2.3553,-2.2856,-2.214,-2.1293,-2.0693,-2.0774,-2.1441,-2.1524,-2.2054,-2.297,-2.3013,-2.2959,-2.2902,-2.2834,-2.2574,-2.2205,-2.1935,-2.1602,-2.1149,-2.096,-2.072,-2.0204,-1.9357,-1.8163,-1.6222,-1.4159,-1.2282,-1.0824,-0.9445,-0.8639,-0.8482,-0.8349,-0.8143,-0.7972,-0.7865,-0.8137,-0.8784,-0.8521,-0.8243,-0.8171,-0.8317,-0.9213,-1.0872,-1.2847,-1.5364,-1.8108,-2.0514,-2.2038,-2.3244,-2.386,-2.4006,-2.3846,-2.3592,-2.3318,-2.3164,-2.2925,-2.2764,-2.2581,-2.2419,-2.2124,-2.1688,-2.1415,-2.1166,-2.1007,-2.0877,-2.0811,-2.0679,-2.0579,-2.0444,-2.0342,-2.0224,-2.0154,-2.0135,-2.0185,-2.022,-2.0339,-2.0441,-2.0559,1.1154,1.1082,1.0682,1.0217,0.9854,0.9789,0.9546,0.9145,0.9099,0.9106,0.9113,0.9106,0.9054,0.9008,0.9008,0.8962,0.8818,0.8798,0.8521,0.8103,0.7735,0.7521,0.7337,0.7041,0.6691,0.6315,0.6096,0.5125,0.329,-0.0503,-0.4881,-0.9848,-1.4801,-1.893,-2.2151,-2.3435,-2.3743,-2.2988,-2.2397,-2.1738,-2.0956,-2.0336,-2.0287,-2.0714,-2.079,-2.1054,-2.1517,-2.1498,-2.174,-2.2133,-2.2243,-2.2027,-2.1618,-2.1417,-2.1121,-2.0731,-2.068,-2.0559,-2.0206,-1.9602,-1.8318,-1.6366,-1.3902,-1.1724,-1.0052,-0.8349,-0.7359,-0.7216,-0.7134,-0.7083,-0.7149,-0.7337,-0.7765,-0.8606,-0.8137,-0.8013,-0.8332,-0.9286,-1.0932,-1.3162,-1.5513,-1.8052,-2.0399,-2.2283,-2.352,-2.44,-2.4591,-2.4489,-2.4265,-2.402,-2.3777,-2.3558,-2.3359,-2.3188,-2.3035,-2.2884,-2.2756,-2.2375,-2.2022,-2.1735,-2.1479,-2.1386,-2.1293,-2.1103,-2.0942,-2.086,-2.0745,-2.0663,-2.0614,-2.0579,-2.0561,-2.0646,-2.0745,-2.0761,-2.0876,1.1391,1.1341,1.0777,1.0399,1.011,1.0066,0.9895,0.9695,0.9658,0.9673,0.9666,0.9614,0.9569,0.9465,0.9413,0.9323,0.9173,0.9058,0.8847,0.8521,0.8103,0.7769,0.7576,0.6949,0.6481,0.6081,0.5844,0.4447,0.1992,-0.2131,-0.67,-1.1457,-1.5953,-1.9524,-2.1786,-2.254,-2.2459,-2.1761,-2.1531,-2.1091,-2.0326,-2.0165,-2.0127,-2.0184,-2.0193,-2.0251,-2.0337,-2.0394,-2.0897,-2.2021,-2.2048,-2.1677,-2.1097,-2.0889,-2.0447,-1.9811,-2.0174,-2.0338,-2.0273,-1.9959,-1.9096,-1.7177,-1.4502,-1.1923,-0.9961,-0.8162,-0.6888,-0.6593,-0.6555,-0.6696,-0.7114,-0.7694,-0.8449,-0.9043,-0.8985,-0.894,-1.0153,-1.1603,-1.3552,-1.6005,-1.8575,-2.0882,-2.2484,-2.3955,-2.4683,-2.5022,-2.4981,-2.4737,-2.454,-2.432,-2.4154,-2.3939,-2.3714,-2.358,-2.3399,-2.3307,-2.3164,-2.2943,-2.2599,-2.2347,-2.1969,-2.184,-2.1691,-2.1509,-2.1371,-2.1277,-2.1183,-2.1119,-2.1039,-2.0991,-2.1023,-2.1087,-2.1135,-2.1183,-2.1214,1.1575,1.1404,1.1116,1.082,1.0659,1.0557,1.0411,1.03,1.0249,1.0198,1.0146,1.0102,0.9969,0.9829,0.9814,0.9614,0.9268,0.9155,0.882,0.8303,0.8052,0.7561,0.711,0.6613,0.6248,0.5931,0.5397,0.3703,0.063,-0.3632,-0.821,-1.3018,-1.714,-2.0315,-2.209,-2.2473,-2.2249,-2.157,-2.1474,-2.1033,-2.0333,-2.0171,-2.0182,-2.0171,-2.0169,-2.0178,-2.0178,-2.0233,-2.0324,-2.0622,-2.0716,-2.0619,-2.0416,-2.0316,-2.0157,-1.9983,-1.9962,-2.0057,-1.9963,-1.9629,-1.8677,-1.7148,-1.4949,-1.2687,-1.1024,-0.9224,-0.8194,-0.797,-0.8158,-0.856,-0.9163,-1.0035,-1.1237,-1.2708,-1.1998,-1.1667,-1.2979,-1.4517,-1.6431,-1.8973,-2.088,-2.2591,-2.3933,-2.4788,-2.5245,-2.5224,-2.5091,-2.4915,-2.4734,-2.4561,-2.4374,-2.421,-2.4019,-2.3878,-2.3774,-2.3689,-2.3576,-2.3417,-2.3188,-2.2975,-2.2563,-2.2226,-2.2084,-2.1866,-2.1781,-2.1691,-2.1648,-2.157,-2.1493,-2.1432,-2.1432,-2.1462,-2.1526,-2.1573,-2.1587,1.1977,1.1828,1.1578,1.1377,1.1226,1.1074,1.0972,1.082,1.0769,1.0629,1.0431,1.0306,1.0111,0.9787,0.9771,0.9562,0.9205,0.9099,0.8754,0.8296,0.7855,0.7323,0.6795,0.6424,0.6139,0.5619,0.4947,0.2599,-0.0848,-0.5009,-0.9416,-1.3812,-1.7705,-2.0147,-2.1284,-2.1589,-2.151,-2.1058,-2.099,-2.0691,-2.0285,-2.0238,-2.0238,-2.0246,-2.0242,-2.0231,-2.0238,-2.0265,-2.0254,-2.0208,-2.0201,-2.0182,-2.0153,-2.0107,-2.0079,-2.0069,-2.005,-2.0031,-2.0012,-1.9651,-1.8902,-1.7631,-1.5757,-1.4055,-1.2492,-1.093,-0.9973,-0.974,-0.9971,-1.0578,-1.1687,-1.3162,-1.4987,-1.6494,-1.6417,-1.6143,-1.6327,-1.7636,-1.9439,-2.1402,-2.293,-2.4049,-2.5155,-2.536,-2.5365,-2.5284,-2.516,-2.4994,-2.487,-2.4719,-2.4578,-2.4426,-2.4284,-2.4173,-2.4058,-2.3959,-2.3896,-2.375,-2.358,-2.3422,-2.3091,-2.2669,-2.2473,-2.2309,-2.2215,-2.2147,-2.2044,-2.2003,-2.1974,-2.1915,-2.184,-2.184,-2.1932,-2.1915,-2.1945,1.2471,1.2323,1.2076,1.1877,1.1719,1.1584,1.1373,1.1299,1.1055,1.0787,1.0519,1.0381,1.0033,0.9552,0.9604,0.9385,0.9147,0.8926,0.8632,0.8177,0.7616,0.702,0.6615,0.635,0.5855,0.509,0.4164,0.1237,-0.2553,-0.6434,-1.0556,-1.4641,-1.786,-1.937,-2.0356,-2.043,-2.0331,-2.0416,-2.0431,-2.0407,-2.0306,-2.0299,-2.0299,-2.0313,-2.0301,-2.0295,-2.0308,-2.0315,-2.0308,-2.0315,-2.0308,-2.0273,-2.0246,-2.0227,-2.0238,-2.0222,-2.0211,-2.0227,-2.0277,-2.0063,-1.9668,-1.8618,-1.725,-1.5772,-1.4357,-1.3094,-1.2251,-1.1887,-1.1745,-1.2897,-1.4606,-1.6867,-1.8637,-2.0035,-2.1212,-2.1119,-2.0471,-2.0877,-2.2228,-2.3628,-2.4619,-2.5158,-2.5401,-2.5478,-2.5437,-2.5322,-2.519,-2.5075,-2.4966,-2.4856,-2.4753,-2.4629,-2.4528,-2.4478,-2.4338,-2.4229,-2.4173,-2.4057,-2.3899,-2.3692,-2.3445,-2.3122,-2.2884,-2.2747,-2.2624,-2.2561,-2.248,-2.2443,-2.2388,-2.236,-2.2271,-2.2304,-2.2366,-2.2304,-2.2287,1.29,1.2578,1.2431,1.2274,1.212,1.164,1.1408,1.1343,1.0906,1.0626,1.0421,1.0357,1.0106,0.9794,0.9707,0.9525,0.9003,0.8774,0.834,0.7617,0.7197,0.6797,0.6409,0.611,0.5499,0.4457,0.2522,-0.0578,-0.4478,-0.8496,-1.2528,-1.6248,-1.8361,-1.9846,-2.0214,-2.0304,-2.0299,-2.0287,-2.0288,-2.0295,-2.0308,-2.0347,-2.0366,-2.0379,-2.0386,-2.0385,-2.0377,-2.0383,-2.0377,-2.0379,-2.0399,-2.0379,-2.0353,-2.0353,-2.0346,-2.0346,-2.0353,-2.0373,-2.0372,-2.0263,-2.0058,-1.9554,-1.8676,-1.7749,-1.6905,-1.594,-1.5217,-1.4906,-1.5129,-1.6134,-1.8128,-1.9992,-2.1455,-2.2748,-2.3681,-2.4162,-2.4045,-2.3834,-2.4136,-2.4802,-2.5221,-2.5446,-2.5486,-2.5456,-2.5404,-2.5332,-2.5231,-2.5141,-2.5057,-2.4985,-2.4903,-2.4783,-2.4738,-2.4657,-2.4578,-2.4459,-2.4392,-2.4339,-2.4173,-2.402,-2.3759,-2.358,-2.3376,-2.3206,-2.3052,-2.2977,-2.2902,-2.2825,-2.2773,-2.2747,-2.2712,-2.2712,-2.2685,-2.2659,-2.2632,1.3276,1.2977,1.2694,1.2464,1.2263,1.1695,1.1415,1.1287,1.1021,1.0667,1.0425,1.0276,1.0039,0.9692,0.952,0.9222,0.8883,0.8539,0.8027,0.7475,0.7118,0.6745,0.6282,0.5701,0.4957,0.3829,0.1411,-0.2123,-0.6223,-1.0327,-1.4085,-1.7471,-1.9201,-1.9963,-2.0277,-2.0327,-2.034,-2.0354,-2.0353,-2.034,-2.0346,-2.0371,-2.0427,-2.0452,-2.0457,-2.0448,-2.0459,-2.0439,-2.0444,-2.0444,-2.0454,-2.0432,-2.041,-2.039,-2.039,-2.0396,-2.0441,-2.0457,-2.0448,-2.0395,-2.0297,-2.016,-1.9711,-1.9307,-1.8817,-1.8268,-1.7925,-1.7638,-1.7815,-1.8673,-2.0529,-2.2107,-2.3362,-2.4082,-2.4919,-2.5376,-2.5447,-2.5224,-2.5108,-2.5466,-2.5517,-2.5512,-2.5485,-2.5434,-2.5376,-2.5313,-2.5292,-2.5217,-2.518,-2.5095,-2.5025,-2.494,-2.4898,-2.4842,-2.4783,-2.4692,-2.4613,-2.453,-2.4445,-2.432,-2.4155,-2.3981,-2.3837,-2.3624,-2.3399,-2.3324,-2.3253,-2.3182,-2.3151,-2.3077,-2.3028,-2.3028,-2.3028,-2.3003,-2.2977,1.3622,1.3324,1.2792,1.2484,1.2288,1.1724,1.1388,1.1301,1.1094,1.0705,1.0424,1.0211,0.9931,0.9578,0.9318,0.9082,0.8757,0.8307,0.7829,0.7454,0.707,0.6696,0.6142,0.5308,0.394,0.2778,-0.0248,-0.3927,-0.8145,-1.2006,-1.5661,-1.8372,-1.9589,-2.0165,-2.0302,-2.0347,-2.0404,-2.0421,-2.0418,-2.0404,-2.0404,-2.0415,-2.0449,-2.0478,-2.0497,-2.0502,-2.0506,-2.0491,-2.0495,-2.0508,-2.0508,-2.0467,-2.0439,-2.041,-2.0429,-2.0405,-2.0468,-2.0497,-2.0491,-2.0488,-2.0445,-2.0428,-2.0376,-2.0277,-1.999,-1.9769,-1.9571,-1.9516,-1.9573,-1.9936,-2.1309,-2.2381,-2.354,-2.428,-2.4978,-2.5396,-2.5561,-2.5581,-2.5546,-2.554,-2.5556,-2.5518,-2.5483,-2.5437,-2.5378,-2.5322,-2.5312,-2.529,-2.5236,-2.5191,-2.5113,-2.5057,-2.5032,-2.4947,-2.4893,-2.487,-2.4783,-2.4704,-2.4645,-2.4561,-2.4458,-2.4337,-2.4155,-2.3921,-2.3756,-2.3667,-2.362,-2.3553,-2.3486,-2.3412,-2.3365,-2.3348,-2.3348,-2.3342,-2.3295,1.357,1.3247,1.2663,1.2346,1.2154,1.1662,1.1387,1.1266,1.0804,1.0489,1.04,1.0184,0.9996,0.9793,0.9674,0.9315,0.8773,0.8226,0.7821,0.7405,0.6985,0.652,0.5879,0.444,0.2494,-0.0371,-0.325,-0.6815,-1.0689,-1.4578,-1.7254,-1.9281,-2.0068,-2.0341,-2.0357,-2.0399,-2.0434,-2.0468,-2.0478,-2.0463,-2.0463,-2.0472,-2.048,-2.0508,-2.0508,-2.0508,-2.0508,-2.0508,-2.0504,-2.0508,-2.0508,-2.0484,-2.048,-2.0476,-2.0476,-2.0476,-2.048,-2.0504,-2.0515,-2.0499,-2.051,-2.0494,-2.0471,-2.0477,-2.0402,-2.0375,-2.0279,-2.0279,-2.0308,-2.0677,-2.1593,-2.2154,-2.2921,-2.3796,-2.437,-2.4729,-2.5193,-2.5382,-2.5382,-2.5356,-2.5409,-2.5498,-2.5461,-2.5429,-2.5387,-2.5341,-2.5341,-2.5312,-2.5271,-2.5239,-2.5206,-2.5164,-2.5122,-2.5063,-2.5,-2.4993,-2.494,-2.4879,-2.4823,-2.4764,-2.4685,-2.4607,-2.4458,-2.4229,-2.4098,-2.4018,-2.3958,-2.3896,-2.3834,-2.375,-2.3689,-2.3646,-2.3624,-2.3642,-2.3594,1.3652,1.3162,1.2613,1.2326,1.2118,1.1636,1.1358,1.1238,1.0905,1.0687,1.0572,1.0428,1.0235,1.0059,0.9823,0.9377,0.8814,0.8226,0.7814,0.7398,0.6937,0.6301,0.5358,0.3526,0.0247,-0.3246,-0.6731,-0.9717,-1.286,-1.6096,-1.8485,-1.9753,-2.0321,-2.0418,-2.0449,-2.0463,-2.0476,-2.0508,-2.0515,-2.0515,-2.0515,-2.0506,-2.051,-2.0513,-2.0516,-2.0516,-2.0516,-2.0516,-2.0516,-2.0516,-2.0516,-2.0516,-2.0516,-2.0513,-2.051,-2.0499,-2.0515,-2.0499,-2.051,-2.0513,-2.0516,-2.05,-2.0503,-2.0509,-2.0511,-2.0486,-2.0506,-2.0516,-2.051,-2.0639,-2.1052,-2.148,-2.2148,-2.2756,-2.3328,-2.3797,-2.4187,-2.4581,-2.4755,-2.4904,-2.5207,-2.534,-2.5445,-2.5412,-2.5387,-2.5388,-2.5361,-2.5341,-2.5293,-2.5283,-2.5282,-2.5241,-2.5212,-2.5187,-2.5122,-2.5106,-2.5082,-2.5025,-2.4974,-2.4902,-2.4861,-2.4804,-2.4716,-2.4575,-2.4459,-2.4338,-2.4247,-2.4172,-2.4134,-2.4077,-2.3999,-2.3959,-2.3939,-2.3899,-2.3855,1.3625,1.3055,1.2564,1.2263,1.208,1.1686,1.141,1.1303,1.1201,1.104,1.085,1.0725,1.0544,1.0273,0.9892,0.9417,0.8871,0.8267,0.7773,0.7287,0.6767,0.5995,0.4486,0.1943,-0.1286,-0.514,-0.9488,-1.281,-1.4837,-1.7433,-1.9195,-2.0068,-2.039,-2.0424,-2.0469,-2.0492,-2.0506,-2.0516,-2.0522,-2.0522,-2.0525,-2.0525,-2.0531,-2.0516,-2.0516,-2.0536,-2.0533,-2.0514,-2.0516,-2.0516,-2.0516,-2.0516,-2.0516,-2.0516,-2.0511,-2.0516,-2.0513,-2.0516,-2.05,-2.05,-2.05,-2.05,-2.0503,-2.0503,-2.05,-2.0513,-2.0503,-2.0504,-2.05,-2.0495,-2.0657,-2.1056,-2.1487,-2.1884,-2.2396,-2.2849,-2.3224,-2.3585,-2.3888,-2.4237,-2.483,-2.517,-2.5244,-2.5401,-2.5404,-2.5395,-2.5369,-2.5379,-2.5341,-2.5351,-2.5351,-2.5322,-2.5303,-2.5292,-2.5241,-2.5209,-2.5187,-2.5164,-2.5099,-2.505,-2.5013,-2.4987,-2.4893,-2.4808,-2.4716,-2.4607,-2.453,-2.4446,-2.4356,-2.4302,-2.4284,-2.4248,-2.4192,-2.4154,-2.4133,1.3085,1.2981,1.2387,1.2048,1.1937,1.1808,1.1723,1.1634,1.1527,1.1389,1.126,1.1078,1.0802,1.0457,0.9834,0.9288,0.874,0.8179,0.7609,0.7011,0.6288,0.5243,0.3737,0.0953,-0.2694,-0.6652,-1.0914,-1.4263,-1.6498,-1.8676,-1.9931,-2.0405,-2.0456,-2.0496,-2.0519,-2.0522,-2.0542,-2.0572,-2.0575,-2.0575,-2.0577,-2.0577,-2.0579,-2.0579,-2.0579,-2.0579,-2.0582,-2.0543,-2.0504,-2.0504,-2.0501,-2.0499,-2.0516,-2.0516,-2.0516,-2.0514,-2.0514,-2.0511,-2.0506,-2.0503,-2.0503,-2.05,-2.05,-2.0516,-2.0506,-2.0515,-2.0504,-2.0517,-2.0512,-2.0483,-2.0434,-2.0521,-2.095,-2.1332,-2.1688,-2.2204,-2.2604,-2.2759,-2.3042,-2.3332,-2.3862,-2.4609,-2.5027,-2.5236,-2.5393,-2.5393,-2.5385,-2.5395,-2.5395,-2.5404,-2.5415,-2.5397,-2.5388,-2.5361,-2.5332,-2.5312,-2.5283,-2.5262,-2.522,-2.5176,-2.5153,-2.5099,-2.5069,-2.4974,-2.4921,-2.4851,-2.4734,-2.4642,-2.4578,-2.4528,-2.4495,-2.4425,-2.4372,-2.4393,-2.4358,1.2986,1.278,1.2543,1.2365,1.2246,1.2138,1.2077,1.1979,1.1811,1.17,1.1575,1.1389,1.1002,1.0467,0.9843,0.9213,0.8554,0.7992,0.727,0.6481,0.5582,0.4268,0.1983,-0.1097,-0.4634,-0.8333,-1.2086,-1.5094,-1.7422,-1.9106,-2.0352,-2.0434,-2.049,-2.0522,-2.0545,-2.057,-2.0576,-2.0599,-2.0601,-2.0599,-2.0599,-2.0599,-2.0599,-2.0599,-2.0597,-2.0597,-2.0597,-2.0575,-2.0554,-2.0551,-2.0568,-2.0549,-2.0549,-2.0549,-2.0549,-2.0549,-2.0547,-2.054,-2.0509,-2.0506,-2.0503,-2.05,-2.0516,-2.0513,-2.0519,-2.0504,-2.0487,-2.0444,-2.0444,-2.0429,-2.0408,-2.0383,-2.0584,-2.0862,-2.1069,-2.1204,-2.1649,-2.2056,-2.2288,-2.2585,-2.2914,-2.361,-2.4353,-2.4849,-2.5074,-2.5287,-2.5364,-2.5461,-2.5449,-2.5456,-2.5453,-2.5468,-2.5451,-2.5423,-2.5397,-2.537,-2.5351,-2.5332,-2.5293,-2.5262,-2.5241,-2.522,-2.5164,-2.5149,-2.5082,-2.5019,-2.4926,-2.4837,-2.4749,-2.4723,-2.4692,-2.4626,-2.4559,-2.4508,-2.4478,1.3116,1.292,1.285,1.2733,1.2603,1.2544,1.2437,1.2318,1.2138,1.1993,1.1822,1.1538,1.1012,1.0379,0.977,0.9071,0.8326,0.7648,0.6824,0.5887,0.463,0.2841,0.0209,-0.3087,-0.6628,-1.0271,-1.3328,-1.5688,-1.7233,-1.8755,-1.9729,-2.0185,-2.0092,-2.0336,-2.0543,-2.0605,-2.0605,-2.0604,-2.0604,-2.0604,-2.0605,-2.0605,-2.0605,-2.0605,-2.0605,-2.0605,-2.0605,-2.0604,-2.0601,-2.0601,-2.0597,-2.0596,-2.0596,-2.0593,-2.0593,-2.0593,-2.0591,-2.0566,-2.0536,-2.0531,-2.0506,-2.05,-2.0513,-2.0503,-2.0511,-2.0515,-2.0473,-2.0415,-2.039,-2.0394,-2.039,-2.0385,-2.0456,-2.0482,-2.0502,-2.0424,-2.0482,-2.1088,-2.1469,-2.161,-2.1965,-2.2456,-2.3231,-2.4141,-2.4691,-2.5085,-2.5298,-2.5479,-2.5499,-2.5499,-2.5498,-2.5488,-2.548,-2.5472,-2.5448,-2.5432,-2.5412,-2.5395,-2.536,-2.5332,-2.5313,-2.5302,-2.525,-2.5248,-2.5225,-2.5153,-2.5043,-2.4987,-2.4945,-2.487,-2.4827,-2.4783,-2.4719,-2.4654,-2.4591,1.3547,1.3514,1.3288,1.3082,1.2873,1.2861,1.2803,1.2662,1.2508,1.233,1.2066,1.1542,1.0954,1.0329,0.9563,0.8823,0.8175,0.7281,0.6261,0.5068,0.3612,0.1258,-0.1638,-0.4875,-0.8097,-1.1107,-1.3974,-1.567,-1.6647,-1.7511,-1.8547,-1.9275,-1.953,-1.9961,-2.0351,-2.0583,-2.0578,-2.059,-2.0588,-2.0572,-2.0594,-2.0596,-2.0596,-2.0596,-2.0596,-2.0598,-2.0602,-2.0605,-2.0605,-2.0605,-2.0604,-2.0601,-2.0601,-2.0598,-2.0597,-2.0596,-2.0593,-2.059,-2.0582,-2.0536,-2.0511,-2.05,-2.0503,-2.0511,-2.0508,-2.0502,-2.0483,-2.0404,-2.0385,-2.0388,-2.0385,-2.0386,-2.0392,-2.0392,-2.0379,-2.0379,-2.0385,-2.0443,-2.0745,-2.0737,-2.1072,-2.1621,-2.2084,-2.2976,-2.4102,-2.4548,-2.5331,-2.555,-2.5538,-2.5518,-2.5506,-2.5511,-2.5505,-2.5498,-2.5515,-2.548,-2.5445,-2.5429,-2.5415,-2.5397,-2.5379,-2.5341,-2.5312,-2.5292,-2.5271,-2.5212,-2.5171,-2.5099,-2.5044,-2.4993,-2.4953,-2.4917,-2.4846,-2.4768,-2.4707,1.3914,1.396,1.3894,1.3648,1.3344,1.3276,1.3207,1.3116,1.2873,1.2508,1.2102,1.159,1.1067,1.0376,0.9498,0.8633,0.7775,0.6817,0.5572,0.3971,0.2069,-0.0584,-0.3651,-0.6817,-0.9896,-1.2367,-1.4447,-1.5405,-1.5868,-1.6504,-1.7338,-1.8135,-1.8995,-1.9773,-2.0277,-2.049,-2.0484,-2.0482,-2.0497,-2.0501,-2.0543,-2.0545,-2.0545,-2.0545,-2.0591,-2.0594,-2.0597,-2.0599,-2.0602,-2.0585,-2.0566,-2.0605,-2.0605,-2.0605,-2.0601,-2.0597,-2.0594,-2.0591,-2.0588,-2.0543,-2.0511,-2.05,-2.0503,-2.0508,-2.0508,-2.0502,-2.0464,-2.0434,-2.0385,-2.0394,-2.0383,-2.0396,-2.0377,-2.0396,-2.0396,-2.0377,-2.0402,-2.0402,-2.0432,-2.0584,-2.0648,-2.0905,-2.1328,-2.1784,-2.2984,-2.4072,-2.4913,-2.5574,-2.5568,-2.5556,-2.555,-2.5538,-2.5538,-2.5525,-2.5524,-2.551,-2.5483,-2.548,-2.5456,-2.544,-2.5415,-2.5397,-2.5351,-2.5332,-2.5303,-2.5283,-2.5252,-2.5198,-2.5141,-2.5113,-2.507,-2.5018,-2.495,-2.4861,-2.4802,1.4241,1.4365,1.4429,1.4189,1.3782,1.3682,1.3581,1.3459,1.3185,1.2673,1.2102,1.17,1.118,1.0432,0.9411,0.8486,0.744,0.6268,0.4653,0.2663,0.0303,-0.2637,-0.5856,-0.8831,-1.1541,-1.3603,-1.4602,-1.5329,-1.5488,-1.5674,-1.6752,-1.7933,-1.8841,-1.9684,-2.0272,-2.0233,-2.0135,-2.0099,-1.9807,-1.9753,-1.9695,-1.9678,-1.966,-1.9641,-1.963,-1.9633,-1.9732,-1.9833,-2.0108,-2.0229,-2.0388,-2.0566,-2.0605,-2.0605,-2.0605,-2.0601,-2.0596,-2.0593,-2.0591,-2.0543,-2.0509,-2.0516,-2.0503,-2.0511,-2.0504,-2.0506,-2.0473,-2.04,-2.0376,-2.039,-2.0399,-2.0388,-2.0388,-2.0388,-2.0388,-2.0388,-2.0399,-2.0404,-2.0434,-2.0488,-2.0551,-2.0618,-2.0938,-2.1472,-2.2678,-2.3743,-2.4438,-2.5182,-2.5595,-2.5585,-2.5579,-2.5587,-2.5595,-2.5564,-2.5544,-2.5538,-2.5524,-2.549,-2.5488,-2.5464,-2.5448,-2.5432,-2.5395,-2.5369,-2.5341,-2.5341,-2.5312,-2.5271,-2.5228,-2.5203,-2.5144,-2.507,-2.5018,-2.4917,-2.4875,1.4592,1.4683,1.4777,1.4543,1.4222,1.4065,1.3914,1.3775,1.3459,1.2931,1.2198,1.1763,1.1217,1.0391,0.9221,0.8229,0.7212,0.5703,0.3741,0.1352,-0.146,-0.4733,-0.7894,-1.0772,-1.292,-1.4412,-1.514,-1.5369,-1.542,-1.61,-1.7018,-1.7946,-1.8935,-1.9756,-2.0367,-1.9655,-1.9289,-1.9163,-1.854,-1.8354,-1.8362,-1.8423,-1.8464,-1.8488,-1.8512,-1.8572,-1.8691,-1.9067,-1.9362,-1.9618,-2.0127,-2.0386,-2.0586,-2.0586,-2.0605,-2.0598,-2.0594,-2.0593,-2.0593,-2.0536,-2.0506,-2.0519,-2.0506,-2.0499,-2.0508,-2.0495,-2.0482,-2.0434,-2.0405,-2.0415,-2.0404,-2.0399,-2.0404,-2.0404,-2.041,-2.041,-2.0425,-2.0449,-2.0458,-2.0467,-2.0495,-2.0566,-2.0823,-2.1333,-2.2535,-2.3465,-2.4064,-2.471,-2.5396,-2.561,-2.56,-2.5609,-2.5599,-2.5601,-2.557,-2.5583,-2.557,-2.5531,-2.5517,-2.5522,-2.548,-2.5437,-2.5421,-2.5395,-2.5378,-2.536,-2.5351,-2.5351,-2.5301,-2.5248,-2.516,-2.5088,-2.5038,-2.4972,-2.4931,1.4951,1.5088,1.5179,1.5118,1.4935,1.4501,1.4273,1.4092,1.3628,1.3035,1.2389,1.1836,1.1169,1.0253,0.9075,0.7991,0.7028,0.5057,0.2901,0.0118,-0.3057,-0.6358,-0.949,-1.2095,-1.4001,-1.4865,-1.5348,-1.5425,-1.5429,-1.6341,-1.7124,-1.7971,-1.9277,-2.0102,-2.0196,-1.971,-1.9204,-1.9052,-1.8475,-1.7994,-1.8,-1.8003,-1.7986,-1.7972,-1.7938,-1.7901,-1.7844,-1.8241,-1.8615,-1.9048,-1.9635,-2.001,-2.0407,-2.0546,-2.0605,-2.0603,-2.0601,-2.0593,-2.0591,-2.0562,-2.0531,-2.0525,-2.0513,-2.0503,-2.0499,-2.0508,-2.05,-2.0472,-2.0467,-2.0463,-2.0467,-2.0467,-2.0467,-2.0472,-2.0472,-2.0472,-2.0495,-2.0495,-2.05,-2.0504,-2.0511,-2.0499,-2.0662,-2.0954,-2.1983,-2.3213,-2.3906,-2.4748,-2.5492,-2.5585,-2.56,-2.561,-2.5595,-2.5604,-2.5607,-2.5601,-2.5609,-2.557,-2.5557,-2.555,-2.5529,-2.548,-2.5445,-2.5421,-2.5404,-2.5395,-2.5379,-2.537,-2.5321,-2.5269,-2.5195,-2.5156,-2.5126,-2.5057,-2.4953,1.5359,1.5566,1.558,1.561,1.5492,1.4996,1.4624,1.4287,1.3715,1.3138,1.2567,1.1945,1.1244,1.0226,0.8984,0.7722,0.6749,0.4208,0.1354,-0.1476,-0.4917,-0.8238,-1.1119,-1.327,-1.4526,-1.5225,-1.5405,-1.547,-1.5929,-1.667,-1.7741,-1.8921,-1.9813,-2.0255,-2.0195,-1.9713,-1.9193,-1.8963,-1.8445,-1.7949,-1.7952,-1.7919,-1.7783,-1.7594,-1.746,-1.7367,-1.7275,-1.7435,-1.7829,-1.842,-1.9009,-1.9498,-2.0049,-2.0444,-2.0546,-2.0605,-2.0604,-2.0598,-2.0594,-2.059,-2.0564,-2.054,-2.0522,-2.0513,-2.051,-2.0499,-2.0511,-2.0508,-2.0508,-2.0508,-2.0508,-2.0508,-2.0515,-2.0515,-2.0519,-2.0515,-2.0499,-2.0499,-2.0499,-2.0503,-2.0506,-2.0513,-2.0536,-2.0828,-2.1354,-2.2582,-2.3751,-2.4647,-2.5485,-2.5578,-2.5628,-2.5619,-2.561,-2.56,-2.5604,-2.5613,-2.5601,-2.5609,-2.5596,-2.559,-2.555,-2.551,-2.5488,-2.5445,-2.5429,-2.5404,-2.5397,-2.538,-2.5332,-2.5292,-2.525,-2.5225,-2.5213,-2.5126,-2.5,1.5839,1.5996,1.6024,1.5983,1.5856,1.5418,1.4887,1.43,1.3815,1.331,1.2768,1.2066,1.1282,1.0326,0.8884,0.7544,0.5936,0.3089,-0.0169,-0.3537,-0.6816,-1.0025,-1.2463,-1.4311,-1.5026,-1.5292,-1.5477,-1.576,-1.6573,-1.7495,-1.8721,-1.9831,-2.0205,-2.0395,-2.0148,-1.9828,-1.937,-1.9029,-1.8395,-1.7998,-1.793,-1.7913,-1.7644,-1.7338,-1.7029,-1.6642,-1.6451,-1.6456,-1.6811,-1.748,-1.8361,-1.9007,-1.9615,-2.0183,-2.0445,-2.0605,-2.0605,-2.0604,-2.0598,-2.0596,-2.0593,-2.057,-2.0538,-2.0528,-2.05,-2.0513,-2.051,-2.0503,-2.0503,-2.0515,-2.0515,-2.0503,-2.051,-2.0513,-2.0516,-2.0516,-2.05,-2.05,-2.05,-2.0503,-2.0503,-2.0506,-2.0503,-2.0717,-2.124,-2.2507,-2.3715,-2.4569,-2.5309,-2.564,-2.5656,-2.5628,-2.5619,-2.561,-2.56,-2.5604,-2.5613,-2.5601,-2.5609,-2.5596,-2.5564,-2.555,-2.5517,-2.5495,-2.5445,-2.5421,-2.5395,-2.5388,-2.537,-2.5332,-2.5302,-2.525,-2.5233,-2.5137,-2.505,1.6285,1.6436,1.6436,1.6409,1.6328,1.5839,1.5269,1.4606,1.4078,1.3467,1.2838,1.2018,1.1196,1.0195,0.8825,0.7305,0.4992,0.2205,-0.1317,-0.4807,-0.8401,-1.1208,-1.3299,-1.4753,-1.5229,-1.5362,-1.5499,-1.5846,-1.6827,-1.7959,-1.9186,-2.0153,-2.0377,-2.0388,-2.0307,-2.0143,-1.973,-1.9234,-1.8504,-1.8263,-1.8118,-1.8124,-1.7838,-1.7627,-1.7143,-1.6717,-1.6544,-1.6076,-1.6512,-1.7667,-1.8063,-1.875,-2.0256,-2.0474,-2.0598,-2.0603,-2.0605,-2.0605,-2.0604,-2.0602,-2.0599,-2.0597,-2.057,-2.0545,-2.0516,-2.0511,-2.0506,-2.0519,-2.0519,-2.0516,-2.0516,-2.0519,-2.0522,-2.0525,-2.0528,-2.0514,-2.0514,-2.0514,-2.0514,-2.0514,-2.0514,-2.0628,-2.0606,-2.0779,-2.1399,-2.2627,-2.3719,-2.4612,-2.5192,-2.5543,-2.5699,-2.5656,-2.5628,-2.5619,-2.561,-2.56,-2.5604,-2.5613,-2.5607,-2.5595,-2.5602,-2.557,-2.5557,-2.5517,-2.5468,-2.5426,-2.5393,-2.5376,-2.5397,-2.536,-2.5332,-2.5283,-2.522,-2.5157,-2.5111,1.6738,1.6841,1.6841,1.6789,1.6659,1.6231,1.5681,1.5104,1.442,1.3722,1.2988,1.2126,1.1185,1.0128,0.86,0.6601,0.4058,0.0493,-0.3158,-0.6895,-0.9907,-1.2293,-1.418,-1.502,-1.5292,-1.5379,-1.5553,-1.5982,-1.7166,-1.8627,-1.9948,-2.0231,-2.0366,-2.039,-2.0355,-2.0313,-2.0172,-1.9735,-1.9297,-1.8975,-1.887,-1.8822,-1.879,-1.839,-1.7828,-1.7574,-1.7201,-1.6559,-1.7109,-1.7994,-1.8174,-1.8919,-2.0135,-2.0336,-2.0594,-2.0599,-2.0601,-2.0604,-2.0605,-2.0605,-2.0605,-2.0603,-2.0601,-2.058,-2.0573,-2.0547,-2.056,-2.0553,-2.0555,-2.0536,-2.0536,-2.0536,-2.0536,-2.0536,-2.054,-2.0545,-2.0545,-2.0545,-2.0545,-2.054,-2.0618,-2.0772,-2.0887,-2.1057,-2.1753,-2.3254,-2.4323,-2.5001,-2.5407,-2.5601,-2.5699,-2.5675,-2.5656,-2.5628,-2.5619,-2.561,-2.56,-2.5615,-2.5609,-2.5599,-2.5601,-2.5589,-2.5557,-2.5538,-2.5517,-2.5476,-2.5441,-2.5429,-2.5432,-2.5395,-2.5378,-2.5341,-2.5293,-2.5212,-2.5209,1.7199,1.7264,1.724,1.7126,1.6926,1.6607,1.6231,1.5782,1.4923,1.4071,1.3272,1.233,1.1335,1.0146,0.8373,0.5585,0.2378,-0.1313,-0.5173,-0.9235,-1.1871,-1.3959,-1.4675,-1.5291,-1.5374,-1.5368,-1.5575,-1.6092,-1.7808,-1.9188,-2.012,-2.0302,-2.0354,-2.0392,-2.0383,-2.0385,-2.0318,-2.0211,-2.0143,-2.0074,-2.0208,-2.0274,-2.0149,-1.9442,-1.9055,-1.8802,-1.8253,-1.802,-1.8042,-1.8362,-1.8734,-1.9263,-1.978,-2.0176,-2.0494,-2.0593,-2.0575,-2.0576,-2.058,-2.0583,-2.0602,-2.0604,-2.0605,-2.0605,-2.0586,-2.058,-2.0575,-2.0591,-2.0573,-2.0573,-2.0573,-2.0573,-2.0573,-2.0575,-2.0576,-2.0576,-2.0576,-2.0632,-2.0746,-2.08,-2.1033,-2.1245,-2.183,-2.2081,-2.26,-2.4079,-2.4911,-2.5473,-2.5605,-2.5679,-2.5699,-2.5699,-2.5675,-2.5656,-2.5628,-2.5624,-2.56,-2.5615,-2.561,-2.56,-2.5604,-2.5587,-2.5576,-2.5564,-2.5551,-2.5518,-2.5485,-2.5476,-2.5472,-2.5464,-2.5448,-2.5423,-2.536,-2.5284,-2.5243,1.7789,1.7789,1.7704,1.7526,1.7344,1.7035,1.6654,1.6215,1.5608,1.4665,1.355,1.2484,1.1398,1.0195,0.7976,0.4958,0.0843,-0.3208,-0.7045,-1.0504,-1.353,-1.4749,-1.5202,-1.5388,-1.539,-1.5329,-1.5558,-1.6309,-1.7934,-1.936,-2.0304,-2.0306,-2.0327,-2.0334,-2.0379,-2.0383,-2.0404,-2.0434,-2.0464,-2.0493,-2.0491,-2.0504,-2.0321,-1.9961,-1.9714,-1.9289,-1.8782,-1.839,-1.8568,-1.8863,-1.9102,-1.9614,-2.0204,-2.0423,-2.0501,-2.0523,-2.0545,-2.0527,-2.0529,-2.0551,-2.059,-2.0588,-2.0609,-2.0607,-2.0596,-2.0605,-2.0604,-2.0604,-2.0604,-2.0604,-2.0604,-2.0604,-2.0604,-2.0604,-2.0604,-2.0604,-2.0642,-2.0853,-2.1004,-2.1257,-2.1507,-2.2012,-2.2656,-2.322,-2.3779,-2.4456,-2.5168,-2.5652,-2.5644,-2.5699,-2.5699,-2.5699,-2.5699,-2.5675,-2.5652,-2.5632,-2.5628,-2.5624,-2.5619,-2.561,-2.5605,-2.559,-2.5579,-2.5593,-2.5582,-2.5556,-2.5518,-2.5518,-2.5498,-2.549,-2.5488,-2.5464,-2.5448,-2.5387,-2.5341,1.8225,1.8208,1.8061,1.791,1.7732,1.7509,1.7158,1.6716,1.6142,1.5286,1.4164,1.2867,1.1608,1.0098,0.7606,0.3681,-0.0652,-0.5028,-0.9252,-1.2752,-1.4596,-1.5528,-1.5817,-1.5621,-1.5368,-1.5377,-1.6212,-1.7183,-1.8323,-1.9412,-2.0257,-2.0289,-2.0299,-2.0327,-2.0373,-2.0385,-2.0383,-2.0385,-2.0434,-2.0449,-2.0458,-2.0472,-2.0504,-2.0282,-2.0097,-1.975,-1.9675,-1.9325,-1.9464,-1.9662,-1.986,-1.9979,-2.0355,-2.0494,-2.0514,-2.0516,-2.0516,-2.0516,-2.0514,-2.0531,-2.0547,-2.0567,-2.0564,-2.0547,-2.0545,-2.0549,-2.0552,-2.0552,-2.054,-2.0541,-2.056,-2.056,-2.058,-2.0598,-2.068,-2.0721,-2.125,-2.1796,-2.201,-2.2261,-2.2512,-2.2816,-2.3382,-2.3769,-2.4347,-2.4949,-2.5626,-2.5675,-2.5687,-2.5707,-2.5703,-2.5703,-2.5703,-2.5699,-2.5675,-2.5675,-2.5652,-2.5648,-2.5648,-2.5624,-2.5619,-2.561,-2.5605,-2.5615,-2.5609,-2.5585,-2.5549,-2.555,-2.5538,-2.5551,-2.5531,-2.5503,-2.5488,-2.5464,-2.5432,1.8587,1.855,1.8432,1.8307,1.8176,1.7971,1.767,1.7247,1.6693,1.5943,1.496,1.3519,1.1987,0.9897,0.6949,0.2261,-0.229,-0.6643,-1.1147,-1.457,-1.6339,-1.6776,-1.6578,-1.6188,-1.6036,-1.6361,-1.7144,-1.791,-1.8781,-1.9701,-2.0227,-2.0269,-2.0312,-2.0335,-2.0372,-2.0379,-2.0392,-2.0383,-2.0399,-2.039,-2.0425,-2.0454,-2.0491,-2.0504,-2.0515,-2.0503,-2.0487,-2.0471,-2.0455,-2.0435,-2.0357,-2.0399,-2.0438,-2.05,-2.0503,-2.0503,-2.05,-2.0516,-2.0516,-2.0513,-2.051,-2.0487,-2.0503,-2.0496,-2.0492,-2.0511,-2.0515,-2.0526,-2.0539,-2.0553,-2.0572,-2.0572,-2.0592,-2.0909,-2.1017,-2.1201,-2.1968,-2.2655,-2.291,-2.3183,-2.3453,-2.3703,-2.4106,-2.4493,-2.4879,-2.5481,-2.569,-2.5701,-2.5694,-2.5694,-2.5694,-2.5691,-2.5691,-2.5687,-2.5703,-2.5683,-2.5679,-2.5668,-2.5668,-2.564,-2.5636,-2.5632,-2.5648,-2.5619,-2.5615,-2.5586,-2.56,-2.5585,-2.5593,-2.5587,-2.5564,-2.5538,-2.5531,-2.5517,-2.5515,1.8999,1.8894,1.8878,1.8788,1.8654,1.8487,1.8235,1.7803,1.7316,1.663,1.5672,1.4446,1.2871,1.0774,0.6881,0.2156,-0.3288,-0.7919,-1.2383,-1.612,-1.763,-1.791,-1.7638,-1.7107,-1.7211,-1.7535,-1.7999,-1.8616,-1.9134,-1.9774,-2.0164,-2.0209,-2.0197,-2.0249,-2.0308,-2.0318,-2.0334,-2.0347,-2.039,-2.0383,-2.0404,-2.0444,-2.0487,-2.0515,-2.0504,-2.0508,-2.0511,-2.0511,-2.0496,-2.0511,-2.0515,-2.0515,-2.0515,-2.0519,-2.0499,-2.0499,-2.0492,-2.0484,-2.0504,-2.0476,-2.0467,-2.0419,-2.043,-2.0425,-2.0454,-2.0535,-2.056,-2.0604,-2.0633,-2.0687,-2.071,-2.0682,-2.0744,-2.1594,-2.2015,-2.2381,-2.2956,-2.3273,-2.349,-2.3847,-2.4199,-2.4606,-2.5086,-2.5278,-2.5293,-2.5701,-2.5698,-2.569,-2.5704,-2.5704,-2.5704,-2.5701,-2.5701,-2.5697,-2.5691,-2.5691,-2.5691,-2.5697,-2.5701,-2.5678,-2.5671,-2.5691,-2.5687,-2.566,-2.5632,-2.5604,-2.5595,-2.563,-2.56,-2.559,-2.5587,-2.5589,-2.5564,-2.5551,-2.555]}]]